[[{"header":{"parameterUnit":"m.s-1","parameterCategory":1,"la1":31.0,"la2":29.5877,"lo1":-88.7671,"lo2":-86.6584,"dy":0.0162,"dx":0.0185,"nx":115,"ny":88,"refTime":"2023-09-08T06:00:00:Z","depth":0,"parameterNumber":2,"parameterNumberName":"U-component_of_WINDS"},"data":[0.0,0.0,0.0,0.0,0.0,0.0,0.0,0.0,0.0,0.0,0.0,0.0,0.0,0.0,0.0,0.0,0.0,0.0,0.0,0.0,0.0,0.0,0.0,0.0,0.0,0.0,0.0,0.0,0.0,0.0,0.0,0.0,0.0,0.0,0.0,0.0,0.0,0.0,0.0,0.0,0.0,0.0,0.0,0.0,0.0,0.0,0.0,0.0,0.0,0.0,0.0,0.0,0.0,0.0,0.0,0.0,0.0,0.0,0.0,0.0,0.0,0.0,0.0,0.0,0.0,0.0,0.0,0.0,0.0,0.0,0.0,0.0,0.0,0.0,0.0,0.0,0.0,0.0,0.0,0.0,0.0,0.0,0.0,0.0,0.0,0.0,0.0,0.0,0.0,0.0,0.0,0.0,0.0,0.0,0.0,0.0,0.0,0.0,0.0,0.0,0.0,0.0,0.0,0.0,0.0,0.0,0.0,0.0,0.0,0.0,0.0,0.0,0.0,0.0,0.0,0.0,0.0,0.0,0.0,0.0,0.0,0.0,0.0,0.0,0.0,0.0,0.0,0.0,0.0,0.0,0.0,0.0,0.0,0.0,0.0,0.0,0.0,0.0,0.0,0.0,0.0,0.0,0.0,0.0,0.0,0.0,0.0,0.0,0.0,0.0,0.0,0.0,0.0,0.0,0.0,0.0,0.0,0.0,0.0,0.0,0.0,0.0,0.0,0.0,0.0,0.0,0.0,0.0,0.0,0.0,0.0,0.0,0.0,0.0,0.0,0.0,0.0,0.0,0.0,0.0,0.0,0.0,0.0,0.0,0.0,0.0,0.0,0.0,0.0,0.0,0.0,0.0,0.0,0.0,0.0,0.0,0.0,0.0,0.0,0.0,0.0,0.0,0.0,0.0,0.0,0.0,0.0,0.0,0.0,0.0,0.0,0.0,0.0,0.0,0.0,0.0,0.0,0.0,0.0,0.0,0.0,0.0,0.0,0.0,0.0,0.0,0.0,0.0,0.0,0.0,0.0,0.0,0.0,0.0,0.0,0.0,0.0,0.0,0.0,0.0,0.0,0.0,0.0,0.0,0.0,0.0,0.0,0.0,0.0,0.0,0.0,0.0,0.0,0.0,0.0,0.0,0.0,0.0,0.0,0.0,0.0,0.0,0.0,0.0,0.0,0.0,0.0,0.0,0.0,0.0,0.0,0.0,0.0,0.0,0.0,0.0,0.0,0.0,0.0,0.0,0.0,0.0,0.0,0.0,0.0,0.0,0.0,0.0,0.0,0.0,0.0,0.0,0.0,0.0,0.0,0.0,0.0,0.0,0.0,0.0,0.0,0.0,0.0,0.0,0.0,0.0,0.0,0.0,0.0,0.0,0.0,0.0,0.0,0.0,0.0,0.0,0.0,0.0,0.0,0.0,0.0,0.0,0.0,0.0,0.0,0.0,0.0,0.0,0.0,0.0,0.0,0.0,0.0,0.0,0.0,0.0,0.0,0.0,0.0,0.0,0.0,0.0,0.0,0.0,0.0,0.0,0.0,0.0,0.0,0.0,0.0,0.0,0.0,0.0,0.0,0.0,0.0,0.0,0.0,0.0,0.0,0.0,0.0,0.0,0.0,0.0,0.0,0.0,0.0,0.0,0.0,0.0,0.0,0.0,0.0,0.0,0.0,0.0,0.0,0.0,0.0,0.0,0.0,0.0,0.0,0.0,0.0,0.0,0.0,0.0,0.0,0.0,0.0,0.0,0.0,0.0,0.0,0.0,0.0,0.0,0.0,0.0,0.0,0.0,0.0,0.0,0.0,0.0,0.0,0.0,0.0,0.0,0.0,0.0,0.0,0.0,0.0,0.0,0.0,0.0,0.0,0.0,0.0,0.0,0.0,0.0,0.0,0.0,0.0,0.0,0.0,0.0,0.0,0.0,0.0,0.0,0.0,0.0,0.0,0.0,0.0,0.0,0.0,0.0,0.0,0.0,0.0,0.0,0.0,0.0,0.0,0.0,0.0,0.0,0.0,0.0,0.0,0.0,0.0,0.0,0.0,0.0,0.0,0.0,0.0,0.0,0.0,0.0,0.0,0.0,0.0,0.0,0.0,0.0,0.0,0.0,0.0,0.0,0.0,0.0,0.0,0.0,0.0,0.0,0.0,0.0,0.0,0.0,0.0,0.0,0.0,0.0,0.0,0.0,0.0,0.0,0.0,0.0,0.0,0.0,0.0,0.0,0.0,0.0,0.0,0.0,0.0,0.0,0.0,0.0,0.0,0.0,0.0,0.0,0.0,0.0,0.0,0.0,0.0,0.0,0.0,0.0,0.0,0.0,0.0,0.0,0.0,0.0,0.0,0.0,0.0,0.0,0.0,0.0,0.0,0.0,0.0,0.0,0.0,0.0,0.0,0.0,0.0,0.0,0.0,0.0,0.0,0.0,0.0,0.0,0.0,0.0,0.0,0.0,0.0,0.0,0.0,0.0,0.0,0.0,0.0,0.0,0.0,0.0,0.0,0.0,0.0,0.0,0.0,0.0,0.0,0.0,0.0,0.0,0.0,0.0,0.0,0.0,0.0,0.0,0.0,0.0,0.0,0.0,0.0,0.0,0.0,0.0,0.0,0.0,0.0,0.0,0.0,0.0,0.0,0.0,0.0,0.0,0.0,0.0,0.0,0.0,0.0,0.0,0.0,0.0,0.0,0.0,0.0,0.0,0.0,0.0,0.0,0.0,0.0,0.0,0.0,0.0,0.0,0.0,0.0,0.0,0.0,0.0,0.0,0.0,0.0,0.0,0.0,0.0,0.0,0.0,0.0,0.0,0.0,0.0,0.0,0.0,0.0,0.0,0.0,0.0,0.0,0.0,0.0,0.0,0.0,0.0,0.0,0.0,0.0,0.0,0.0,0.0,0.0,0.0,0.0,0.0,0.0,0.0,0.0,0.0,0.0,0.0,0.0,0.0,0.0,0.0,0.0,0.0,0.0,0.0,0.0,0.0,0.0,0.0,0.0,0.0,0.0,0.0,0.0,0.0,0.0,0.0,0.0,0.0,0.0,0.0,0.0,0.0,0.0,0.0,0.0,0.0,0.0,0.0,0.0,0.0,0.0,0.0,0.0,0.0,0.0,0.0,0.0,0.0,0.0,0.0,0.0,0.0,0.0,0.0,0.0,0.0,0.0,0.0,0.0,0.0,0.0,0.0,0.0,0.0,0.0,0.0,0.0,0.0,0.0,0.0,0.0,0.0,0.0,0.0,0.0,0.0,0.0,0.0,0.0,0.0,0.0,0.0,0.0,0.0,0.0,0.0,0.0,0.0,0.0,0.0,0.0,0.0,0.0,0.0,0.0,0.0,0.0,0.0,0.0,0.0,0.0,0.0,0.0,0.0,0.0,0.0,0.0,0.0,0.0,0.0,0.0,0.0,0.0,0.0,0.0,0.0,0.0,0.0,0.0,0.0,0.0,0.0,0.0,0.0,0.0,0.0,0.0,0.0,0.0,0.0,0.0,0.0,0.0,0.0,0.0,0.0,0.0,0.0,0.0,0.0,0.0,0.0,0.0,0.0,0.0,0.0,0.0,0.0,0.0,0.0,0.0,0.0,0.0,0.0,0.0,0.0,0.0,0.0,0.0,0.0,0.0,0.0,0.0,0.0,0.0,0.0,0.0,0.0,0.0,0.0,0.0,0.0,0.0,0.0,0.0,0.0,0.0,0.0,0.0,0.0,0.0,0.0,0.0,0.0,0.0,0.0,0.0,0.0,0.0,0.0,0.0,0.0,0.0,0.0,0.0,0.0,0.0,0.0,0.0,0.0,0.0,0.0,0.0,0.0,0.0,0.0,0.0,0.0,0.0,0.0,0.0,0.0,0.0,0.0,0.0,0.0,0.0,0.0,0.0,0.0,0.0,0.0,0.0,0.0,0.0,0.0,0.0,0.0,0.0,0.0,0.0,0.0,0.0,0.0,0.0,0.0,0.0,0.0,0.0,0.0,0.0,0.0,0.0,0.0,0.0,0.0,0.0,0.0,0.0,0.0,0.0,0.0,0.0,0.0,0.0,0.0,0.0,0.0,0.0,0.0,0.0,0.0,0.0,0.0,0.0,0.0,0.0,0.0,0.0,0.0,0.0,0.0,0.0,0.0,0.0,0.0,0.0,0.0,0.0,0.0,0.0,0.0,0.0,0.0,0.0,0.0,0.0,0.0,0.0,0.0,0.0,0.0,0.0,0.0,0.0,0.0,0.0,0.0,0.0,0.0,0.0,0.0,0.0,0.0,0.0,0.0,0.0,0.0,1.647,0.0,0.0,0.0,0.0,0.0,0.0,0.0,0.0,0.0,0.0,0.0,0.0,0.0,0.0,0.0,0.0,0.0,0.0,0.0,0.0,0.0,0.0,0.0,0.0,0.0,0.0,0.0,0.0,0.0,0.0,0.0,0.0,0.0,0.0,0.0,0.0,0.0,0.0,0.0,0.0,0.0,0.0,0.0,0.0,0.0,0.0,0.0,0.0,0.0,0.0,0.0,0.0,0.0,0.0,0.0,0.0,0.0,0.0,0.0,0.0,0.0,0.0,0.0,0.0,0.0,0.0,0.0,0.0,0.0,0.0,0.0,0.0,0.0,0.0,0.0,0.0,0.0,0.0,0.0,0.0,0.0,0.0,0.0,0.0,0.0,0.0,0.0,0.0,0.0,0.0,0.0,0.0,0.0,0.0,0.0,0.0,0.0,0.0,0.0,0.0,0.0,0.0,0.0,0.0,0.0,0.0,0.0,0.0,0.0,0.0,1.6298,1.6694,1.6308,1.6295,1.6675,0.0,0.0,0.0,0.0,0.0,0.0,0.0,0.0,0.0,0.0,0.0,0.0,0.0,0.0,0.0,0.0,0.0,0.0,0.0,0.0,0.0,0.0,0.0,0.0,0.0,0.0,0.0,0.0,0.0,0.0,0.0,0.0,0.0,0.0,0.0,0.0,0.0,0.0,0.0,0.0,0.0,0.0,0.0,0.0,0.0,0.0,0.0,0.0,0.0,0.0,0.0,0.0,0.0,0.0,0.0,0.0,0.0,0.0,0.0,0.0,0.0,0.0,0.0,0.0,0.0,0.0,0.0,0.0,0.0,0.0,0.0,0.0,0.0,0.0,0.0,0.0,0.0,0.0,0.0,0.0,0.0,0.0,0.0,0.0,0.0,0.0,0.0,0.0,0.0,0.0,0.0,0.0,0.0,0.0,0.0,0.0,0.0,0.0,0.0,0.0,0.0,0.0,0.0,0.0,0.0,0.0,0.0,0.0,0.0,0.0,0.0,0.0,1.7286,1.6984,1.6992,0.0,0.0,0.0,0.0,0.0,0.0,0.0,0.0,0.0,0.0,0.0,0.0,0.0,0.0,0.0,0.0,0.0,0.0,0.0,0.0,0.0,0.0,0.0,0.0,0.0,0.0,0.0,0.0,0.0,0.0,0.0,0.0,0.0,0.0,0.0,0.0,0.0,0.0,0.0,0.0,0.0,0.0,0.0,0.0,0.0,0.0,0.0,0.0,0.0,0.0,0.0,0.0,0.0,0.0,0.0,0.0,0.0,0.0,0.0,0.0,0.0,0.0,0.0,0.0,0.0,0.0,0.0,0.0,0.0,0.0,0.0,0.0,0.0,0.0,0.0,0.0,0.0,0.0,0.0,0.0,0.0,0.0,0.0,0.0,0.0,0.0,0.0,0.0,0.0,0.0,0.0,0.0,0.0,0.0,0.0,0.0,0.0,0.0,0.0,0.0,0.0,0.0,0.0,0.0,0.0,0.0,0.0,0.0,0.0,0.0,1.7372,2.1173,1.9075,0.0,1.7928,0.0,0.0,0.0,0.0,0.0,0.0,0.0,0.0,0.0,0.0,0.0,0.0,0.0,0.0,0.0,0.0,0.0,0.0,0.0,0.0,0.0,0.0,0.0,0.0,0.0,0.0,0.0,0.0,0.0,0.0,0.0,0.0,0.0,0.0,0.0,0.0,0.0,0.0,0.0,0.0,0.0,0.0,0.0,0.0,0.0,0.0,0.0,0.0,0.0,0.0,0.0,0.0,0.0,0.0,0.0,0.0,0.0,0.0,0.0,0.0,0.0,0.0,0.0,0.0,0.0,0.0,0.0,0.0,0.0,0.0,0.0,0.0,0.0,0.0,0.0,0.0,0.0,0.0,0.0,0.0,0.0,0.0,0.0,0.0,0.0,0.0,0.0,0.0,0.0,0.0,0.0,0.0,0.0,0.0,0.0,0.0,0.0,0.0,0.0,0.0,0.0,0.0,0.0,0.0,0.0,0.0,0.0,0.0,0.0,0.0,1.802,2.0272,1.9313,1.8984,0.0,0.0,0.0,0.0,0.0,0.0,0.0,0.0,0.0,0.0,0.0,0.0,0.0,0.0,0.0,0.0,0.0,0.0,0.0,0.0,0.0,0.0,0.0,0.0,0.0,0.0,0.0,0.0,0.0,0.0,0.0,0.0,0.0,0.0,0.0,0.0,0.0,0.0,0.0,0.0,0.0,0.0,0.0,0.0,0.0,0.0,0.0,0.0,0.0,0.0,0.0,0.0,0.0,0.0,0.0,0.0,0.0,0.0,0.0,0.0,0.0,0.0,0.0,0.0,0.0,0.0,0.0,0.0,0.0,0.0,0.0,0.0,0.0,0.0,0.0,0.0,0.0,0.0,0.0,0.0,0.0,0.0,0.0,0.0,0.0,0.0,0.0,0.0,0.0,0.0,0.0,0.0,0.0,0.0,0.0,0.0,0.0,0.0,0.0,0.0,0.0,0.0,0.0,0.0,0.0,0.0,0.0,0.0,0.0,0.0,1.8807,1.8744,1.9599,2.0096,2.0292,2.0172,0.0,0.0,0.0,0.0,0.0,0.0,0.0,0.0,0.0,0.0,0.0,0.0,0.0,0.0,0.0,0.0,0.0,0.0,0.0,0.0,0.0,0.0,0.0,0.0,0.0,0.0,0.0,0.0,0.0,0.0,0.0,0.0,0.0,0.0,0.0,0.0,0.0,0.0,0.0,0.0,0.0,0.0,0.0,0.0,0.0,0.0,0.0,0.0,0.0,0.0,0.0,0.0,0.0,0.0,0.0,0.0,0.0,0.0,0.0,0.0,0.0,0.0,0.0,0.0,0.0,0.0,0.0,0.0,0.0,0.0,0.0,0.0,0.0,0.0,0.0,0.0,0.0,0.0,0.0,0.0,0.0,0.0,0.0,0.0,0.0,0.0,0.0,0.0,0.0,0.0,0.0,0.0,0.0,0.0,0.0,0.0,0.0,0.0,0.0,0.0,0.0,0.0,0.0,0.0,0.0,0.0,0.0,0.0,2.3754,2.0844,1.9585,2.0527,2.2051,2.1816,0.0,0.0,0.0,0.0,0.0,0.0,0.0,0.0,0.0,0.0,0.0,0.0,0.0,0.0,0.0,0.0,0.0,0.0,0.0,0.0,0.0,0.0,0.0,0.0,0.0,0.0,0.0,0.0,0.0,0.0,0.0,0.0,0.0,0.0,0.0,0.0,0.0,0.0,0.0,0.0,0.0,0.0,0.0,0.0,0.0,0.0,0.0,0.0,0.0,0.0,0.0,0.0,0.0,0.0,0.0,0.0,0.0,0.0,0.0,0.0,0.0,0.0,0.0,0.0,0.0,0.0,0.0,0.0,0.0,0.0,0.0,0.0,0.0,0.0,0.0,0.0,0.0,0.0,0.0,0.0,0.0,0.0,0.0,0.0,0.0,0.0,0.0,0.0,0.0,0.0,0.0,0.0,0.0,0.0,0.0,0.0,0.0,0.0,0.0,0.0,0.0,0.0,0.0,0.0,0.0,0.0,0.0,0.0,0.0,2.0998,2.0932,2.1821,2.3691,2.2889,2.2128,0.0,0.0,0.0,0.0,0.0,0.0,0.0,0.0,0.0,0.0,0.0,0.0,0.0,0.0,0.0,0.0,0.0,0.0,0.0,0.0,0.0,0.0,0.0,0.0,0.0,0.0,0.0,0.0,0.0,0.0,0.0,0.0,0.0,0.0,0.0,0.0,0.0,0.0,0.0,0.0,0.0,0.0,0.0,0.0,0.0,0.0,0.0,0.0,0.0,0.0,0.0,0.0,0.0,0.0,0.0,0.0,0.0,0.0,0.0,0.0,0.0,0.0,0.0,0.0,0.0,0.0,0.0,0.0,0.0,0.0,0.0,0.0,0.0,0.0,0.0,0.0,0.0,0.0,0.0,0.0,0.0,0.0,0.0,0.0,0.0,0.0,0.0,0.0,0.0,0.0,0.0,0.0,0.0,0.0,0.0,0.0,0.0,0.0,0.0,0.0,0.0,0.0,0.0,0.0,0.0,0.0,0.0,0.0,0.0,2.0901,0.0,2.3252,2.4334,2.3064,2.2147,0.0,0.0,0.0,0.0,0.0,0.0,0.0,0.0,0.0,0.0,0.0,0.0,0.0,0.0,0.0,0.0,0.0,0.0,0.0,0.0,0.0,0.0,0.0,0.0,0.0,0.0,0.0,0.0,0.0,0.0,0.0,0.0,0.0,0.0,0.0,0.0,0.0,0.0,0.0,0.0,0.0,0.0,0.0,0.0,0.0,0.0,0.0,0.0,0.0,0.0,0.0,0.0,0.0,0.0,0.0,0.0,0.0,0.0,0.0,0.0,0.0,0.0,0.0,0.0,0.0,0.0,0.0,0.0,0.0,0.0,0.0,0.0,0.0,0.0,0.0,0.0,0.0,0.0,0.0,0.0,0.0,0.0,0.0,0.0,0.0,0.0,0.0,0.0,0.0,0.0,0.0,0.0,0.0,0.0,0.0,0.0,0.0,0.0,0.0,0.0,0.0,0.0,0.0,0.0,0.0,0.0,0.0,0.0,2.2562,2.4264,2.4332,2.3643,2.2086,2.2773,2.1953,0.0,0.0,0.0,0.0,0.0,0.0,0.0,0.0,0.0,0.0,0.0,0.0,0.0,0.0,0.0,0.0,0.0,0.0,0.0,0.0,0.0,0.0,0.0,0.0,0.0,0.0,0.0,0.0,0.0,0.0,0.0,0.0,0.0,0.0,0.0,0.0,0.0,0.0,0.0,0.0,0.0,0.0,0.0,0.0,0.0,0.0,0.0,0.0,0.0,0.0,0.0,0.0,0.0,0.0,0.0,0.0,0.0,0.0,0.0,0.0,0.0,0.0,0.0,0.0,0.0,0.0,0.0,0.0,0.0,0.0,0.0,0.0,0.0,0.0,0.0,0.0,0.0,0.0,0.0,0.0,0.0,0.0,0.0,0.0,0.0,0.0,0.0,0.0,0.0,0.0,0.0,0.0,0.0,0.0,0.0,0.0,0.0,0.0,0.0,0.0,0.0,0.0,0.0,0.0,0.0,0.0,0.0,0.0,0.0,2.4381,2.442,2.4453,2.451,2.4178,2.3356,0.0,0.0,0.0,0.0,0.0,0.0,0.0,0.0,0.0,0.0,0.0,0.0,0.0,0.0,0.0,0.0,0.0,0.0,0.0,0.0,0.0,0.0,0.0,0.0,0.0,0.0,0.0,0.0,0.0,0.0,0.0,0.0,0.0,0.0,0.0,0.0,0.0,0.0,0.0,0.0,0.0,0.0,0.0,0.0,0.0,0.0,0.0,0.0,0.0,0.0,0.0,0.0,0.0,0.0,0.0,0.0,0.0,0.0,0.0,0.0,0.0,0.0,0.0,0.0,0.0,0.0,0.0,0.0,0.0,0.0,0.0,0.0,0.0,0.0,0.0,0.0,0.0,0.0,0.0,0.0,0.0,0.0,0.0,0.0,0.0,0.0,0.0,0.0,0.0,0.0,0.0,0.0,0.0,0.0,0.0,0.0,0.0,0.0,0.0,0.0,0.0,0.0,0.0,0.0,0.0,0.0,0.0,0.0,0.0,2.538,2.537,2.5468,2.5698,2.5162,2.4159,2.2671,0.0,0.0,0.0,0.0,0.0,0.0,0.0,0.0,0.0,0.0,0.0,0.0,0.0,0.0,0.0,0.0,0.0,0.0,0.0,0.0,0.0,0.0,0.0,0.0,0.0,0.0,0.0,0.0,0.0,0.0,0.0,0.0,0.0,0.0,0.0,0.0,0.0,0.0,0.0,0.0,0.0,0.0,0.0,0.0,0.0,0.0,0.0,0.0,0.0,0.0,0.0,0.0,0.0,0.0,0.0,0.0,0.0,0.0,0.0,0.0,0.0,0.0,0.0,0.0,0.0,0.0,0.0,0.0,0.0,0.0,0.0,0.0,0.0,0.0,0.0,0.0,0.0,0.0,0.0,0.0,0.0,0.0,0.0,0.0,0.0,0.0,0.0,0.0,0.0,0.0,0.0,0.0,0.0,0.0,0.0,0.0,0.0,0.0,0.0,0.0,0.0,0.0,0.0,0.0,0.0,0.0,0.0,0.0,2.7137,2.7196,2.6768,2.5892,2.5821,2.46,0.0,0.0,0.0,0.0,0.0,0.0,0.0,0.0,0.0,0.0,0.0,0.0,0.0,0.0,0.0,0.0,0.0,0.0,0.0,0.0,0.0,0.0,0.0,0.0,0.0,0.0,0.0,0.0,0.0,0.0,0.0,0.0,0.0,0.0,0.0,0.0,0.0,0.0,0.0,0.0,0.0,0.0,0.0,0.0,0.0,0.0,0.0,0.0,0.0,0.0,0.0,0.0,0.0,0.0,0.0,0.0,0.0,0.0,0.0,0.0,0.0,0.0,0.0,0.0,0.0,0.0,0.0,0.0,0.0,0.0,0.0,0.0,0.0,0.0,0.0,0.0,0.0,0.0,0.0,0.0,0.0,0.0,0.0,0.0,0.0,0.0,0.0,0.0,0.0,0.0,0.0,0.0,0.0,0.0,0.0,0.0,0.0,0.0,0.0,0.0,0.0,0.0,0.0,0.0,0.0,0.0,0.0,0.0,0.0,2.8813,2.9472,2.9085,2.7595,2.6914,2.5945,0.0,0.0,0.0,0.0,0.0,0.0,0.0,0.0,0.0,0.0,0.0,0.0,0.0,0.0,0.0,0.0,0.0,0.0,0.0,0.0,0.0,0.0,0.0,0.0,0.0,0.0,0.0,0.0,0.0,0.0,0.0,0.0,0.0,0.0,0.0,0.0,0.0,0.0,0.0,0.0,0.0,0.0,0.0,0.0,0.0,0.0,0.0,0.0,0.0,0.0,0.0,0.0,0.0,0.0,0.0,0.0,0.0,0.0,0.0,0.0,0.0,0.0,0.0,0.0,0.0,0.0,0.0,0.0,0.0,0.0,0.0,0.0,0.0,0.0,0.0,0.0,0.0,0.0,0.0,0.0,0.0,0.0,0.0,0.0,0.0,0.0,0.0,0.0,0.0,0.0,0.0,0.0,0.0,0.0,0.0,0.0,0.0,0.0,0.0,0.0,0.0,0.0,0.0,0.0,0.0,0.0,0.0,0.0,2.8352,3.0004,3.087,3.0814,2.9809,2.8942,2.7536,0.0,0.0,0.0,0.0,0.0,0.0,0.0,0.0,0.0,0.0,0.0,0.0,0.0,0.0,0.0,0.0,0.0,0.0,0.0,0.0,0.0,0.0,0.0,0.0,0.0,0.0,0.0,0.0,0.0,0.0,0.0,0.0,0.0,0.0,0.0,0.0,0.0,0.0,0.0,0.0,0.0,0.0,0.0,0.0,0.0,0.0,0.0,0.0,0.0,0.0,0.0,0.0,0.0,0.0,0.0,0.0,0.0,0.0,0.0,0.0,0.0,0.0,0.0,0.0,0.0,0.0,0.0,0.0,0.0,0.0,0.0,0.0,0.0,0.0,0.0,0.0,0.0,0.0,0.0,0.0,0.0,0.0,0.0,0.0,0.0,0.0,0.0,0.0,0.0,0.0,0.0,0.0,0.0,0.0,0.0,0.0,0.0,0.0,0.0,0.0,0.0,0.0,0.0,0.0,0.0,0.0,0.0,0.0,2.9159,3.0891,3.1793,3.2217,3.2101,3.1105,2.9059,0.0,0.0,0.0,0.0,0.0,0.0,0.0,0.0,0.0,0.0,0.0,0.0,0.0,0.0,0.0,0.0,0.0,0.0,0.0,0.0,0.0,0.0,0.0,0.0,0.0,0.0,0.0,0.0,0.0,0.0,0.0,0.0,0.0,0.0,0.0,0.0,0.0,0.0,0.0,0.0,0.0,0.0,0.0,0.0,0.0,0.0,0.0,0.0,0.0,0.0,0.0,0.0,0.0,0.0,0.0,0.0,0.0,0.0,0.0,0.0,0.0,0.0,0.0,0.0,0.0,0.0,0.0,0.0,0.0,0.0,0.0,0.0,0.0,0.0,0.0,0.0,0.0,0.0,0.0,0.0,0.0,0.0,0.0,0.0,0.0,0.0,0.0,0.0,0.0,0.0,0.0,0.0,0.0,0.0,0.0,0.0,0.0,0.0,0.0,0.0,0.0,0.0,0.0,0.0,0.0,0.0,0.0,0.0,3.0053,3.1734,3.3199,3.363,3.2945,3.0773,2.8927,0.0,0.0,0.0,0.0,0.0,0.0,0.0,0.0,0.0,0.0,0.0,0.0,0.0,0.0,0.0,0.0,0.0,0.0,0.0,0.0,0.0,0.0,0.0,0.0,0.0,0.0,0.0,0.0,0.0,0.0,0.0,0.0,0.0,0.0,0.0,0.0,0.0,0.0,0.0,0.0,0.0,0.0,0.0,0.0,0.0,0.0,0.0,0.0,2.0566,0.0,0.0,0.0,0.0,0.0,0.0,0.0,0.0,0.0,0.0,0.0,0.0,0.0,0.0,0.0,0.0,0.0,0.0,0.0,0.0,0.0,0.0,0.0,0.0,0.0,0.0,0.0,0.0,0.0,0.0,0.0,0.0,0.0,0.0,0.0,0.0,0.0,0.0,0.0,0.0,0.0,0.0,0.0,0.0,0.0,0.0,0.0,0.0,0.0,0.0,0.0,0.0,0.0,0.0,0.0,0.0,0.0,0.0,0.0,3.089,3.2564,3.3852,3.4061,3.3141,3.1371,2.9661,0.0,0.0,0.0,0.0,0.0,0.0,0.0,0.0,0.0,0.0,0.0,0.0,0.0,0.0,0.0,0.0,0.0,0.0,0.0,0.0,0.0,0.0,0.0,0.0,0.0,0.0,0.0,0.0,0.0,0.0,0.0,0.0,0.0,0.0,0.0,0.0,0.0,0.0,0.0,0.0,0.0,0.0,0.0,0.0,0.0,0.0,0.0,0.0,0.0,0.0,0.0,0.0,0.0,0.0,0.0,0.0,0.0,0.0,0.0,0.0,0.0,0.0,0.0,0.0,0.0,0.0,0.0,0.0,0.0,0.0,0.0,0.0,0.0,0.0,0.0,0.0,0.0,0.0,0.0,0.0,0.0,0.0,0.0,0.0,0.0,0.0,0.0,0.0,0.0,0.0,0.0,0.0,0.0,0.0,0.0,0.0,0.0,0.0,0.0,0.0,0.0,0.0,0.0,0.0,0.0,0.0,0.0,3.0057,3.1735,3.341,3.4129,3.4023,3.3112,3.2169,3.0497,2.8,0.0,0.0,0.0,0.0,0.0,0.0,0.0,0.0,0.0,0.0,0.0,0.0,0.0,0.0,0.0,0.0,0.0,0.0,0.0,0.0,0.0,0.0,0.0,0.0,0.0,0.0,0.0,0.0,0.0,0.0,0.0,0.0,0.0,0.0,0.0,0.0,0.0,0.0,2.0288,2.046,0.0,0.0,0.0,0.0,0.0,0.0,0.0,0.0,2.2511,0.0,0.0,0.0,0.0,0.0,0.0,0.0,0.0,0.0,0.0,0.0,0.0,0.0,0.0,0.0,0.0,0.0,0.0,0.0,0.0,0.0,0.0,0.0,0.0,0.0,0.0,0.0,0.0,0.0,0.0,0.0,0.0,0.0,0.0,0.0,0.0,0.0,0.0,0.0,0.0,0.0,0.0,0.0,0.0,0.0,0.0,0.0,0.0,0.0,0.0,0.0,0.0,0.0,0.0,0.0,0.0,2.9278,3.0936,3.261,3.4246,3.4381,3.3954,3.3048,3.2162,3.0467,2.7969,0.0,0.0,0.0,0.0,0.0,0.0,0.0,0.0,0.0,0.0,0.0,0.0,0.0,0.0,0.0,0.0,0.0,0.0,0.0,0.0,0.0,0.0,0.0,0.0,0.0,0.0,0.0,0.0,0.0,0.0,0.0,0.0,0.0,0.0,0.0,0.0,0.0,0.0,0.0,2.0932,2.1737,0.0,0.0,0.0,0.0,0.0,0.0,0.0,0.0,2.2216,0.0,0.0,0.0,0.0,0.0,0.0,0.0,0.0,0.0,0.0,0.0,0.0,0.0,0.0,0.0,0.0,0.0,0.0,0.0,0.0,0.0,0.0,0.0,0.0,0.0,0.0,0.0,0.0,0.0,0.0,0.0,0.0,0.0,0.0,0.0,0.0,0.0,0.0,0.0,0.0,0.0,0.0,0.0,0.0,0.0,0.0,0.0,0.0,0.0,0.0,0.0,0.0,0.0,0.0,0.0,2.9524,3.1151,3.2594,3.3771,3.3741,3.3233,3.2336,3.1448,2.9953,0.0,0.0,0.0,0.0,0.0,0.0,0.0,0.0,0.0,0.0,0.0,0.0,0.0,0.0,0.0,0.0,0.0,0.0,0.0,0.0,0.0,0.0,0.0,0.0,0.0,0.0,0.0,0.0,0.0,0.0,0.0,0.0,0.0,0.0,0.0,0.0,0.0,0.0,0.0,0.0,2.1456,2.2488,2.2945,0.0,0.0,0.0,0.0,0.0,0.0,2.377,2.3602,0.0,0.0,0.0,0.0,0.0,0.0,0.0,0.0,0.0,0.0,0.0,0.0,0.0,0.0,0.0,0.0,0.0,0.0,0.0,0.0,0.0,0.0,0.0,0.0,0.0,0.0,0.0,0.0,0.0,0.0,0.0,0.0,0.0,0.0,0.0,0.0,0.0,0.0,0.0,0.0,0.0,0.0,0.0,0.0,0.0,0.0,0.0,0.0,0.0,0.0,0.0,0.0,0.0,0.0,0.0,2.9518,3.1138,3.238,3.314,3.2888,3.2405,3.1691,3.0611,2.9353,0.0,0.0,0.0,0.0,0.0,0.0,0.0,0.0,0.0,0.0,0.0,0.0,0.0,0.0,0.0,0.0,0.0,0.0,0.0,0.0,0.0,0.0,0.0,0.0,0.0,0.0,0.0,0.0,0.0,0.0,0.0,0.0,0.0,0.0,0.0,0.0,0.0,0.0,0.0,0.0,0.0,2.3244,2.3266,2.4056,0.0,0.0,0.0,0.0,2.4988,2.5449,0.0,0.0,0.0,0.0,0.0,0.0,0.0,0.0,0.0,0.0,0.0,0.0,0.0,0.0,0.0,0.0,0.0,0.0,0.0,0.0,0.0,0.0,0.0,0.0,0.0,0.0,0.0,0.0,0.0,0.0,0.0,0.0,0.0,0.0,0.0,0.0,0.0,0.0,0.0,0.0,0.0,0.0,0.0,0.0,0.0,0.0,0.0,0.0,0.0,0.0,0.0,0.0,0.0,0.0,0.0,0.0,2.951,3.108,3.2328,3.3103,3.2327,3.1788,3.1672,3.0035,2.9028,0.0,0.0,0.0,0.0,0.0,0.0,0.0,0.0,0.0,0.0,0.0,0.0,0.0,0.0,0.0,0.0,0.0,0.0,0.0,0.0,0.0,0.0,0.0,0.0,0.0,0.0,0.0,0.0,0.0,0.0,0.0,0.0,0.0,0.0,0.0,0.0,0.0,0.0,0.0,0.0,0.0,2.4082,2.4151,2.4902,2.5514,0.0,0.0,2.5859,2.6502,2.6699,0.0,0.0,0.0,0.0,0.0,0.0,0.0,0.0,0.0,0.0,0.0,0.0,0.0,0.0,0.0,0.0,0.0,0.0,0.0,0.0,0.0,0.0,0.0,0.0,0.0,0.0,0.0,0.0,0.0,0.0,0.0,0.0,0.0,0.0,0.0,0.0,0.0,0.0,0.0,0.0,0.0,0.0,0.0,0.0,0.0,0.0,0.0,0.0,0.0,0.0,0.0,0.0,0.0,0.0,0.0,2.8649,2.9504,3.0642,3.159,3.2338,3.1463,3.096,3.0899,2.9155,2.8395,0.0,0.0,0.0,0.0,0.0,0.0,0.0,0.0,0.0,0.0,0.0,0.0,0.0,0.0,0.0,0.0,0.0,0.0,0.0,0.0,0.0,0.0,0.0,0.0,0.0,0.0,0.0,0.0,0.0,0.0,0.0,0.0,0.0,0.0,0.0,0.0,0.0,0.0,0.0,0.0,0.0,0.0,2.5108,2.6248,0.0,0.0,0.0,2.7303,2.8038,0.0,0.0,0.0,0.0,0.0,0.0,0.0,0.0,0.0,0.0,0.0,0.0,0.0,0.0,0.0,0.0,0.0,0.0,0.0,0.0,0.0,0.0,0.0,0.0,0.0,0.0,0.0,0.0,0.0,0.0,0.0,0.0,0.0,0.0,0.0,0.0,0.0,0.0,0.0,0.0,0.0,0.0,0.0,0.0,0.0,0.0,0.0,0.0,0.0,0.0,0.0,0.0,0.0,0.0,0.0,0.0,0.0,2.9466,3.0451,3.1243,3.1746,3.1249,3.0868,3.0586,2.8867,0.0,0.0,0.0,0.0,0.0,0.0,0.0,0.0,0.0,0.0,0.0,0.0,0.0,0.0,0.0,0.0,0.0,0.0,0.0,0.0,0.0,0.0,0.0,0.0,0.0,0.0,0.0,1.9011,0.0,0.0,0.0,0.0,0.0,0.0,0.0,0.0,0.0,0.0,0.0,0.0,0.0,0.0,2.6746,2.6312,2.7397,2.7758,0.0,0.0,2.8661,2.9002,2.8382,2.7768,0.0,0.0,0.0,0.0,0.0,0.0,0.0,0.0,0.0,0.0,0.0,0.0,0.0,0.0,0.0,0.0,0.0,0.0,0.0,0.0,0.0,0.0,0.0,0.0,0.0,0.0,0.0,0.0,0.0,0.0,0.0,0.0,0.0,0.0,0.0,0.0,0.0,0.0,0.0,0.0,0.0,0.0,0.0,0.0,0.0,0.0,0.0,0.0,0.0,0.0,0.0,0.0,0.0,0.0,0.0,2.9414,3.0945,3.1716,3.1734,3.2262,3.2192,3.1412,2.9718,2.9184,0.0,0.0,0.0,0.0,0.0,0.0,0.0,0.0,0.0,0.0,0.0,0.0,0.0,0.0,0.0,0.0,0.0,0.0,0.0,0.0,0.0,0.0,0.0,0.0,0.0,0.0,0.0,0.0,0.0,0.0,0.0,0.0,0.0,0.0,0.0,0.0,0.0,0.0,0.0,0.0,0.0,2.7195,2.7936,2.8141,2.7992,0.0,0.0,2.9323,2.9051,2.9814,3.0172,2.9433,0.0,0.0,0.0,0.0,0.0,0.0,0.0,0.0,0.0,0.0,0.0,0.0,0.0,0.0,0.0,0.0,0.0,0.0,0.0,0.0,0.0,0.0,0.0,0.0,0.0,0.0,0.0,0.0,0.0,0.0,0.0,0.0,0.0,0.0,0.0,0.0,0.0,0.0,0.0,0.0,0.0,0.0,0.0,0.0,0.0,0.0,0.0,0.0,0.0,0.0,0.0,0.0,0.0,2.8838,3.0124,3.1186,3.1919,3.23,3.2575,3.2057,3.0676,2.9455,2.876,0.0,0.0,0.0,0.0,0.0,0.0,0.0,0.0,0.0,0.0,0.0,0.0,0.0,0.0,0.0,0.0,0.0,0.0,0.0,0.0,0.0,0.0,0.0,0.0,0.0,0.0,0.0,0.0,2.1047,2.1538,2.2617,0.0,0.0,0.0,0.0,0.0,0.0,0.0,0.0,0.0,0.0,2.8615,2.8956,2.9446,0.0,0.0,2.9469,3.0203,3.0075,2.9965,2.9803,2.9543,2.8307,0.0,0.0,0.0,0.0,0.0,0.0,0.0,0.0,0.0,0.0,0.0,0.0,0.0,0.0,0.0,0.0,0.0,0.0,0.0,0.0,0.0,0.0,0.0,0.0,0.0,0.0,0.0,0.0,0.0,0.0,0.0,0.0,0.0,0.0,0.0,0.0,0.0,0.0,0.0,0.0,0.0,0.0,0.0,0.0,0.0,0.0,0.0,0.0,0.0,0.0,0.0,0.0,2.9342,3.0923,3.1661,3.2353,3.3009,3.3252,3.2441,3.0529,2.9604,2.8673,0.0,0.0,0.0,0.0,0.0,0.0,0.0,0.0,0.0,0.0,0.0,0.0,0.0,0.0,0.0,0.0,0.0,0.0,0.0,0.0,0.0,0.0,0.0,0.0,0.0,0.0,0.0,0.0,2.1902,2.2569,2.4024,0.0,0.0,0.0,0.0,0.0,0.0,0.0,0.0,0.0,0.0,2.9585,2.9861,3.0401,3.0657,3.0174,3.0438,3.0839,3.1171,3.04,2.981,2.9849,0.0,0.0,0.0,0.0,0.0,0.0,0.0,0.0,0.0,0.0,0.0,0.0,0.0,0.0,0.0,0.0,0.0,0.0,0.0,0.0,0.0,0.0,0.0,0.0,0.0,0.0,0.0,2.4826,0.0,0.0,2.3607,0.0,0.0,0.0,0.0,0.0,0.0,0.0,0.0,0.0,0.0,0.0,0.0,0.0,0.0,0.0,0.0,0.0,0.0,0.0,0.0,0.0,0.0,3.012,3.1651,3.2384,3.3068,3.3772,3.4561,3.3748,3.1355,3.0443,2.9209,2.7557,0.0,0.0,0.0,0.0,0.0,0.0,0.0,0.0,0.0,0.0,0.0,0.0,0.0,0.0,0.0,0.0,0.0,0.0,0.0,0.0,0.0,0.0,0.0,0.0,0.0,0.0,2.2765,2.284,2.3229,0.0,0.0,0.0,0.0,0.0,0.0,0.0,0.0,0.0,0.0,2.8951,2.9817,3.0643,3.079,3.1139,3.2177,3.1476,3.1148,3.2129,3.1385,3.0678,0.0,0.0,0.0,0.0,0.0,0.0,0.0,0.0,0.0,0.0,0.0,0.0,0.0,0.0,0.0,0.0,0.0,0.0,0.0,0.0,0.0,0.0,0.0,0.0,0.0,0.0,0.0,2.3892,2.3832,0.0,0.0,0.0,0.0,0.0,0.0,0.0,0.0,0.0,0.0,0.0,2.8115,2.8096,0.0,0.0,0.0,0.0,0.0,0.0,0.0,0.0,0.0,0.0,0.0,0.0,3.0308,3.2326,3.2536,3.3242,3.4489,3.4794,3.3999,3.2083,3.1229,2.9769,2.7585,0.0,0.0,0.0,0.0,0.0,0.0,0.0,0.0,0.0,0.0,0.0,0.0,0.0,0.0,0.0,0.0,0.0,0.0,0.0,0.0,0.0,0.0,0.0,0.0,0.0,2.3525,0.0,0.0,0.0,0.0,0.0,0.0,0.0,0.0,0.0,0.0,0.0,2.8684,2.9015,2.9826,3.0469,3.0743,3.0788,3.0942,0.0,0.0,0.0,0.0,0.0,0.0,0.0,0.0,0.0,0.0,0.0,0.0,0.0,0.0,2.6291,2.5703,2.5595,2.5561,2.5413,0.0,0.0,0.0,0.0,0.0,0.0,0.0,0.0,0.0,0.0,0.0,0.0,0.0,0.0,2.5235,0.0,2.4035,0.0,0.0,0.0,0.0,0.0,0.0,0.0,0.0,2.7998,2.8565,2.9635,2.9635,3.0338,0.0,3.1156,3.0996,0.0,0.0,0.0,0.0,0.0,0.0,0.0,0.0,3.0959,3.2722,3.2905,3.3576,3.4832,3.4907,3.4093,3.2444,3.1078,2.9599,2.7983,2.6993,2.6797,0.0,0.0,0.0,0.0,0.0,0.0,0.0,0.0,0.0,0.0,0.0,0.0,0.0,0.0,0.0,0.0,0.0,0.0,0.0,0.0,0.0,0.0,0.0,2.4456,0.0,0.0,0.0,0.0,0.0,0.0,0.0,0.0,0.0,2.7278,2.8286,2.9117,2.9445,3.0265,3.0798,3.0785,0.0,0.0,0.0,0.0,0.0,0.0,0.0,3.0704,3.0704,3.0286,2.9861,2.9588,2.9068,2.8335,2.7202,0.0,0.0,2.5749,2.5554,2.548,2.5337,2.4426,2.3741,2.4052,2.2149,2.0686,0.0,0.0,0.0,0.0,0.0,0.0,0.0,0.0,2.7046,2.7657,0.0,2.7058,0.0,0.0,0.0,0.0,2.5091,2.6673,0.0,0.0,2.8793,2.9593,3.1051,3.1107,3.1541,3.2298,3.2335,3.237,3.2364,3.1115,0.0,0.0,0.0,0.0,0.0,0.0,3.2081,3.2833,3.3459,3.4162,3.487,3.4889,3.4131,3.2464,3.0184,2.8943,2.8829,2.8768,2.8417,2.7681,2.8447,0.0,0.0,0.0,0.0,0.0,0.0,0.0,0.0,0.0,0.0,0.0,0.0,0.0,0.0,0.0,0.0,0.0,0.0,0.0,0.0,2.5406,0.0,0.0,0.0,0.0,0.0,0.0,0.0,0.0,0.0,0.0,2.8281,2.8304,2.861,2.9491,0.0,0.0,0.0,0.0,3.118,3.2016,3.1387,3.1092,3.1909,3.1307,3.0756,3.0763,0.0,0.0,2.9784,2.9585,2.9025,2.7383,2.7114,2.6704,2.5894,2.5568,2.5421,2.5418,2.439,2.3615,2.3675,2.1982,2.029,3.0138,0.0,0.0,0.0,0.0,2.7218,2.735,2.8003,2.9193,2.9034,2.7896,2.7675,0.0,0.0,0.0,0.0,0.0,0.0,2.9738,3.122,3.113,3.1355,3.1825,3.1748,3.22,3.299,3.2406,3.2523,3.3185,3.2305,3.1917,3.2031,0.0,0.0,0.0,0.0,3.2187,3.344,3.3614,3.4018,3.4751,3.481,3.4301,3.328,3.2046,3.0848,2.9703,2.9125,2.8703,2.8474,2.8255,0.0,0.0,0.0,0.0,0.0,0.0,0.0,0.0,0.0,0.0,0.0,0.0,0.0,0.0,0.0,0.0,0.0,0.0,0.0,2.5385,2.5972,2.6088,0.0,0.0,0.0,0.0,0.0,0.0,0.0,0.0,0.0,2.9815,2.9971,3.0326,0.0,0.0,3.1948,3.2571,3.2615,3.2654,3.2917,3.2719,0.0,3.2882,3.2214,3.165,3.1688,3.1208,3.0716,3.0502,3.043,3.0094,2.9027,2.8801,2.8481,2.7582,2.6304,2.5821,2.6512,2.5367,2.4352,2.4983,2.3283,2.126,3.303,3.0953,3.0456,3.018,3.0023,2.9904,3.0008,3.0355,3.1029,3.0889,3.0106,2.9554,2.903,2.8599,2.8371,0.0,0.0,0.0,3.1318,3.31,3.2994,3.3306,3.3926,3.3923,3.3994,3.4147,3.3676,3.3596,3.3915,3.3166,3.3052,3.347,0.0,0.0,3.3359,3.2776,3.2902,3.3772,3.4016,3.4339,3.4769,3.4809,3.4603,3.4131,3.3355,3.2327,3.1032,3.0209,2.9654,2.9334,2.897,2.886,0.0,0.0,0.0,0.0,0.0,0.0,0.0,0.0,0.0,0.0,0.0,2.5393,2.5387,0.0,0.0,0.0,2.5914,2.5923,2.5912,2.6395,0.0,0.0,0.0,0.0,0.0,0.0,0.0,2.9187,2.9126,2.9447,3.0583,3.0735,3.0958,3.1504,3.1874,3.2294,3.2814,0.0,3.334,3.3351,3.3334,3.3303,3.3329,3.29,3.2444,3.2148,3.1369,3.0821,3.0786,3.0799,3.0507,2.9828,2.9549,2.9338,2.878,2.742,2.6554,2.7256,2.6004,2.4931,2.5224,2.3294,2.1254,3.6118,3.5491,3.3847,3.2777,3.2254,3.3205,3.3247,3.2611,3.2638,3.2984,3.3431,3.2161,3.1499,3.1341,3.0844,0.0,3.0812,3.1565,3.2839,3.4468,3.4444,3.5225,3.677,3.6696,3.6298,3.5479,3.5498,3.5099,3.4409,3.3773,3.3937,3.4736,3.3587,3.3349,3.4059,3.3964,3.3884,3.3908,3.4546,3.4889,3.4887,3.4887,3.4887,3.4868,3.4244,3.3482,3.2627,3.1844,3.1039,3.0255,3.0272,2.9971,2.9187,0.0,0.0,0.0,0.0,0.0,0.0,0.0,0.0,0.0,0.0,0.0,0.0,0.0,0.0,0.0,2.6713,0.0,2.6702,2.6837,0.0,0.0,0.0,2.8087,2.7991,2.8762,2.9332,2.9395,0.0,0.0,3.0769,3.0785,3.0818,3.0898,3.1633,3.2241,3.2397,3.3177,3.3602,3.3692,3.3579,3.356,3.3746,3.3595,3.3171,3.2253,3.1426,3.0942,3.0821,3.0798,3.0468,2.9886,2.9673,2.96,2.9493,2.8709,2.7948,2.749,2.6366,2.5273,2.4529,2.2644,2.0531,3.7655,3.7487,3.6735,3.5601,3.4178,3.3901,3.4038,3.438,3.4655,3.4171,3.3225,3.313,3.2419,3.1356,3.1905,3.2495,3.3128,3.4079,3.5062,3.6033,3.6085,3.6315,3.6694,3.6099,3.5708,3.546,3.4853,3.4498,3.4386,3.4244,3.4376,3.479,3.5076,3.5078,3.4833,3.4103,3.4068,3.4734,3.4832,3.4888,3.4829,3.4868,3.4868,3.4827,3.4699,3.4281,3.3515,3.2735,3.193,3.1138,3.0637,3.0283,3.0102,2.908,0.0,0.0,0.0,0.0,0.0,0.0,0.0,0.0,0.0,2.5754,2.6346,0.0,2.6481,0.0,2.6702,2.6702,2.6721,2.7909,0.0,0.0,2.913,2.9621,2.8975,2.9651,3.021,3.0285,3.0521,3.0703,3.0784,3.0801,3.1035,3.1692,3.2543,3.3548,3.4768,3.5158,3.531,3.5251,3.5226,3.5285,3.5222,3.4764,3.3836,3.2338,3.1897,3.158,3.0912,3.0801,3.0739,3.055,3.0489,3.0429,3.0315,3.0025,2.9294,2.8093,2.6723,2.5751,2.5468,2.3157,2.0414,3.9032,3.8826,3.8355,3.7238,3.5854,3.5486,3.558,3.5989,3.5811,3.5357,3.4595,3.4619,3.396,3.2903,3.3387,3.3908,3.4376,3.4917,3.5846,3.7027,3.7082,3.7294,3.7655,3.7238,3.6856,3.6504,3.6073,3.574,3.5525,3.5506,3.56,3.5857,3.6268,3.6335,3.6026,3.5552,3.5362,3.5437,3.5058,3.4849,3.4848,3.4887,3.4887,3.4848,3.4908,3.4603,3.3817,3.3396,3.2648,3.1493,3.1123,3.0751,3.0386,2.9032,2.821,0.0,0.0,0.0,0.0,0.0,0.0,0.0,0.0,0.0,0.0,0.0,2.6857,2.7252,2.7619,2.7871,2.7871,2.8741,2.9254,2.913,2.995,3.0298,2.9883,3.0248,3.0563,3.0622,3.1035,3.1295,3.1379,3.1374,3.1855,3.3078,3.3344,3.388,3.5092,3.5674,3.5942,3.5948,3.5948,3.5934,3.5942,3.4921,3.3812,3.2879,3.2048,3.1356,3.0878,3.08,3.0796,3.0782,3.0485,3.0326,3.0522,3.0114,2.9423,2.8559,2.7167,2.581,2.4646,2.2194,1.9311,4.0127,3.9721,3.9105,3.8281,3.7387,3.7283,3.715,3.702,3.6441,3.6291,3.6467,3.5905,3.5333,3.4798,3.4798,3.4819,3.4887,3.5107,3.6072,3.7558,3.7706,3.8188,3.8892,3.8868,3.8489,3.7822,3.7774,3.7445,3.6901,3.6907,3.6956,3.7099,3.7211,3.7272,3.7359,3.7524,3.7112,3.6182,3.5373,3.4978,3.5019,3.5057,3.5001,3.4906,3.4946,3.4678,3.4008,3.3925,3.3214,3.1752,3.1632,3.1239,3.0402,2.8423,2.8003,0.0,2.748,0.0,0.0,0.0,0.0,0.0,0.0,0.0,0.0,2.7464,2.7348,2.8092,2.8857,2.9291,2.93,2.9397,2.9747,3.0434,3.0617,3.0704,3.0768,3.087,3.096,3.1034,3.1718,3.2196,3.2251,3.2276,3.289,3.4236,3.4033,3.4022,3.4775,3.5552,3.5994,3.6005,3.6005,3.5951,3.5685,3.4583,3.3554,3.3166,3.2059,3.0953,3.084,3.0798,3.0751,3.0599,3.0143,2.9897,3.0358,2.9679,2.9027,2.8606,2.7227,2.5397,2.3127,2.0627,1.735,4.0617,4.0292,3.9555,3.9084,3.8755,3.8203,3.7291,3.6241,3.6435,3.6509,3.6379,3.5047,3.4492,3.4637,3.4691,3.475,3.4834,3.6211,3.7088,3.7526,3.8247,3.8733,3.8942,3.834,3.796,3.7848,3.7227,3.6891,3.6833,3.6883,3.6932,3.7047,3.7732,3.8075,3.8136,0.0,0.0,0.0,3.6222,3.5748,3.5706,3.5809,3.5548,3.4846,3.4946,0.0,3.4845,3.4249,3.3462,3.252,3.1957,0.0,0.0,0.0,0.0,0.0,0.0,0.0,0.0,0.0,0.0,0.0,2.7619,2.7967,2.8934,2.8896,2.8866,2.9046,2.9203,2.9328,2.9377,2.999,3.0416,3.0637,3.1297,3.1712,3.1754,3.2347,3.2786,3.281,3.2994,3.3132,3.3163,3.3156,3.3553,3.4549,3.4564,3.4812,3.5603,3.5868,3.6017,3.6009,3.5955,3.5685,3.5064,3.4664,3.3834,3.2728,3.2167,3.1582,3.0948,3.0784,3.0501,2.9998,3.0151,3.016,2.959,2.9404,2.8981,2.771,2.6276,2.4679,2.2707,1.9719,1.5914,4.1226,4.0896,4.0328,3.9795,0.0,3.8727,3.7912,3.7024,3.6982,3.6795,3.6549,3.6344,3.597,3.549,3.557,3.5666,3.5877,3.6802,3.7478,3.7973,3.842,3.8713,3.8737,3.8456,3.8358,3.8377,3.8044,3.7894,3.7981,3.8007,3.8077,3.8191,3.8627,3.884,3.884,3.8908,3.8362,3.7254,3.6427,3.5805,3.543,3.5472,3.5285,3.4868,3.4983,0.0,0.0,0.0,0.0,0.0,0.0,0.0,0.0,3.0631,0.0,3.0786,3.037,2.976,2.8929,2.9182,2.9168,2.8745,2.9106,2.9323,2.9317,2.9705,2.9954,2.9986,2.9998,3.0188,3.0651,3.1052,3.1474,3.1936,3.237,3.2636,3.2697,3.303,3.3312,3.3395,3.3766,3.4053,3.403,3.4049,3.439,3.5156,3.4961,3.5036,3.5812,3.6016,3.6004,3.5962,3.5162,3.4898,3.5179,3.4521,3.3862,3.291,3.2381,3.177,3.094,3.0785,3.063,3.0209,3.0113,2.9865,2.9696,2.9197,2.8347,2.7054,2.5219,2.2932,2.0647,1.7765,1.3961,4.1789,4.13,4.1007,4.035,3.958,3.9257,3.8834,3.8325,0.0,0.0,0.0,3.7712,3.7527,3.6577,3.6505,3.6658,3.6946,3.7189,3.7594,3.8182,3.8538,3.8638,3.8541,3.8969,3.9069,3.895,3.911,3.9192,3.9264,3.9237,3.9283,3.9399,3.9399,3.9418,3.938,3.874,3.8083,3.7393,3.661,3.592,3.534,3.5191,3.504,3.4927,3.5038,3.511,3.511,3.5254,3.4616,3.3146,3.3185,3.2596,3.1164,3.114,3.1116,3.1026,3.1029,3.0586,2.9601,3.0258,3.0467,2.9887,3.0646,3.0754,2.9842,3.0444,3.0925,3.1144,3.1144,3.1469,3.2169,3.2234,3.2512,3.3237,3.3459,3.3549,3.3565,3.3717,3.3877,3.391,3.453,3.4924,3.4932,3.4937,3.5166,3.5734,3.5408,3.5039,3.5623,3.571,3.5698,3.5581,3.4688,3.4207,3.4936,3.4609,3.3574,3.3102,3.2506,3.1772,3.0885,3.0681,3.0633,3.0092,2.9722,2.9631,2.9692,2.8796,2.7593,2.6784,2.4182,2.1302,1.8536,1.5178,1.105,4.2009,4.1123,4.1093,4.0772,4.0331,4.0397,3.997,3.917,3.8523,3.8044,3.7679,3.7178,3.7066,3.7216,3.672,3.6556,3.673,3.76,3.7769,3.7376,3.8769,3.9173,3.8744,3.9655,3.977,3.9202,3.9327,3.9451,3.9452,3.942,3.9376,3.9395,3.9399,3.9391,3.9399,3.9338,3.8877,3.8059,3.7389,3.6986,3.6873,3.6264,3.5587,3.4945,3.5091,3.5174,3.5193,3.5311,3.4949,3.4045,3.4124,3.3781,3.2906,3.2869,3.2636,3.1981,3.1914,3.122,2.9663,3.0295,3.1033,3.1605,3.2402,3.2489,3.1635,3.1697,3.2135,3.2817,3.2843,3.2973,3.3114,3.314,3.3214,3.3457,3.4086,3.4503,3.4521,3.5106,3.5493,3.5497,3.5711,3.5789,3.5731,3.5754,3.5801,3.5948,3.5795,3.5624,3.5155,3.489,3.4884,3.4864,3.4699,3.4313,3.4257,3.4316,3.384,3.2489,3.2293,3.1656,3.0132,3.0308,3.0192,2.8757,2.9263,2.9453,2.8869,2.8307,2.7263,2.5995,2.3074,2.0147,1.7915,1.2265,0.6465,4.284,4.2497,4.2289,4.2192,4.2075,4.1533,4.0803,4.0004,3.9757,3.9083,3.8209,3.827,3.8293,3.8239,3.8185,3.8253,3.8419,3.912,3.9059,3.8477,3.9647,3.9874,3.9347,4.0444,4.0579,3.9863,4.0521,4.0403,3.9596,3.9927,3.9877,3.9388,3.9264,3.9229,3.9301,3.9399,3.9282,3.8877,3.7826,3.7027,3.6537,3.5831,3.5305,3.5021,3.5126,3.5207,3.5273,3.5411,3.5109,3.4284,3.4371,3.4087,3.3305,3.3273,3.3165,3.2826,3.281,3.2456,3.1672,3.1994,3.237,3.2732,3.3098,3.3354,3.3375,3.296,3.2894,3.3312,3.3356,3.3556,3.4003,3.4062,3.4246,3.4771,3.5194,3.5408,3.5435,3.5685,3.5951,3.5951,3.5978,3.5997,3.5931,3.5981,3.6007,3.6018,3.6018,3.581,3.5427,3.498,3.4705,3.4656,3.4332,3.4336,3.4625,3.4676,3.417,3.297,3.2781,3.1996,3.0516,3.0436,3.0175,2.9477,2.9397,2.9099,2.8559,2.7368,2.6035,2.4259,2.099,1.7731,1.4045,0.7013,0.0357,4.3663,4.362,4.3195,4.3042,4.2933,4.2051,4.1201,4.0502,4.0583,4.0027,3.9112,3.9497,3.9461,3.9181,3.9658,3.9944,4.0182,4.0562,4.0365,3.9802,4.0613,4.0643,4.0072,4.1267,4.1483,4.0831,4.1642,4.1318,4.0107,4.0534,4.0347,3.9425,3.9237,3.9192,3.929,3.9362,3.9476,3.9464,3.8124,3.702,3.6316,3.5399,3.4983,3.5091,3.5176,3.5273,3.534,3.5514,3.5317,3.468,3.4727,3.4532,3.3939,3.3896,3.3832,3.3721,3.3707,3.3611,3.3422,3.3587,3.3698,3.3692,3.3883,3.425,3.4749,3.4301,3.3931,3.3977,3.4055,3.4312,3.4862,3.4983,3.5282,3.5929,3.6192,3.6286,3.629,3.6259,3.6328,3.6426,3.6376,3.6282,3.6259,3.6423,3.6528,3.6372,3.6141,3.5949,3.5676,3.5232,3.4995,3.4629,3.4101,3.4194,3.5444,3.5119,3.4335,3.3526,3.3063,3.2025,3.0762,3.0315,3.0249,2.984,2.927,2.8762,2.8445,2.6806,2.4758,2.2869,1.9088,1.4278,0.8501,0.1013,-0.5288,4.4069,4.351,4.3149,4.2398,4.1699,4.141,4.0934,4.0406,4.0453,4.0549,4.0405,3.9945,3.9824,3.9901,4.0433,4.0724,4.0864,4.1373,4.118,4.0564,4.1449,4.1464,4.0876,4.2168,4.2445,4.1791,4.2197,4.1987,4.1037,4.1,4.0508,3.9552,3.935,3.9395,3.9545,3.9502,3.9575,3.9721,3.8262,3.7389,3.7112,3.5683,3.4963,3.5088,3.5219,3.536,3.5528,3.5629,3.566,3.5592,3.5689,3.5716,3.5632,3.5685,3.5385,3.4632,3.4586,3.4238,3.3576,3.4134,3.4596,3.4635,3.5272,3.5697,3.5822,3.5763,3.5736,3.5678,3.5701,3.5701,3.5864,3.5857,3.5864,3.6001,3.6602,3.7172,3.7109,3.7187,3.7445,3.8202,3.7342,3.7069,3.7004,3.7449,3.7717,3.7024,3.6384,3.5795,3.5268,3.5479,3.5424,3.4901,3.4563,3.4619,3.4882,3.4735,3.4119,3.3369,3.2574,3.1443,3.026,2.9841,2.9831,2.9398,2.8799,2.8532,2.7727,2.6343,2.4205,2.1191,1.6907,1.1225,0.2634,-0.4354,-0.8506,4.4974,4.4848,4.468,4.3717,4.2347,4.1631,4.0866,4.0239,4.088,4.1332,4.1609,4.1821,4.1405,4.0562,4.1165,4.1463,4.1547,4.2127,4.1977,4.1343,4.2268,4.2266,4.1716,4.2971,4.3256,4.2651,4.3422,4.3161,4.2086,4.1784,4.1499,4.1054,4.0516,4.0228,4.0265,3.9844,3.9421,3.9018,3.8057,3.7281,3.6673,3.5608,3.5088,3.5254,3.5345,3.5694,3.6202,3.5959,3.596,3.6433,3.6137,3.5891,3.5883,3.5933,3.5797,3.5497,3.5468,3.5324,3.4959,3.5269,3.5461,3.5461,3.5789,3.6004,3.6007,3.6007,3.6004,3.6004,3.6004,3.6004,3.602,3.6004,3.6007,3.6043,3.6286,3.6684,3.7196,3.6766,3.6748,3.7462,3.6949,3.6473,3.6509,3.6791,3.7069,3.6996,3.6512,3.5806,3.5471,3.5724,3.551,3.4939,3.497,3.5042,3.4714,3.4138,3.3505,3.27,3.2147,3.1275,3.0252,2.9786,2.9688,2.9183,2.8507,2.7949,2.7412,2.5125,2.2773,1.9167,1.2439,0.5571,-0.0573,-0.5638,-0.8673,4.5563,4.5735,4.551,4.4165,4.2278,4.1597,4.0968,4.0578,4.1289,4.1997,4.2645,4.3245,4.288,4.1911,4.2361,4.2559,4.2448,4.2958,4.2792,4.2158,4.2832,4.2886,4.2483,4.3513,4.3841,4.3529,4.4293,4.4064,4.2844,4.2375,4.2233,4.2119,4.1345,4.0906,4.0863,4.0174,3.9523,3.8982,3.8137,3.7373,3.6738,3.5952,3.5496,3.5446,3.5661,3.6145,3.6872,3.6387,3.6384,3.702,3.634,3.5928,3.5899,3.5924,3.5951,3.5986,3.6012,3.5991,3.5988,3.5991,3.601,3.601,3.601,3.601,3.6049,3.6225,3.6245,3.603,3.6205,3.6323,3.6004,3.6007,3.5988,3.5978,3.6094,3.6587,3.7371,3.6864,3.7036,3.7836,3.7751,3.6917,3.6859,3.6576,3.6343,3.6962,3.6499,3.5943,3.5885,3.584,3.5645,3.5026,3.5202,3.5036,3.4567,3.3798,3.2916,3.2302,3.1874,3.0956,3.0259,2.9894,2.9455,2.8808,2.7912,2.6936,2.6231,2.4062,2.0147,1.5517,0.9023,0.1997,-0.2244,-0.6213,-0.8985,4.5667,4.5597,4.4596,4.2856,4.0758,4.0942,4.1136,4.1172,4.1662,4.2437,4.3332,4.3698,4.3722,4.3775,4.4174,4.4036,4.3417,4.3754,4.3534,4.2847,4.3087,4.3178,4.3196,4.3809,4.4072,4.4031,4.4519,4.4405,4.3606,4.2844,4.2389,4.2389,4.1642,4.1219,4.1193,4.049,4.0059,3.9852,3.8531,3.7811,3.7747,3.7012,3.6232,3.5785,3.6325,3.6863,3.7055,3.705,3.7078,3.7124,3.6441,3.6001,3.5908,3.5942,3.5993,3.601,3.6007,3.5965,3.5912,3.5962,3.603,3.6049,3.6046,3.603,3.6163,3.6732,3.6752,3.6069,3.6693,3.6827,3.6064,3.5981,3.5955,3.5972,3.6611,3.7342,3.8162,3.7972,3.8996,3.9885,3.9382,3.8758,3.9101,3.7391,3.6546,3.6766,3.6454,3.5879,3.5821,3.5794,3.5698,3.5437,3.4971,3.439,3.4302,3.3616,3.3014,3.2364,3.1306,3.0179,2.9834,2.9476,2.9005,2.8476,2.7648,2.6555,2.5142,2.1873,1.7199,1.217,0.6506,0.0586,-0.3535,-0.7126,-0.9693,4.5165,4.4595,4.342,4.2108,4.0942,4.1135,4.0916,4.0458,4.2004,4.2676,4.3032,4.4214,4.4887,4.5133,4.5462,4.4771,4.3507,4.3862,4.3661,4.303,4.3286,4.3461,4.3529,4.4079,4.4374,4.4449,4.4667,4.4688,4.4497,4.4118,4.4023,4.3872,4.3236,4.2617,4.2053,4.1338,4.0502,3.9468,3.8421,3.7939,3.7954,3.7276,3.6988,3.7301,3.7541,3.8031,3.8693,3.821,3.7955,3.7987,3.721,3.6528,3.6027,3.5989,3.6013,3.6013,3.5958,3.5914,3.5909,3.5919,3.62,3.6679,3.6241,3.6202,3.6679,3.7024,3.6875,3.6309,3.6768,3.6843,3.6169,3.5962,3.5981,3.5953,3.6197,3.6785,3.735,3.7556,3.7938,3.8772,3.8462,3.7986,3.7905,3.6744,3.6209,3.6812,3.6312,3.5826,3.5689,3.5647,3.547,3.489,3.4783,3.4674,3.3891,3.3364,3.2723,3.2013,3.112,3.0391,2.9903,2.9185,2.8615,2.8022,2.7267,2.5742,2.4024,1.9517,1.4745,0.984,0.4049,-0.0457,-0.4875,-0.7663,-0.98,4.4958,4.4044,4.3279,4.224,4.1273,4.1427,4.1154,4.0696,4.2204,4.2936,4.3267,4.4516,4.5374,4.5766,4.6083,4.5383,4.4008,4.4065,4.3864,4.3488,4.3571,4.3646,4.3841,4.4258,4.4477,4.4505,4.464,4.4815,4.4895,4.4895,4.4914,4.4862,4.4178,4.3387,4.261,4.1876,4.0806,3.954,3.8501,3.8155,3.8318,3.7788,3.7841,3.8656,3.8967,3.9102,3.9307,3.8714,3.8299,3.8059,3.755,3.7106,3.6833,3.6542,3.6504,3.6718,3.6754,3.6735,3.6715,3.6727,3.6888,3.7136,3.669,3.6547,3.6805,3.704,3.6869,3.6625,3.6813,3.6957,3.654,3.6394,3.6274,3.609,3.6381,3.6891,3.7428,3.7735,3.8111,3.8535,3.8091,3.7579,3.7347,3.6725,3.6556,3.6927,3.6416,3.6032,3.5647,3.5518,3.5339,3.4581,3.4923,3.4814,3.4267,3.3677,3.2867,3.2114,3.114,3.0449,2.96,2.8857,2.8148,2.7549,2.6303,2.4696,2.1558,1.711,1.2545,0.7933,0.3478,-0.105,-0.4617,-0.7663,-0.965,4.5079,4.4148,4.4335,4.3214,4.1714,4.1728,4.194,4.1981,4.2422,4.3103,4.3711,4.4361,4.4867,4.5596,4.5796,4.5612,4.4957,4.4292,4.4125,4.4252,4.3858,4.3809,4.4091,4.4402,4.443,4.4298,4.4505,4.4712,4.4865,4.487,4.4895,4.4839,4.4277,4.3545,4.2713,4.203,4.1243,4.0213,3.8878,3.8595,3.929,3.8733,3.8769,3.9668,4.0412,4.0042,3.8559,3.8544,3.8239,3.748,3.7337,3.7654,3.7995,3.7502,3.7472,3.7965,3.8276,3.833,3.8174,3.8104,3.7715,3.7352,3.7144,3.6768,3.6417,3.6799,3.7116,3.6947,3.7084,3.7117,3.7058,3.709,3.6871,3.6234,3.7157,3.7968,3.8315,3.8955,3.9433,3.9247,3.8631,3.8285,3.8023,3.7336,3.6881,3.6841,3.6677,3.6306,3.5633,3.5465,3.5398,3.5245,3.5133,3.4931,3.4545,3.4093,3.3223,3.2335,3.1259,3.0333,2.9223,2.8354,2.7542,2.6791,2.482,2.3046,1.9628,1.531,1.1457,0.7003,0.2655,-0.1315,-0.4537,-0.7495,-0.9475,4.4595,4.401,4.3426,4.2604,4.1679,4.1974,4.1795,4.1267,4.219,4.2605,4.2661,4.3411,4.4,4.427,4.445,4.4836,4.5164,4.4123,4.3651,4.3789,4.3818,4.3992,4.4336,4.4602,4.4667,4.4532,4.4587,4.4685,4.4712,4.4764,4.4821,4.4891,4.4813,4.3986,4.2755,4.2564,4.1942,4.0575,3.9548,3.9497,4.0238,3.9641,3.9707,4.0526,4.0902,4.0242,3.8653,3.9067,3.8678,3.7352,3.7297,3.7402,3.7533,3.7363,3.7288,3.7455,3.7514,3.7211,3.6787,3.7206,3.7486,3.7172,3.7097,3.6981,3.6771,3.6917,3.6891,3.6541,3.6824,3.6996,3.6548,3.6884,3.7064,3.6806,3.7258,3.7923,3.843,3.9034,3.9154,3.8779,3.8876,3.8554,3.7614,3.6996,3.6909,3.6717,3.6324,3.5784,3.5496,3.5329,3.5257,3.5179,3.5089,3.4963,3.4528,3.3783,3.2793,3.1952,3.1017,2.9927,2.8833,2.776,2.6968,2.5368,2.3396,2.0825,1.7376,1.3865,1.0153,0.6324,0.2151,-0.1442,-0.4683,-0.7196,-0.9351,4.4385,4.4646,4.355,4.2857,4.2452,4.2514,4.1922,4.1238,4.2006,4.2176,4.2061,4.2697,4.3316,4.3578,4.3796,4.4307,4.4831,4.4054,4.3734,4.3758,4.3912,4.426,4.4557,4.4726,4.4815,4.4738,4.4726,4.4753,4.4789,4.4821,4.4919,4.508,4.5125,4.4336,4.2948,4.2885,4.2239,4.0757,3.9917,3.9976,4.0535,4.0116,4.015,4.0883,4.1072,4.0387,3.9126,3.9234,3.8543,3.7146,3.6797,3.7153,3.7932,3.7882,3.7754,3.8019,3.8022,3.773,3.6984,3.7685,3.7637,3.7286,3.7326,3.7152,3.6809,3.6608,3.6499,3.6934,3.6729,3.6767,3.6884,3.6974,3.7317,3.762,3.7975,3.8276,3.8811,3.9207,3.9073,3.8612,3.8627,3.8312,3.7642,3.7282,3.706,3.6714,3.62,3.5595,3.5436,3.5238,3.5147,3.5056,3.4908,3.4697,3.4423,3.3499,3.234,3.1486,3.065,2.9496,2.838,2.723,2.627,2.3792,2.1647,1.9384,1.6165,1.3,0.9494,0.5563,0.1704,-0.1511,-0.4695,-0.7395,-0.9511,4.446,4.5656,4.4453,4.3834,4.3699,4.3096,4.2509,4.2044,4.1998,4.2119,4.2246,4.2489,4.2898,4.3499,4.3718,4.4046,4.4291,4.4381,4.4313,4.4274,4.4346,4.4503,4.4802,4.4808,4.4833,4.4903,4.4866,4.4919,4.4986,4.5014,4.5125,4.517,4.5135,4.4497,4.3328,4.3032,4.2314,4.1035,4.0121,4.0215,4.0926,4.0338,4.0271,4.1052,4.109,4.0636,3.9767,3.9001,3.7812,3.6289,3.6235,3.7337,3.8921,3.8867,3.8813,3.9276,3.9548,3.8829,3.8518,3.8423,3.8355,3.7092,3.7482,3.7637,3.6373,3.6246,3.674,3.7866,3.7082,3.6832,3.7805,3.7741,3.7696,3.8305,3.8844,3.9287,3.9375,3.941,3.9076,3.8491,3.8247,3.8209,3.8036,3.7882,3.7459,3.6811,3.6419,3.5837,3.5427,3.5167,3.5058,3.4908,3.4713,3.4242,3.3877,3.2649,3.1476,3.0469,2.9638,2.852,2.7432,2.6319,2.467,2.2236,2.0049,1.769,1.5041,1.185,0.8657,0.5026,0.151,-0.1714,-0.4623,-0.7265,-0.9265,4.4338,4.4275,4.4015,4.395,4.3937,4.3305,4.3244,4.3457,4.2463,4.2423,4.281,4.2655,4.2775,4.3172,4.3377,4.3667,4.4096,4.4239,4.4442,4.4578,4.4648,4.4726,4.4889,4.4903,4.4878,4.4815,4.487,4.4862,4.487,4.4943,4.5038,4.5192,4.5256,4.4844,4.4006,4.3408,4.2723,4.1826,4.1042,4.0753,4.1006,4.092,4.0857,4.1051,4.1099,4.064,3.9822,3.8977,3.7708,3.6211,3.7138,3.7962,3.8712,3.9046,3.9108,3.8818,3.8693,3.8091,3.7061,3.7353,3.7217,3.6373,3.7123,3.7171,3.6839,3.6751,3.7314,3.811,3.7914,3.7847,3.8227,3.811,3.8121,3.8297,3.8918,3.9238,3.8864,3.9038,3.911,3.8479,3.916,3.9028,3.8253,3.7828,3.7494,3.6687,3.6031,3.5562,3.5243,3.4965,3.4829,3.4651,3.4389,3.3804,3.3038,3.1743,3.0559,2.943,2.8335,2.7112,2.6034,2.4899,2.284,2.0489,1.8734,1.6555,1.3682,1.0674,0.7395,0.4407,0.1246,-0.1975,-0.4561,-0.7149,-0.8834,4.3915,4.3804,4.3311,4.3313,4.358,4.2917,4.2951,4.3241,4.2692,4.2624,4.3055,4.3003,4.305,4.3284,4.3408,4.3744,4.4132,4.4221,4.4439,4.4719,4.4821,4.4895,4.4962,4.5,4.5,4.4943,4.4969,4.503,4.5019,4.5057,4.5148,4.5275,4.5317,4.4997,4.4369,4.3998,4.3414,4.2819,4.2288,4.1994,4.1685,4.1637,4.1367,4.1225,4.109,4.0683,3.9877,3.9614,3.8895,3.7971,3.8131,3.84,3.8432,3.8852,3.8885,3.8354,3.8043,3.7344,3.6753,3.7063,3.7102,3.6744,3.7318,3.7764,3.7695,3.7607,3.7957,3.8762,3.8587,3.8549,3.8714,3.851,3.8072,3.776,3.8128,3.838,3.816,3.862,3.8621,3.8524,3.8796,3.9008,3.7602,3.7386,3.6881,3.6165,3.5528,3.5246,3.5039,3.4788,3.4555,3.439,3.3788,3.3066,3.2083,3.0844,2.9467,2.8338,2.6708,2.552,2.4614,2.3488,2.1702,1.9572,1.7556,1.5341,1.2642,0.9868,0.694,0.3939,0.0786,-0.197,-0.4617,-0.6992,-0.8606,4.3447,4.3941,4.2678,4.2526,4.3083,4.2498,4.2674,4.2731,4.2717,4.2917,4.3251,4.3375,4.3508,4.374,4.3804,4.4023,4.4365,4.4421,4.4576,4.4821,4.4962,4.5057,4.5084,4.5095,4.5141,4.5148,4.5178,4.5218,4.5216,4.5256,4.5338,4.5399,4.5419,4.5182,4.4805,4.457,4.4225,4.3786,4.3435,4.3039,4.2632,4.2509,4.224,4.1769,4.1425,4.1047,4.0574,4.0545,4.0497,3.9909,3.9018,3.8607,3.8513,3.8455,3.8449,3.8355,3.7947,3.7559,3.7269,3.7793,3.7948,3.7492,3.8451,3.9157,3.8559,3.8452,3.8802,3.9646,3.8996,3.9083,3.9245,3.8864,3.8114,3.744,3.7081,3.7443,3.7816,3.8041,3.7983,3.7906,3.793,3.7563,3.6933,3.6468,3.6224,3.568,3.5135,3.4963,3.4768,3.4517,3.4311,3.413,3.329,3.2237,3.1117,2.992,2.8479,2.7114,2.5146,2.3815,2.3141,2.202,2.0617,1.8851,1.6698,1.4508,1.219,0.9364,0.6415,0.3551,0.0527,-0.2106,-0.468,-0.6879,-0.8731,4.3882,4.3611,4.3291,4.3304,4.3495,4.3616,4.401,4.4548,4.356,4.3559,4.4101,4.3852,4.3836,4.4102,4.4202,4.4383,4.4655,4.4732,4.4895,4.5014,4.5106,4.5216,4.5279,4.5254,4.5208,4.5233,4.5275,4.5277,4.5317,4.5319,4.536,4.5476,4.5547,4.558,4.5505,4.5032,4.4733,4.4507,4.4013,4.3685,4.3498,4.3417,4.3273,4.2929,4.2392,4.1978,4.1682,4.126,4.0921,4.0591,3.9874,3.906,3.8699,3.8984,3.8957,3.8588,3.8782,3.8665,3.8228,3.819,3.8248,3.8121,3.8489,3.8791,3.9353,3.9314,3.9712,4.0333,4.0352,3.9932,3.9557,3.9895,3.8794,3.745,3.7211,3.7382,3.7156,3.7055,3.7098,3.7151,3.749,3.7559,3.6638,3.6396,3.5928,3.5211,3.4866,3.4677,3.4461,3.4221,3.3961,3.3733,3.2708,3.1607,3.0501,2.9109,2.7305,2.5918,2.4046,2.2402,2.1698,2.0746,1.9396,1.7673,1.5731,1.3553,1.1556,0.8811,0.5894,0.3103,0.0397,-0.2108,-0.4534,-0.6715,-0.8719,4.4068,4.3423,4.352,4.3539,4.3614,4.387,4.425,4.4589,4.4133,4.4135,4.4535,4.4335,4.4383,4.4576,4.4643,4.4795,4.4957,4.5094,4.5201,4.5303,4.5362,4.5457,4.5513,4.5477,4.5418,4.538,4.5361,4.54,4.5419,4.5457,4.553,4.5596,4.5661,4.5775,4.5925,4.559,4.5488,4.5456,4.5109,4.4703,4.4338,4.429,4.4004,4.372,4.3144,4.2758,4.2196,4.1829,4.1344,4.084,4.0121,3.9481,3.9111,3.9355,3.9296,3.9062,3.8771,3.9038,3.8725,3.8771,3.8798,3.8717,3.9127,3.9615,3.9983,4.013,4.0308,4.0637,4.0645,4.0389,3.9528,3.9171,3.8383,3.7315,3.6728,3.655,3.6255,3.6435,3.668,3.6677,3.6971,3.6602,3.6171,3.5892,3.5533,3.4751,3.4454,3.4282,3.4161,3.3902,3.3496,3.2997,3.2014,3.0984,2.9903,2.828,2.6134,2.4691,2.3146,2.1629,2.0597,1.9463,1.8278,1.6671,1.5079,1.3059,1.0849,0.8068,0.5705,0.344,0.0858,-0.1908,-0.4387,-0.6413,-0.8375,4.4376,4.3642,4.3712,4.3725,4.3767,4.3924,4.4102,4.425,4.4433,4.4625,4.4735,4.4905,4.4985,4.5071,4.514,4.5204,4.5285,4.5342,4.547,4.5558,4.5577,4.5642,4.5692,4.569,4.5659,4.5584,4.5549,4.555,4.5565,4.5648,4.5673,4.5728,4.5789,4.5891,4.6008,4.6074,4.602,4.6036,4.6,4.5765,4.5233,4.5117,4.4789,4.4343,4.3876,4.3324,4.2665,4.218,4.1732,4.0826,4.0137,3.9857,3.9751,3.9615,3.9553,3.9453,3.9038,3.9127,3.9403,3.9471,3.9465,3.9355,4.0063,4.0538,4.0549,4.0519,4.0571,4.059,4.0557,4.026,3.936,3.915,3.8197,3.711,3.6144,3.5659,3.5589,3.6093,3.6124,3.622,3.615,3.5831,3.5363,3.5001,3.4668,3.4401,3.4117,3.3902,3.377,3.3478,3.3015,3.2307,3.1352,2.9858,2.8677,2.7867,2.5682,2.404,2.2511,2.118,1.987,1.8647,1.7567,1.6203,1.4548,1.2429,1.0207,0.7703,0.5501,0.3643,0.1321,-0.1518,-0.3916,-0.6113,-0.8038,4.5256,4.5224,4.4489,4.4279,4.4448,4.4571,4.4689,4.486,4.5052,4.522,4.5321,4.5381,4.5416,4.5468,4.5503,4.5497,4.5538,4.5597,4.565,4.5698,4.5711,4.5764,4.5844,4.5841,4.5833,4.5848,4.5775,4.5688,4.5673,4.5679,4.579,4.5856,4.5928,4.6036,4.6115,4.6177,4.6181,4.6225,4.6225,4.6054,4.593,4.5789,4.5747,4.5351,4.487,4.4132,4.3266,4.2488,4.171,4.0884,4.0688,4.0599,4.0374,3.989,3.9572,3.9535,3.9747,3.9868,3.998,4.0081,4.01,4.0133,4.029,4.0383,4.0386,4.0386,4.0419,4.0389,4.0334,4.0065,3.9327,3.9289,3.8986,3.7997,3.7183,3.6654,3.6158,3.578,3.5571,3.5818,3.5552,3.5192,3.4807,3.4464,3.4265,3.4037,3.3766,3.3524,3.3361,3.2919,3.2353,3.1583,3.0715,2.901,2.738,2.6698,2.5396,2.3843,2.2358,2.1066,1.9697,1.8205,1.6838,1.5254,1.3562,1.1606,0.9364,0.7214,0.5176,0.3127,0.0929,-0.126,-0.368,-0.6012,-0.7629,4.5495,4.5547,4.5095,4.4983,4.5084,4.5175,4.5235,4.5336,4.5452,4.553,4.558,4.5609,4.5636,4.5664,4.5725,4.5784,4.584,4.5869,4.5885,4.5901,4.5908,4.5935,4.6008,4.5966,4.5979,4.6021,4.5994,4.5911,4.5871,4.5914,4.5938,4.5988,4.6063,4.6135,4.619,4.6234,4.624,4.6254,4.623,4.6189,4.6206,4.6131,4.6083,4.592,4.5636,4.4963,4.4141,4.3722,4.2737,4.1744,4.1429,4.1132,4.0687,4.0279,3.9918,3.9947,4.0183,4.0319,4.0232,4.0229,4.0169,4.01,4.0195,4.0232,4.0194,4.0194,4.0213,4.0196,4.0139,3.9986,3.9624,3.9508,3.8897,3.8267,3.7614,3.6965,3.6394,3.5964,3.5832,3.5765,3.5367,3.494,3.4446,3.416,3.3943,3.3697,3.3395,3.3171,3.297,3.234,3.1725,3.0945,3.0056,2.8783,2.7193,2.6356,2.5236,2.3702,2.2351,2.1044,1.934,1.7759,1.5891,1.4034,1.2273,1.0781,0.9,0.6963,0.4851,0.2739,0.0934,-0.1066,-0.3659,-0.5844,-0.7358,4.548,4.5482,4.5499,4.5503,4.5503,4.5522,4.5526,4.5545,4.5581,4.5597,4.5661,4.5662,4.5662,4.5718,4.5835,4.5944,4.607,4.6069,4.6069,4.6087,4.6069,4.6091,4.611,4.6111,4.6091,4.6092,4.6113,4.6139,4.6052,4.6072,4.6096,4.6112,4.6183,4.6206,4.6225,4.6245,4.628,4.6248,4.6215,4.6164,4.615,4.6113,4.6056,4.6005,4.5972,4.5498,4.455,4.4349,4.3399,4.2333,4.175,4.145,4.0662,4.037,4.0334,4.0348,4.0241,4.0136,4.006,4.007,4.0,3.9892,4.004,4.0041,3.9962,3.9941,3.9982,3.9962,3.9918,3.9873,3.9683,3.9199,3.8852,3.8482,3.7755,3.6925,3.6667,3.6341,3.6012,3.574,3.5218,3.4847,3.4485,3.4173,3.4054,3.3361,3.3039,3.2759,3.2451,3.1725,3.1031,3.0302,2.9473,2.8526,2.7397,2.645,2.5137,2.3514,2.2334,2.1198,1.919,1.728,1.5308,1.3437,1.1811,1.0305,0.8516,0.6772,0.4794,0.2941,0.1273,-0.0669,-0.2935,-0.5033,-0.6738,4.5416,4.5415,4.546,4.5508,4.5468,4.5373,4.5331,4.5323,4.5323,4.5417,4.5479,4.5505,4.5551,4.5657,4.5748,4.5878,4.5968,4.5984,4.5987,4.6036,4.6058,4.6075,4.608,4.6117,4.6033,4.6007,4.6039,4.615,4.6119,4.6132,4.6162,4.6167,4.618,4.6209,4.6191,4.6211,4.6182,4.6123,4.6107,4.6095,4.6027,4.6016,4.6014,4.598,4.5854,4.5427,4.4558,4.4315,4.3497,4.1989,4.1673,4.1234,4.0545,4.0176,4.0061,4.0043,4.0005,3.9948,3.9813,3.9815,3.9811,3.9731,3.9781,3.9735,3.9651,3.958,3.9604,3.967,3.9599,3.9599,3.9623,3.951,3.9411,3.8863,3.8004,3.7611,3.7385,3.6906,3.6537,3.6109,3.5724,3.5182,3.472,3.4436,3.4129,3.3364,3.2687,3.2351,3.1811,3.0976,3.0195,2.9394,2.8828,2.7898,2.6996,2.617,2.4818,2.3223,2.2205,2.1057,1.8907,1.6767,1.5042,1.3243,1.1553,0.9837,0.8146,0.6449,0.474,0.3143,0.1541,-0.0134,-0.1872,-0.3971,-0.6119,4.4595,4.5124,4.5113,4.5109,4.5086,4.5013,4.4937,4.4915,4.4914,4.4966,4.5033,4.5074,4.5199,4.5341,4.5448,4.5537,4.5623,4.5723,4.5774,4.5832,4.5888,4.5935,4.5835,4.5519,4.537,4.5835,4.5613,4.5557,4.5806,4.609,4.6151,4.6132,4.6131,4.6148,4.6147,4.6163,4.6167,4.6157,4.6143,4.6061,4.5972,4.5929,4.5893,4.5827,4.5786,4.516,4.4468,4.4131,4.3289,4.1912,4.153,4.1036,4.033,3.9943,3.9838,3.9721,3.9705,3.9709,3.9698,3.9684,3.9656,3.9613,3.957,3.9477,3.9376,3.9324,3.929,3.9298,3.9298,3.9253,3.9253,3.9219,3.9156,3.8758,3.8127,3.8071,3.7911,3.7588,3.7143,3.6681,3.6107,3.5331,3.4578,3.4092,3.3627,3.2935,3.2159,3.1602,3.0888,2.9978,2.9176,2.8419,2.7852,2.7305,2.6366,2.548,2.4198,2.2763,2.1801,2.0442,1.827,1.6306,1.4655,1.2959,1.1149,0.9486,0.7751,0.633,0.4875,0.3345,0.181,0.0134,-0.1607,-0.3553,-0.603,4.3452,4.4134,4.4367,4.4417,4.4334,4.4259,4.4168,4.4083,4.4073,4.4177,4.4391,4.4537,4.4729,4.4889,4.4995,4.5074,4.5227,4.5377,4.5483,4.5565,4.5611,4.5689,4.5557,4.5137,4.5156,4.5783,4.5273,4.5228,4.5551,4.5813,4.5917,4.602,4.6053,4.6064,4.6084,4.6052,4.6016,4.6026,4.6033,4.5995,4.5912,4.5822,4.5752,4.5584,4.5329,4.4858,4.4116,4.3655,4.2775,4.1722,4.1301,4.0817,4.0046,3.9747,3.9632,3.9526,3.9521,3.9514,3.9539,3.9533,3.9527,3.9458,3.9388,3.9237,3.9156,3.9101,3.9073,3.897,3.897,3.8931,3.8862,3.8862,3.8803,3.8651,3.8291,3.83,3.8118,3.7402,3.6714,3.6101,3.5502,3.4957,3.423,3.3613,3.3053,3.2475,3.1759,3.0947,2.9995,2.9042,2.8354,2.7616,2.7205,2.6622,2.5588,2.459,2.3386,2.2206,2.1237,1.9885,1.7765,1.6067,1.4562,1.278,1.0863,0.93,0.7766,0.6416,0.5077,0.3547,0.2011,0.0335,-0.1408,-0.3487,-0.6142,4.205,4.2078,4.3047,4.3287,4.3045,4.2905,4.2814,4.285,4.2813,4.3049,4.3424,4.3862,4.4139,4.4307,4.4369,4.4569,4.4893,4.4947,4.5063,4.5207,4.5323,4.5323,4.5244,4.5185,4.5111,4.5284,4.4957,4.4997,4.5285,4.5409,4.5611,4.5791,4.5859,4.5953,4.5933,4.5828,4.575,4.575,4.5786,4.5833,4.5737,4.5623,4.5488,4.5262,4.4595,4.392,4.3691,4.2984,4.2104,4.1032,4.081,4.0533,3.9779,3.9545,3.9395,3.9354,3.9328,3.9301,3.9248,3.932,3.9357,3.9266,3.912,3.8989,3.8902,3.8862,3.8755,3.8676,3.8646,3.8615,3.8652,3.864,3.8528,3.831,3.8071,3.7902,3.7478,3.6618,3.5964,3.5419,3.4889,3.4464,3.372,3.3033,3.2615,3.2053,3.0802,2.9938,2.9148,2.8255,2.7643,2.7036,2.6607,2.5873,2.4676,2.3586,2.2539,2.1283,2.0142,1.8854,1.7312,1.5819,1.4356,1.2577,1.0763,0.9264,0.779,0.63,0.4888,0.3685,0.2144,0.0335,-0.1945,-0.4364,-0.7129,4.103,4.0797,4.1525,4.1973,4.2235,4.2154,4.2132,4.2109,4.2109,4.2213,4.2474,4.2923,4.3173,4.3327,4.3647,4.3806,4.4002,4.4186,4.4371,4.46,4.4724,4.4905,4.49,4.4715,4.4543,4.4848,4.4652,4.4585,4.4886,4.4998,4.5039,4.5225,4.5472,4.561,4.5591,4.5522,4.5433,4.536,4.536,4.5378,4.5266,4.5207,4.5084,4.4916,4.4214,4.335,4.2667,4.1863,4.1003,4.0333,4.0021,3.9702,3.9495,3.9266,3.9157,3.9129,3.911,3.9026,3.8921,3.9026,3.9157,3.8968,3.8844,3.8725,3.8634,3.8572,3.8528,3.8415,3.8332,3.83,3.8252,3.8219,3.8135,3.7962,3.7735,3.7522,3.6934,3.6042,3.5332,3.4833,3.4475,3.4137,3.328,3.2385,3.2008,3.1576,3.0202,2.8984,2.822,2.7612,2.7082,2.644,2.6012,2.5053,2.3835,2.2837,2.1752,2.0437,1.9052,1.7853,1.6661,1.5486,1.3948,1.227,1.0736,0.9264,0.7707,0.6148,0.4827,0.3687,0.2078,0.0134,-0.2345,-0.4973,-0.7691,4.017,3.9969,4.0336,4.0784,4.1286,4.1286,4.1286,4.1286,4.1286,4.1402,4.1525,4.1943,4.2167,4.235,4.2641,4.2996,4.3139,4.3314,4.3582,4.385,4.4138,4.4373,4.432,4.4266,4.4254,4.4543,4.4266,4.4135,4.4519,4.4612,4.4612,4.4682,4.4881,4.5063,4.5246,4.5186,4.5084,4.4976,4.4916,4.4916,4.4805,4.4749,4.4694,4.4466,4.378,4.2904,4.204,4.1218,4.0349,3.9679,3.9272,3.9163,3.9082,3.8987,3.8888,3.8822,3.8755,3.8713,3.8634,3.8718,3.8855,3.8695,3.8596,3.8465,3.835,3.8285,3.8204,3.8104,3.8018,3.7915,3.7863,3.7898,3.781,3.765,3.7202,3.6916,3.629,3.5542,3.4876,3.4297,3.3765,3.2938,3.2213,3.1213,3.0675,3.0401,2.9873,2.8624,2.7612,2.7085,2.6716,2.6055,2.538,2.4252,2.3026,2.1972,2.0841,1.9617,1.8268,1.7188,1.6016,1.4877,1.3769,1.2205,1.0746,0.9249,0.7822,0.6359,0.5097,0.3823,0.1809,-0.047,-0.2473,-0.5033,-0.7386,3.9329,3.9537,3.9609,3.985,4.0087,4.0121,4.0154,4.0254,4.0254,4.0417,4.0703,4.1105,4.134,4.1455,4.1664,4.2003,4.2253,4.2393,4.2683,4.3138,4.3364,4.3601,4.3794,4.3874,4.389,4.4035,4.3899,4.3862,4.4091,4.4114,4.4102,4.4095,4.4195,4.4425,4.4848,4.4824,4.4743,4.4631,4.46,4.4556,4.4504,4.4354,4.4252,4.4073,4.3144,4.2207,4.163,4.0607,3.9779,3.9231,3.897,3.8894,3.8815,3.8683,3.8559,3.8428,3.846,3.8433,3.8322,3.8455,3.8405,3.8396,3.8307,3.8174,3.8036,3.7915,3.7739,3.7577,3.7487,3.7522,3.7577,3.7469,3.7268,3.7017,3.6556,3.6021,3.5428,3.4693,3.3934,3.3516,3.2327,3.1207,3.0609,2.9972,2.9307,2.8986,2.9034,2.8309,2.7161,2.6579,2.6218,2.5666,2.4901,2.366,2.2472,2.116,1.9984,1.8699,1.76,1.6661,1.5661,1.4712,1.3445,1.2138,1.082,0.9427,0.808,0.6638,0.5105,0.3439,0.0872,-0.1341,-0.3141,-0.4957,-0.7221,3.8311,3.8124,3.8495,3.8535,3.8446,3.8974,3.9398,3.9677,3.9781,3.9867,3.9952,4.0302,4.0397,4.0494,4.078,4.1059,4.1206,4.1411,4.1722,4.2275,4.251,4.2849,4.3122,4.3334,4.3403,4.3316,4.3318,4.3442,4.356,4.356,4.3564,4.3536,4.3461,4.3706,4.4157,4.428,4.4202,4.4151,4.4132,4.4132,4.4023,4.3786,4.3656,4.3735,4.2461,4.1585,4.1212,4.0136,3.9268,3.8851,3.8676,3.8535,3.8382,3.8204,3.8072,3.7915,3.7844,3.7949,3.7844,3.7823,3.7803,3.7893,3.7933,3.7775,3.7505,3.7339,3.7132,3.6921,3.6803,3.6838,3.6895,3.6177,3.5871,3.5927,3.5542,3.4969,3.4302,3.3485,3.2781,3.2645,3.185,3.0566,2.9729,2.91,2.8373,2.7887,2.7915,2.7637,2.6704,2.6133,2.5716,2.5245,2.4503,2.3218,2.1989,2.0723,1.9427,1.8104,1.7225,1.6332,1.5401,1.4418,1.3395,1.2114,1.0912,0.9606,0.804,0.6441,0.4768,0.2783,0.0606,-0.1543,-0.3418,-0.5027,-0.6813,3.731,3.7175,3.7413,3.737,3.7235,3.7953,3.8551,3.8969,3.9115,3.9185,3.9292,3.9523,3.961,3.9697,3.9885,4.0203,4.0235,4.0463,4.078,4.1296,4.169,4.2068,4.2368,4.2696,4.2828,4.2734,4.275,4.2899,4.2996,4.294,4.2923,4.285,4.2722,4.2869,4.3245,4.3351,4.3422,4.3318,4.3265,4.3212,4.3141,4.3051,4.2977,4.2705,4.1905,4.0959,4.0464,3.9655,3.8666,3.8455,3.818,3.7977,3.7827,3.7649,3.7482,3.7337,3.7188,3.7226,3.7079,3.6584,3.6551,3.6732,3.7142,3.7279,3.7034,3.6821,3.658,3.6357,3.6105,3.5975,3.587,3.5059,3.4751,3.4841,3.4174,3.3562,3.3117,3.2263,3.159,3.149,3.1024,2.9846,2.8872,2.8227,2.7579,2.7157,2.6805,2.6481,2.6162,2.5564,2.4966,2.4474,2.3722,2.2421,2.1318,2.0325,1.903,1.7611,1.6717,1.5965,1.5117,1.4099,1.3158,1.2161,1.0924,0.9574,0.7847,0.6231,0.4563,0.2852,0.0873,-0.1272,-0.3489,-0.51,-0.6515,3.6244,3.6554,3.6554,3.6492,3.6446,3.6935,3.7546,3.8042,3.81,3.8343,3.8733,3.8788,3.8827,3.8936,3.9098,3.9295,3.9489,3.9645,3.9986,4.0414,4.0856,4.1223,4.1648,4.2019,4.211,4.2246,4.2323,4.2305,4.2404,4.2324,4.2226,4.2144,4.208,4.2062,4.2144,4.2266,4.2444,4.2483,4.2483,4.2483,4.2444,4.2262,4.2195,4.1895,4.1318,4.0495,3.9871,3.9066,3.8312,3.7809,3.7377,3.7248,3.7114,3.696,3.6878,3.6719,3.6557,3.634,3.6104,3.5515,3.514,3.5399,3.6035,3.6487,3.6498,3.6128,3.5994,3.5735,3.5491,3.5162,3.4848,3.4329,3.3811,3.3313,3.2596,3.211,3.1708,3.1056,3.0379,2.9939,2.9553,2.8732,2.8079,2.7434,2.6776,2.6285,2.5833,2.5522,2.5162,2.4622,2.4071,2.3539,2.2655,2.1464,2.0492,1.9766,1.8685,1.7272,1.6392,1.5559,1.4681,1.3787,1.2804,1.1801,1.0873,0.939,0.7425,0.5832,0.4494,0.2722,0.1006,-0.1004,-0.3218,-0.4683,-0.6098,3.5529,3.5415,3.5627,3.5529,3.5234,3.5444,3.5913,3.6692,3.731,3.7621,3.7429,3.7605,3.778,3.787,3.7969,3.8238,3.8535,3.881,3.9189,3.9542,3.9935,4.0334,4.0754,4.1053,4.1255,4.1408,4.1515,4.1666,4.1735,4.1674,4.1613,4.1569,4.1426,4.1226,4.1146,4.1146,4.1543,4.1871,4.1871,4.1871,4.1828,4.1717,4.1495,4.1054,4.0609,3.9823,3.8938,3.8443,3.7768,3.7217,3.696,3.6786,3.6557,3.6416,3.6291,3.6122,3.5856,3.5545,3.5173,3.4763,3.4313,3.3999,3.4499,3.4701,3.4948,3.5104,3.5182,3.5023,3.4718,3.4401,3.3789,3.325,3.2746,3.2166,3.1434,3.0816,3.0462,3.0173,2.9496,2.9073,2.8622,2.8015,2.7312,2.6573,2.5943,2.5411,2.49,2.46,2.4142,2.3664,2.3275,2.277,2.1752,2.0611,1.9957,1.9217,1.8135,1.709,1.6079,1.4999,1.4015,1.3105,1.2257,1.1166,0.9817,0.8323,0.6618,0.5274,0.4112,0.2783,0.114,-0.087,-0.2743,-0.4207,-0.5668,3.4721,3.4534,3.4706,3.4668,3.4428,3.4428,3.4787,3.54,3.6275,3.6707,3.6707,3.6814,3.689,3.7011,3.7131,3.7385,3.7754,3.8042,3.8367,3.8756,3.9044,3.9401,3.9817,4.007,4.0269,4.0434,4.0628,4.0802,4.0955,4.1111,4.1128,4.099,4.0783,4.0651,4.0551,4.0614,4.0836,4.1111,4.1276,4.1366,4.1276,4.1122,4.0715,4.0219,3.9718,3.8894,3.8028,3.7631,3.6974,3.655,3.6316,3.6105,3.5898,3.581,3.5571,3.5453,3.5253,3.4994,3.4684,3.379,3.3301,3.2929,3.2845,3.2644,3.3317,3.3813,3.4065,3.4166,3.3843,3.3453,3.2754,3.2043,3.1635,3.1209,3.0384,2.9608,2.9364,2.9182,2.8826,2.8463,2.7913,2.7261,2.6587,2.5837,2.5218,2.4845,2.4309,2.3813,2.3327,2.276,2.2493,2.2176,2.1058,1.9871,1.9251,1.8449,1.7311,1.624,1.5292,1.4258,1.3316,1.2251,1.1126,0.9846,0.8518,0.7155,0.5917,0.4881,0.3671,0.2555,0.1472,-0.0134,-0.1941,-0.3675,-0.52,3.3642,3.3559,3.3728,3.3742,3.3882,3.3922,3.4005,3.3965,3.5103,3.5785,3.6072,3.6197,3.6197,3.6197,3.6259,3.6585,3.6982,3.7282,3.7578,3.8042,3.8455,3.8788,3.899,3.9135,3.9437,3.9542,3.9749,4.0103,4.017,4.0269,4.0319,4.037,4.0337,4.0238,4.0188,4.0238,4.037,4.0402,4.0549,4.058,4.0597,4.0431,4.0127,3.944,3.876,3.8025,3.7246,3.6525,3.5813,3.5768,3.5577,3.5441,3.5287,3.5148,3.493,3.4787,3.4723,3.4429,3.3986,3.3186,3.2474,3.1929,3.1388,3.1565,3.2401,3.2933,3.3258,3.3372,3.3113,3.2821,3.2176,3.1406,3.0847,3.0306,2.9611,2.9045,2.8811,2.8559,2.8158,2.773,2.7159,2.6549,2.5946,2.5175,2.4614,2.4313,2.39,2.328,2.2567,2.2011,2.1663,2.1474,2.0275,1.9078,1.8245,1.7375,1.6294,1.532,1.4316,1.339,1.2378,1.1169,0.9918,0.8657,0.7377,0.6525,0.545,0.4363,0.3431,0.272,0.1656,0.0469,-0.1072,-0.2876,-0.4604,3.1744,3.1295,3.1903,3.2556,3.3185,3.3452,3.3353,3.3283,3.3991,3.4409,3.4639,3.481,3.5073,3.532,3.5464,3.5721,3.6117,3.6477,3.686,3.7222,3.7653,3.8116,3.8367,3.8535,3.8778,3.9065,3.9295,3.9401,3.9454,3.9385,3.9385,3.9627,3.9575,3.9523,3.9833,3.9884,3.9935,3.9935,4.0037,4.0188,4.0305,4.0036,3.9682,3.9157,3.8516,3.8063,3.734,3.6683,3.632,3.6189,3.5368,3.498,3.4739,3.4594,3.4497,3.4399,3.4284,3.3973,3.3501,3.2902,3.2337,3.2063,3.1803,3.1976,3.2219,3.2337,3.245,3.253,3.2528,3.2171,3.1625,3.0875,3.0145,2.9512,2.8867,2.8568,2.8317,2.791,2.7494,2.6967,2.6457,2.5851,2.5245,2.4641,2.4084,2.3683,2.3443,2.2882,2.2076,2.1445,2.0837,2.0402,1.932,1.8277,1.7373,1.6349,1.5275,1.4316,1.336,1.2365,1.1334,0.9838,0.8327,0.7405,0.6335,0.5493,0.4707,0.3782,0.2998,0.2306,0.1518,0.0201,-0.047,-0.1877,-0.3808,3.0296,2.9992,3.0384,3.0932,3.1498,3.1763,3.1833,3.1972,3.2483,3.2843,3.3208,3.3779,3.4264,3.4438,3.4587,3.4824,3.5204,3.5563,3.6102,3.6492,3.6876,3.7238,3.7578,3.787,3.7911,3.8197,3.8479,3.8645,3.8739,3.8739,3.8723,3.8849,3.8756,3.8903,3.9312,3.9435,3.954,3.9729,3.9679,3.9782,3.9952,3.9783,3.9446,3.8942,3.8556,3.8086,3.72,3.653,3.615,3.5723,3.4952,3.4578,3.4333,3.4201,3.4101,3.405,3.3901,3.3721,3.3201,3.2796,3.239,3.2162,3.1631,3.1514,3.0851,3.0954,3.1526,3.1678,3.2598,3.241,3.1381,3.0557,2.9987,2.9435,2.8454,2.7775,2.7312,2.6849,2.6534,2.6162,2.5687,2.5245,2.4624,2.4047,2.3479,2.3263,2.2987,2.2237,2.1481,2.0654,2.0079,1.9313,1.8251,1.7207,1.6228,1.5209,1.4165,1.3216,1.2257,1.0607,0.9153,0.7979,0.6789,0.6088,0.5352,0.4589,0.3773,0.295,0.214,0.1395,0.0667,-0.0134,-0.0671,-0.1343,-0.308,2.8974,2.8995,2.8911,2.9131,2.9504,2.9784,3.0033,3.0254,3.0787,3.113,3.1612,3.2778,3.3378,3.373,3.3813,3.4099,3.4409,3.4728,3.527,3.5752,3.6133,3.6554,3.6831,3.7044,3.727,3.7433,3.7653,3.7985,3.8181,3.801,3.7953,3.8124,3.8206,3.8302,3.8674,3.887,3.8978,3.8944,3.8999,3.9168,3.9373,3.9575,3.9292,3.8957,3.8472,3.7836,3.6985,3.6202,3.5725,3.5103,3.4546,3.3989,3.3558,3.3374,3.332,3.3201,3.3117,3.3196,3.3264,3.2792,3.2534,3.2112,3.1357,3.0701,3.0169,3.0114,3.0624,3.0933,3.1836,3.1789,3.072,3.0118,2.9581,2.8864,2.775,2.6938,2.6414,2.5946,2.5673,2.5342,2.4951,2.4509,2.3989,2.3365,2.304,2.2774,2.2224,2.136,2.0564,1.9762,1.9005,1.8066,1.7028,1.6018,1.5084,1.4068,1.3027,1.1853,1.071,0.8768,0.7159,0.6497,0.5846,0.5067,0.4375,0.3701,0.2893,0.2082,0.1339,0.0535,-0.0,-0.0605,-0.1277,-0.1949,-0.282,2.7246,2.7582,2.6806,2.7269,2.8562,2.8873,2.8983,2.9164,2.9451,2.9711,3.0027,3.051,3.1474,3.2917,3.3143,3.3325,3.3687,3.3948,3.4235,3.4721,3.5479,3.5864,3.6258,3.6677,3.6938,3.7121,3.7165,3.7225,3.7401,3.7178,3.7118,3.7504,3.7147,3.7223,3.7424,3.7688,3.8089,3.7959,3.7752,3.7806,3.7817,3.8294,3.9385,3.9051,3.8484,3.8098,3.7466,3.634,3.5828,3.5168,3.4242,3.3335,3.2787,3.24,3.2257,3.2351,3.232,3.2576,3.2607,3.2638,3.2407,3.2298,3.1643,3.1197,3.0585,2.9948,2.9968,2.9282,2.9769,2.966,2.9015,2.9,2.8586,2.7535,2.6443,2.604,2.5618,2.5342,2.5119,2.4724,2.4323,2.3813,2.3352,2.2823,2.2457,2.2125,2.1604,2.0722,1.9756,1.8893,1.7908,1.6815,1.572,1.4696,1.367,1.2837,1.1797,1.0615,0.9206,0.7522,0.6279,0.5584,0.4894,0.4325,0.3627,0.2958,0.215,0.1344,0.0537,-0.0201,-0.0604,-0.121,-0.1816,-0.2354,-0.3023]},{"header":{"parameterUnit":"m.s-1","parameterCategory":1,"la1":31.0,"la2":29.5877,"lo1":-88.7671,"lo2":-86.6584,"dy":0.0162,"dx":0.0185,"nx":115,"ny":88,"refTime":"2023-09-08T06:00:00:Z","depth":0,"parameterNumber":3,"parameterNumberName":"V-component_of_WINDS"},"data":[0.0,0.0,0.0,0.0,0.0,0.0,0.0,0.0,0.0,0.0,0.0,0.0,0.0,0.0,0.0,0.0,0.0,0.0,0.0,0.0,0.0,0.0,0.0,0.0,0.0,0.0,0.0,0.0,0.0,0.0,0.0,0.0,0.0,0.0,0.0,0.0,0.0,0.0,0.0,0.0,0.0,0.0,0.0,0.0,0.0,0.0,0.0,0.0,0.0,0.0,0.0,0.0,0.0,0.0,0.0,0.0,0.0,0.0,0.0,0.0,0.0,0.0,0.0,0.0,0.0,0.0,0.0,0.0,0.0,0.0,0.0,0.0,0.0,0.0,0.0,0.0,0.0,0.0,0.0,0.0,0.0,0.0,0.0,0.0,0.0,0.0,0.0,0.0,0.0,0.0,0.0,0.0,0.0,0.0,0.0,0.0,0.0,0.0,0.0,0.0,0.0,0.0,0.0,0.0,0.0,0.0,0.0,0.0,0.0,0.0,0.0,0.0,0.0,0.0,0.0,0.0,0.0,0.0,0.0,0.0,0.0,0.0,0.0,0.0,0.0,0.0,0.0,0.0,0.0,0.0,0.0,0.0,0.0,0.0,0.0,0.0,0.0,0.0,0.0,0.0,0.0,0.0,0.0,0.0,0.0,0.0,0.0,0.0,0.0,0.0,0.0,0.0,0.0,0.0,0.0,0.0,0.0,0.0,0.0,0.0,0.0,0.0,0.0,0.0,0.0,0.0,0.0,0.0,0.0,0.0,0.0,0.0,0.0,0.0,0.0,0.0,0.0,0.0,0.0,0.0,0.0,0.0,0.0,0.0,0.0,0.0,0.0,0.0,0.0,0.0,0.0,0.0,0.0,0.0,0.0,0.0,0.0,0.0,0.0,0.0,0.0,0.0,0.0,0.0,0.0,0.0,0.0,0.0,0.0,0.0,0.0,0.0,0.0,0.0,0.0,0.0,0.0,0.0,0.0,0.0,0.0,0.0,0.0,0.0,0.0,0.0,0.0,0.0,0.0,0.0,0.0,0.0,0.0,0.0,0.0,0.0,0.0,0.0,0.0,0.0,0.0,0.0,0.0,0.0,0.0,0.0,0.0,0.0,0.0,0.0,0.0,0.0,0.0,0.0,0.0,0.0,0.0,0.0,0.0,0.0,0.0,0.0,0.0,0.0,0.0,0.0,0.0,0.0,0.0,0.0,0.0,0.0,0.0,0.0,0.0,0.0,0.0,0.0,0.0,0.0,0.0,0.0,0.0,0.0,0.0,0.0,0.0,0.0,0.0,0.0,0.0,0.0,0.0,0.0,0.0,0.0,0.0,0.0,0.0,0.0,0.0,0.0,0.0,0.0,0.0,0.0,0.0,0.0,0.0,0.0,0.0,0.0,0.0,0.0,0.0,0.0,0.0,0.0,0.0,0.0,0.0,0.0,0.0,0.0,0.0,0.0,0.0,0.0,0.0,0.0,0.0,0.0,0.0,0.0,0.0,0.0,0.0,0.0,0.0,0.0,0.0,0.0,0.0,0.0,0.0,0.0,0.0,0.0,0.0,0.0,0.0,0.0,0.0,0.0,0.0,0.0,0.0,0.0,0.0,0.0,0.0,0.0,0.0,0.0,0.0,0.0,0.0,0.0,0.0,0.0,0.0,0.0,0.0,0.0,0.0,0.0,0.0,0.0,0.0,0.0,0.0,0.0,0.0,0.0,0.0,0.0,0.0,0.0,0.0,0.0,0.0,0.0,0.0,0.0,0.0,0.0,0.0,0.0,0.0,0.0,0.0,0.0,0.0,0.0,0.0,0.0,0.0,0.0,0.0,0.0,0.0,0.0,0.0,0.0,0.0,0.0,0.0,0.0,0.0,0.0,0.0,0.0,0.0,0.0,0.0,0.0,0.0,0.0,0.0,0.0,0.0,0.0,0.0,0.0,0.0,0.0,0.0,0.0,0.0,0.0,0.0,0.0,0.0,0.0,0.0,0.0,0.0,0.0,0.0,0.0,0.0,0.0,0.0,0.0,0.0,0.0,0.0,0.0,0.0,0.0,0.0,0.0,0.0,0.0,0.0,0.0,0.0,0.0,0.0,0.0,0.0,0.0,0.0,0.0,0.0,0.0,0.0,0.0,0.0,0.0,0.0,0.0,0.0,0.0,0.0,0.0,0.0,0.0,0.0,0.0,0.0,0.0,0.0,0.0,0.0,0.0,0.0,0.0,0.0,0.0,0.0,0.0,0.0,0.0,0.0,0.0,0.0,0.0,0.0,0.0,0.0,0.0,0.0,0.0,0.0,0.0,0.0,0.0,0.0,0.0,0.0,0.0,0.0,0.0,0.0,0.0,0.0,0.0,0.0,0.0,0.0,0.0,0.0,0.0,0.0,0.0,0.0,0.0,0.0,0.0,0.0,0.0,0.0,0.0,0.0,0.0,0.0,0.0,0.0,0.0,0.0,0.0,0.0,0.0,0.0,0.0,0.0,0.0,0.0,0.0,0.0,0.0,0.0,0.0,0.0,0.0,0.0,0.0,0.0,0.0,0.0,0.0,0.0,0.0,0.0,0.0,0.0,0.0,0.0,0.0,0.0,0.0,0.0,0.0,0.0,0.0,0.0,0.0,0.0,0.0,0.0,0.0,0.0,0.0,0.0,0.0,0.0,0.0,0.0,0.0,0.0,0.0,0.0,0.0,0.0,0.0,0.0,0.0,0.0,0.0,0.0,0.0,0.0,0.0,0.0,0.0,0.0,0.0,0.0,0.0,0.0,0.0,0.0,0.0,0.0,0.0,0.0,0.0,0.0,0.0,0.0,0.0,0.0,0.0,0.0,0.0,0.0,0.0,0.0,0.0,0.0,0.0,0.0,0.0,0.0,0.0,0.0,0.0,0.0,0.0,0.0,0.0,0.0,0.0,0.0,0.0,0.0,0.0,0.0,0.0,0.0,0.0,0.0,0.0,0.0,0.0,0.0,0.0,0.0,0.0,0.0,0.0,0.0,0.0,0.0,0.0,0.0,0.0,0.0,0.0,0.0,0.0,0.0,0.0,0.0,0.0,0.0,0.0,0.0,0.0,0.0,0.0,0.0,0.0,0.0,0.0,0.0,0.0,0.0,0.0,0.0,0.0,0.0,0.0,0.0,0.0,0.0,0.0,0.0,0.0,0.0,0.0,0.0,0.0,0.0,0.0,0.0,0.0,0.0,0.0,0.0,0.0,0.0,0.0,0.0,0.0,0.0,0.0,0.0,0.0,0.0,0.0,0.0,0.0,0.0,0.0,0.0,0.0,0.0,0.0,0.0,0.0,0.0,0.0,0.0,0.0,0.0,0.0,0.0,0.0,0.0,0.0,0.0,0.0,0.0,0.0,0.0,0.0,0.0,0.0,0.0,0.0,0.0,0.0,0.0,0.0,0.0,0.0,0.0,0.0,0.0,0.0,0.0,0.0,0.0,0.0,0.0,0.0,0.0,0.0,0.0,0.0,0.0,0.0,0.0,0.0,0.0,0.0,0.0,0.0,0.0,0.0,0.0,0.0,0.0,0.0,0.0,0.0,0.0,0.0,0.0,0.0,0.0,0.0,0.0,0.0,0.0,0.0,0.0,0.0,0.0,0.0,0.0,0.0,0.0,0.0,0.0,0.0,0.0,0.0,0.0,0.0,0.0,0.0,0.0,0.0,0.0,0.0,0.0,0.0,0.0,0.0,0.0,0.0,0.0,0.0,0.0,0.0,0.0,0.0,0.0,0.0,0.0,0.0,0.0,0.0,0.0,0.0,0.0,0.0,0.0,0.0,0.0,0.0,0.0,0.0,0.0,0.0,0.0,0.0,0.0,0.0,0.0,0.0,0.0,0.0,0.0,0.0,0.0,0.0,0.0,0.0,0.0,0.0,0.0,0.0,0.0,0.0,0.0,0.0,0.0,0.0,0.0,0.0,0.0,0.0,0.0,0.0,0.0,0.0,0.0,0.0,0.0,0.0,0.0,0.0,0.0,0.0,0.0,0.0,0.0,0.0,0.0,0.0,0.0,0.0,0.0,0.0,0.0,0.0,0.0,0.0,0.0,0.0,0.0,0.0,0.0,0.0,0.0,0.0,0.0,0.0,0.0,0.0,0.0,0.0,0.0,0.0,0.0,0.0,0.0,0.0,0.0,0.0,0.0,0.0,0.0,0.0,0.0,0.0,0.0,0.0,0.0,0.0,0.0,0.0,0.0,0.0,0.0,0.0,0.0,0.0,0.0,0.0,0.0,0.0,0.0,0.0,0.0,0.0,0.0,0.0,0.0,0.0,0.0,0.0,-0.0683,0.0,0.0,0.0,0.0,0.0,0.0,0.0,0.0,0.0,0.0,0.0,0.0,0.0,0.0,0.0,0.0,0.0,0.0,0.0,0.0,0.0,0.0,0.0,0.0,0.0,0.0,0.0,0.0,0.0,0.0,0.0,0.0,0.0,0.0,0.0,0.0,0.0,0.0,0.0,0.0,0.0,0.0,0.0,0.0,0.0,0.0,0.0,0.0,0.0,0.0,0.0,0.0,0.0,0.0,0.0,0.0,0.0,0.0,0.0,0.0,0.0,0.0,0.0,0.0,0.0,0.0,0.0,0.0,0.0,0.0,0.0,0.0,0.0,0.0,0.0,0.0,0.0,0.0,0.0,0.0,0.0,0.0,0.0,0.0,0.0,0.0,0.0,0.0,0.0,0.0,0.0,0.0,0.0,0.0,0.0,0.0,0.0,0.0,0.0,0.0,0.0,0.0,0.0,0.0,0.0,0.0,0.0,0.0,0.0,0.0,-0.0997,-0.0911,-0.0819,-0.0676,-0.04,0.0,0.0,0.0,0.0,0.0,0.0,0.0,0.0,0.0,0.0,0.0,0.0,0.0,0.0,0.0,0.0,0.0,0.0,0.0,0.0,0.0,0.0,0.0,0.0,0.0,0.0,0.0,0.0,0.0,0.0,0.0,0.0,0.0,0.0,0.0,0.0,0.0,0.0,0.0,0.0,0.0,0.0,0.0,0.0,0.0,0.0,0.0,0.0,0.0,0.0,0.0,0.0,0.0,0.0,0.0,0.0,0.0,0.0,0.0,0.0,0.0,0.0,0.0,0.0,0.0,0.0,0.0,0.0,0.0,0.0,0.0,0.0,0.0,0.0,0.0,0.0,0.0,0.0,0.0,0.0,0.0,0.0,0.0,0.0,0.0,0.0,0.0,0.0,0.0,0.0,0.0,0.0,0.0,0.0,0.0,0.0,0.0,0.0,0.0,0.0,0.0,0.0,0.0,0.0,0.0,0.0,0.0,0.0,0.0,0.0,0.0,0.0,-0.0793,-0.0519,-0.0074,0.0,0.0,0.0,0.0,0.0,0.0,0.0,0.0,0.0,0.0,0.0,0.0,0.0,0.0,0.0,0.0,0.0,0.0,0.0,0.0,0.0,0.0,0.0,0.0,0.0,0.0,0.0,0.0,0.0,0.0,0.0,0.0,0.0,0.0,0.0,0.0,0.0,0.0,0.0,0.0,0.0,0.0,0.0,0.0,0.0,0.0,0.0,0.0,0.0,0.0,0.0,0.0,0.0,0.0,0.0,0.0,0.0,0.0,0.0,0.0,0.0,0.0,0.0,0.0,0.0,0.0,0.0,0.0,0.0,0.0,0.0,0.0,0.0,0.0,0.0,0.0,0.0,0.0,0.0,0.0,0.0,0.0,0.0,0.0,0.0,0.0,0.0,0.0,0.0,0.0,0.0,0.0,0.0,0.0,0.0,0.0,0.0,0.0,0.0,0.0,0.0,0.0,0.0,0.0,0.0,0.0,0.0,0.0,0.0,0.0,-0.1024,-0.0878,-0.05,0.0,0.0235,0.0,0.0,0.0,0.0,0.0,0.0,0.0,0.0,0.0,0.0,0.0,0.0,0.0,0.0,0.0,0.0,0.0,0.0,0.0,0.0,0.0,0.0,0.0,0.0,0.0,0.0,0.0,0.0,0.0,0.0,0.0,0.0,0.0,0.0,0.0,0.0,0.0,0.0,0.0,0.0,0.0,0.0,0.0,0.0,0.0,0.0,0.0,0.0,0.0,0.0,0.0,0.0,0.0,0.0,0.0,0.0,0.0,0.0,0.0,0.0,0.0,0.0,0.0,0.0,0.0,0.0,0.0,0.0,0.0,0.0,0.0,0.0,0.0,0.0,0.0,0.0,0.0,0.0,0.0,0.0,0.0,0.0,0.0,0.0,0.0,0.0,0.0,0.0,0.0,0.0,0.0,0.0,0.0,0.0,0.0,0.0,0.0,0.0,0.0,0.0,0.0,0.0,0.0,0.0,0.0,0.0,0.0,0.0,0.0,0.0,-0.0984,-0.0929,-0.0379,0.0041,0.0,0.0,0.0,0.0,0.0,0.0,0.0,0.0,0.0,0.0,0.0,0.0,0.0,0.0,0.0,0.0,0.0,0.0,0.0,0.0,0.0,0.0,0.0,0.0,0.0,0.0,0.0,0.0,0.0,0.0,0.0,0.0,0.0,0.0,0.0,0.0,0.0,0.0,0.0,0.0,0.0,0.0,0.0,0.0,0.0,0.0,0.0,0.0,0.0,0.0,0.0,0.0,0.0,0.0,0.0,0.0,0.0,0.0,0.0,0.0,0.0,0.0,0.0,0.0,0.0,0.0,0.0,0.0,0.0,0.0,0.0,0.0,0.0,0.0,0.0,0.0,0.0,0.0,0.0,0.0,0.0,0.0,0.0,0.0,0.0,0.0,0.0,0.0,0.0,0.0,0.0,0.0,0.0,0.0,0.0,0.0,0.0,0.0,0.0,0.0,0.0,0.0,0.0,0.0,0.0,0.0,0.0,0.0,0.0,0.0,-0.1233,-0.0982,-0.0642,-0.0219,0.0133,0.0396,0.0,0.0,0.0,0.0,0.0,0.0,0.0,0.0,0.0,0.0,0.0,0.0,0.0,0.0,0.0,0.0,0.0,0.0,0.0,0.0,0.0,0.0,0.0,0.0,0.0,0.0,0.0,0.0,0.0,0.0,0.0,0.0,0.0,0.0,0.0,0.0,0.0,0.0,0.0,0.0,0.0,0.0,0.0,0.0,0.0,0.0,0.0,0.0,0.0,0.0,0.0,0.0,0.0,0.0,0.0,0.0,0.0,0.0,0.0,0.0,0.0,0.0,0.0,0.0,0.0,0.0,0.0,0.0,0.0,0.0,0.0,0.0,0.0,0.0,0.0,0.0,0.0,0.0,0.0,0.0,0.0,0.0,0.0,0.0,0.0,0.0,0.0,0.0,0.0,0.0,0.0,0.0,0.0,0.0,0.0,0.0,0.0,0.0,0.0,0.0,0.0,0.0,0.0,0.0,0.0,0.0,0.0,0.0,-0.1609,-0.1503,-0.0984,0.0,-0.0048,0.0095,0.0,0.0,0.0,0.0,0.0,0.0,0.0,0.0,0.0,0.0,0.0,0.0,0.0,0.0,0.0,0.0,0.0,0.0,0.0,0.0,0.0,0.0,0.0,0.0,0.0,0.0,0.0,0.0,0.0,0.0,0.0,0.0,0.0,0.0,0.0,0.0,0.0,0.0,0.0,0.0,0.0,0.0,0.0,0.0,0.0,0.0,0.0,0.0,0.0,0.0,0.0,0.0,0.0,0.0,0.0,0.0,0.0,0.0,0.0,0.0,0.0,0.0,0.0,0.0,0.0,0.0,0.0,0.0,0.0,0.0,0.0,0.0,0.0,0.0,0.0,0.0,0.0,0.0,0.0,0.0,0.0,0.0,0.0,0.0,0.0,0.0,0.0,0.0,0.0,0.0,0.0,0.0,0.0,0.0,0.0,0.0,0.0,0.0,0.0,0.0,0.0,0.0,0.0,0.0,0.0,0.0,0.0,0.0,0.0,-0.1791,-0.1372,-0.081,-0.0155,-0.025,-0.0193,0.0,0.0,0.0,0.0,0.0,0.0,0.0,0.0,0.0,0.0,0.0,0.0,0.0,0.0,0.0,0.0,0.0,0.0,0.0,0.0,0.0,0.0,0.0,0.0,0.0,0.0,0.0,0.0,0.0,0.0,0.0,0.0,0.0,0.0,0.0,0.0,0.0,0.0,0.0,0.0,0.0,0.0,0.0,0.0,0.0,0.0,0.0,0.0,0.0,0.0,0.0,0.0,0.0,0.0,0.0,0.0,0.0,0.0,0.0,0.0,0.0,0.0,0.0,0.0,0.0,0.0,0.0,0.0,0.0,0.0,0.0,0.0,0.0,0.0,0.0,0.0,0.0,0.0,0.0,0.0,0.0,0.0,0.0,0.0,0.0,0.0,0.0,0.0,0.0,0.0,0.0,0.0,0.0,0.0,0.0,0.0,0.0,0.0,0.0,0.0,0.0,0.0,0.0,0.0,0.0,0.0,0.0,0.0,0.0,-0.1783,0.0,-0.066,-0.0265,-0.0352,-0.0242,0.0,0.0,0.0,0.0,0.0,0.0,0.0,0.0,0.0,0.0,0.0,0.0,0.0,0.0,0.0,0.0,0.0,0.0,0.0,0.0,0.0,0.0,0.0,0.0,0.0,0.0,0.0,0.0,0.0,0.0,0.0,0.0,0.0,0.0,0.0,0.0,0.0,0.0,0.0,0.0,0.0,0.0,0.0,0.0,0.0,0.0,0.0,0.0,0.0,0.0,0.0,0.0,0.0,0.0,0.0,0.0,0.0,0.0,0.0,0.0,0.0,0.0,0.0,0.0,0.0,0.0,0.0,0.0,0.0,0.0,0.0,0.0,0.0,0.0,0.0,0.0,0.0,0.0,0.0,0.0,0.0,0.0,0.0,0.0,0.0,0.0,0.0,0.0,0.0,0.0,0.0,0.0,0.0,0.0,0.0,0.0,0.0,0.0,0.0,0.0,0.0,0.0,0.0,0.0,0.0,0.0,0.0,0.0,-0.2272,-0.159,-0.1062,-0.0671,-0.0386,-0.0199,0.0048,0.0,0.0,0.0,0.0,0.0,0.0,0.0,0.0,0.0,0.0,0.0,0.0,0.0,0.0,0.0,0.0,0.0,0.0,0.0,0.0,0.0,0.0,0.0,0.0,0.0,0.0,0.0,0.0,0.0,0.0,0.0,0.0,0.0,0.0,0.0,0.0,0.0,0.0,0.0,0.0,0.0,0.0,0.0,0.0,0.0,0.0,0.0,0.0,0.0,0.0,0.0,0.0,0.0,0.0,0.0,0.0,0.0,0.0,0.0,0.0,0.0,0.0,0.0,0.0,0.0,0.0,0.0,0.0,0.0,0.0,0.0,0.0,0.0,0.0,0.0,0.0,0.0,0.0,0.0,0.0,0.0,0.0,0.0,0.0,0.0,0.0,0.0,0.0,0.0,0.0,0.0,0.0,0.0,0.0,0.0,0.0,0.0,0.0,0.0,0.0,0.0,0.0,0.0,0.0,0.0,0.0,0.0,0.0,0.0,-0.1598,-0.0799,-0.016,0.0267,0.0317,0.0408,0.0,0.0,0.0,0.0,0.0,0.0,0.0,0.0,0.0,0.0,0.0,0.0,0.0,0.0,0.0,0.0,0.0,0.0,0.0,0.0,0.0,0.0,0.0,0.0,0.0,0.0,0.0,0.0,0.0,0.0,0.0,0.0,0.0,0.0,0.0,0.0,0.0,0.0,0.0,0.0,0.0,0.0,0.0,0.0,0.0,0.0,0.0,0.0,0.0,0.0,0.0,0.0,0.0,0.0,0.0,0.0,0.0,0.0,0.0,0.0,0.0,0.0,0.0,0.0,0.0,0.0,0.0,0.0,0.0,0.0,0.0,0.0,0.0,0.0,0.0,0.0,0.0,0.0,0.0,0.0,0.0,0.0,0.0,0.0,0.0,0.0,0.0,0.0,0.0,0.0,0.0,0.0,0.0,0.0,0.0,0.0,0.0,0.0,0.0,0.0,0.0,0.0,0.0,0.0,0.0,0.0,0.0,0.0,0.0,-0.072,-0.0166,0.0222,0.0505,0.0824,0.1002,0.1039,0.0,0.0,0.0,0.0,0.0,0.0,0.0,0.0,0.0,0.0,0.0,0.0,0.0,0.0,0.0,0.0,0.0,0.0,0.0,0.0,0.0,0.0,0.0,0.0,0.0,0.0,0.0,0.0,0.0,0.0,0.0,0.0,0.0,0.0,0.0,0.0,0.0,0.0,0.0,0.0,0.0,0.0,0.0,0.0,0.0,0.0,0.0,0.0,0.0,0.0,0.0,0.0,0.0,0.0,0.0,0.0,0.0,0.0,0.0,0.0,0.0,0.0,0.0,0.0,0.0,0.0,0.0,0.0,0.0,0.0,0.0,0.0,0.0,0.0,0.0,0.0,0.0,0.0,0.0,0.0,0.0,0.0,0.0,0.0,0.0,0.0,0.0,0.0,0.0,0.0,0.0,0.0,0.0,0.0,0.0,0.0,0.0,0.0,0.0,0.0,0.0,0.0,0.0,0.0,0.0,0.0,0.0,0.0,0.077,0.0772,0.0701,0.0565,0.141,0.1828,0.0,0.0,0.0,0.0,0.0,0.0,0.0,0.0,0.0,0.0,0.0,0.0,0.0,0.0,0.0,0.0,0.0,0.0,0.0,0.0,0.0,0.0,0.0,0.0,0.0,0.0,0.0,0.0,0.0,0.0,0.0,0.0,0.0,0.0,0.0,0.0,0.0,0.0,0.0,0.0,0.0,0.0,0.0,0.0,0.0,0.0,0.0,0.0,0.0,0.0,0.0,0.0,0.0,0.0,0.0,0.0,0.0,0.0,0.0,0.0,0.0,0.0,0.0,0.0,0.0,0.0,0.0,0.0,0.0,0.0,0.0,0.0,0.0,0.0,0.0,0.0,0.0,0.0,0.0,0.0,0.0,0.0,0.0,0.0,0.0,0.0,0.0,0.0,0.0,0.0,0.0,0.0,0.0,0.0,0.0,0.0,0.0,0.0,0.0,0.0,0.0,0.0,0.0,0.0,0.0,0.0,0.0,0.0,0.0,0.0943,0.1867,0.2353,0.2354,0.2296,0.2384,0.0,0.0,0.0,0.0,0.0,0.0,0.0,0.0,0.0,0.0,0.0,0.0,0.0,0.0,0.0,0.0,0.0,0.0,0.0,0.0,0.0,0.0,0.0,0.0,0.0,0.0,0.0,0.0,0.0,0.0,0.0,0.0,0.0,0.0,0.0,0.0,0.0,0.0,0.0,0.0,0.0,0.0,0.0,0.0,0.0,0.0,0.0,0.0,0.0,0.0,0.0,0.0,0.0,0.0,0.0,0.0,0.0,0.0,0.0,0.0,0.0,0.0,0.0,0.0,0.0,0.0,0.0,0.0,0.0,0.0,0.0,0.0,0.0,0.0,0.0,0.0,0.0,0.0,0.0,0.0,0.0,0.0,0.0,0.0,0.0,0.0,0.0,0.0,0.0,0.0,0.0,0.0,0.0,0.0,0.0,0.0,0.0,0.0,0.0,0.0,0.0,0.0,0.0,0.0,0.0,0.0,0.0,0.0,0.1238,0.1441,0.2565,0.3171,0.3199,0.2851,0.2773,0.0,0.0,0.0,0.0,0.0,0.0,0.0,0.0,0.0,0.0,0.0,0.0,0.0,0.0,0.0,0.0,0.0,0.0,0.0,0.0,0.0,0.0,0.0,0.0,0.0,0.0,0.0,0.0,0.0,0.0,0.0,0.0,0.0,0.0,0.0,0.0,0.0,0.0,0.0,0.0,0.0,0.0,0.0,0.0,0.0,0.0,0.0,0.0,0.0,0.0,0.0,0.0,0.0,0.0,0.0,0.0,0.0,0.0,0.0,0.0,0.0,0.0,0.0,0.0,0.0,0.0,0.0,0.0,0.0,0.0,0.0,0.0,0.0,0.0,0.0,0.0,0.0,0.0,0.0,0.0,0.0,0.0,0.0,0.0,0.0,0.0,0.0,0.0,0.0,0.0,0.0,0.0,0.0,0.0,0.0,0.0,0.0,0.0,0.0,0.0,0.0,0.0,0.0,0.0,0.0,0.0,0.0,0.0,0.1528,0.2025,0.2991,0.3457,0.3445,0.3201,0.3054,0.0,0.0,0.0,0.0,0.0,0.0,0.0,0.0,0.0,0.0,0.0,0.0,0.0,0.0,0.0,0.0,0.0,0.0,0.0,0.0,0.0,0.0,0.0,0.0,0.0,0.0,0.0,0.0,0.0,0.0,0.0,0.0,0.0,0.0,0.0,0.0,0.0,0.0,0.0,0.0,0.0,0.0,0.0,0.0,0.0,0.0,0.0,0.0,0.0,0.0,0.0,0.0,0.0,0.0,0.0,0.0,0.0,0.0,0.0,0.0,0.0,0.0,0.0,0.0,0.0,0.0,0.0,0.0,0.0,0.0,0.0,0.0,0.0,0.0,0.0,0.0,0.0,0.0,0.0,0.0,0.0,0.0,0.0,0.0,0.0,0.0,0.0,0.0,0.0,0.0,0.0,0.0,0.0,0.0,0.0,0.0,0.0,0.0,0.0,0.0,0.0,0.0,0.0,0.0,0.0,0.0,0.0,0.0,0.197,0.2289,0.327,0.3832,0.3972,0.371,0.368,0.0,0.0,0.0,0.0,0.0,0.0,0.0,0.0,0.0,0.0,0.0,0.0,0.0,0.0,0.0,0.0,0.0,0.0,0.0,0.0,0.0,0.0,0.0,0.0,0.0,0.0,0.0,0.0,0.0,0.0,0.0,0.0,0.0,0.0,0.0,0.0,0.0,0.0,0.0,0.0,0.0,0.0,0.0,0.0,0.0,0.0,0.0,0.0,-0.0179,0.0,0.0,0.0,0.0,0.0,0.0,0.0,0.0,0.0,0.0,0.0,0.0,0.0,0.0,0.0,0.0,0.0,0.0,0.0,0.0,0.0,0.0,0.0,0.0,0.0,0.0,0.0,0.0,0.0,0.0,0.0,0.0,0.0,0.0,0.0,0.0,0.0,0.0,0.0,0.0,0.0,0.0,0.0,0.0,0.0,0.0,0.0,0.0,0.0,0.0,0.0,0.0,0.0,0.0,0.0,0.0,0.0,0.0,0.0,0.2567,0.3136,0.3782,0.4182,0.429,0.4409,0.4367,0.0,0.0,0.0,0.0,0.0,0.0,0.0,0.0,0.0,0.0,0.0,0.0,0.0,0.0,0.0,0.0,0.0,0.0,0.0,0.0,0.0,0.0,0.0,0.0,0.0,0.0,0.0,0.0,0.0,0.0,0.0,0.0,0.0,0.0,0.0,0.0,0.0,0.0,0.0,0.0,0.0,0.0,0.0,0.0,0.0,0.0,0.0,0.0,0.0,0.0,0.0,0.0,0.0,0.0,0.0,0.0,0.0,0.0,0.0,0.0,0.0,0.0,0.0,0.0,0.0,0.0,0.0,0.0,0.0,0.0,0.0,0.0,0.0,0.0,0.0,0.0,0.0,0.0,0.0,0.0,0.0,0.0,0.0,0.0,0.0,0.0,0.0,0.0,0.0,0.0,0.0,0.0,0.0,0.0,0.0,0.0,0.0,0.0,0.0,0.0,0.0,0.0,0.0,0.0,0.0,0.0,0.0,0.1904,0.2986,0.4028,0.4266,0.4479,0.4654,0.5023,0.4967,0.4497,0.0,0.0,0.0,0.0,0.0,0.0,0.0,0.0,0.0,0.0,0.0,0.0,0.0,0.0,0.0,0.0,0.0,0.0,0.0,0.0,0.0,0.0,0.0,0.0,0.0,0.0,0.0,0.0,0.0,0.0,0.0,0.0,0.0,0.0,0.0,0.0,0.0,0.0,-0.3123,-0.2603,0.0,0.0,0.0,0.0,0.0,0.0,0.0,0.0,0.113,0.0,0.0,0.0,0.0,0.0,0.0,0.0,0.0,0.0,0.0,0.0,0.0,0.0,0.0,0.0,0.0,0.0,0.0,0.0,0.0,0.0,0.0,0.0,0.0,0.0,0.0,0.0,0.0,0.0,0.0,0.0,0.0,0.0,0.0,0.0,0.0,0.0,0.0,0.0,0.0,0.0,0.0,0.0,0.0,0.0,0.0,0.0,0.0,0.0,0.0,0.0,0.0,0.0,0.0,0.0,0.0,0.3206,0.2707,0.3068,0.4433,0.445,0.4696,0.5087,0.531,0.5372,0.5247,0.0,0.0,0.0,0.0,0.0,0.0,0.0,0.0,0.0,0.0,0.0,0.0,0.0,0.0,0.0,0.0,0.0,0.0,0.0,0.0,0.0,0.0,0.0,0.0,0.0,0.0,0.0,0.0,0.0,0.0,0.0,0.0,0.0,0.0,0.0,0.0,0.0,0.0,0.0,-0.3175,-0.2621,0.0,0.0,0.0,0.0,0.0,0.0,0.0,0.0,0.1164,0.0,0.0,0.0,0.0,0.0,0.0,0.0,0.0,0.0,0.0,0.0,0.0,0.0,0.0,0.0,0.0,0.0,0.0,0.0,0.0,0.0,0.0,0.0,0.0,0.0,0.0,0.0,0.0,0.0,0.0,0.0,0.0,0.0,0.0,0.0,0.0,0.0,0.0,0.0,0.0,0.0,0.0,0.0,0.0,0.0,0.0,0.0,0.0,0.0,0.0,0.0,0.0,0.0,0.0,0.0,0.2713,0.2931,0.3426,0.4296,0.4667,0.5041,0.5339,0.5545,0.5687,0.0,0.0,0.0,0.0,0.0,0.0,0.0,0.0,0.0,0.0,0.0,0.0,0.0,0.0,0.0,0.0,0.0,0.0,0.0,0.0,0.0,0.0,0.0,0.0,0.0,0.0,0.0,0.0,0.0,0.0,0.0,0.0,0.0,0.0,0.0,0.0,0.0,0.0,0.0,0.0,-0.3494,-0.2911,-0.2159,0.0,0.0,0.0,0.0,0.0,0.0,0.135,0.1547,0.0,0.0,0.0,0.0,0.0,0.0,0.0,0.0,0.0,0.0,0.0,0.0,0.0,0.0,0.0,0.0,0.0,0.0,0.0,0.0,0.0,0.0,0.0,0.0,0.0,0.0,0.0,0.0,0.0,0.0,0.0,0.0,0.0,0.0,0.0,0.0,0.0,0.0,0.0,0.0,0.0,0.0,0.0,0.0,0.0,0.0,0.0,0.0,0.0,0.0,0.0,0.0,0.0,0.0,0.0,0.2064,0.3067,0.3761,0.4143,0.4842,0.5277,0.5517,0.5673,0.5905,0.0,0.0,0.0,0.0,0.0,0.0,0.0,0.0,0.0,0.0,0.0,0.0,0.0,0.0,0.0,0.0,0.0,0.0,0.0,0.0,0.0,0.0,0.0,0.0,0.0,0.0,0.0,0.0,0.0,0.0,0.0,0.0,0.0,0.0,0.0,0.0,0.0,0.0,0.0,0.0,0.0,-0.3008,-0.2087,-0.0577,0.0,0.0,0.0,0.0,0.1255,0.1724,0.0,0.0,0.0,0.0,0.0,0.0,0.0,0.0,0.0,0.0,0.0,0.0,0.0,0.0,0.0,0.0,0.0,0.0,0.0,0.0,0.0,0.0,0.0,0.0,0.0,0.0,0.0,0.0,0.0,0.0,0.0,0.0,0.0,0.0,0.0,0.0,0.0,0.0,0.0,0.0,0.0,0.0,0.0,0.0,0.0,0.0,0.0,0.0,0.0,0.0,0.0,0.0,0.0,0.0,0.0,0.0,0.2647,0.361,0.4184,0.4285,0.4759,0.5177,0.5513,0.5567,0.584,0.0,0.0,0.0,0.0,0.0,0.0,0.0,0.0,0.0,0.0,0.0,0.0,0.0,0.0,0.0,0.0,0.0,0.0,0.0,0.0,0.0,0.0,0.0,0.0,0.0,0.0,0.0,0.0,0.0,0.0,0.0,0.0,0.0,0.0,0.0,0.0,0.0,0.0,0.0,0.0,0.0,-0.3224,-0.153,-0.0054,0.0835,0.0,0.0,0.1752,0.1795,0.2043,0.0,0.0,0.0,0.0,0.0,0.0,0.0,0.0,0.0,0.0,0.0,0.0,0.0,0.0,0.0,0.0,0.0,0.0,0.0,0.0,0.0,0.0,0.0,0.0,0.0,0.0,0.0,0.0,0.0,0.0,0.0,0.0,0.0,0.0,0.0,0.0,0.0,0.0,0.0,0.0,0.0,0.0,0.0,0.0,0.0,0.0,0.0,0.0,0.0,0.0,0.0,0.0,0.0,0.0,0.0,0.2632,0.3296,0.3491,0.3949,0.4545,0.4983,0.5389,0.5727,0.5799,0.61,0.0,0.0,0.0,0.0,0.0,0.0,0.0,0.0,0.0,0.0,0.0,0.0,0.0,0.0,0.0,0.0,0.0,0.0,0.0,0.0,0.0,0.0,0.0,0.0,0.0,0.0,0.0,0.0,0.0,0.0,0.0,0.0,0.0,0.0,0.0,0.0,0.0,0.0,0.0,0.0,0.0,0.0,-0.1206,0.0344,0.0,0.0,0.0,0.2089,0.2207,0.0,0.0,0.0,0.0,0.0,0.0,0.0,0.0,0.0,0.0,0.0,0.0,0.0,0.0,0.0,0.0,0.0,0.0,0.0,0.0,0.0,0.0,0.0,0.0,0.0,0.0,0.0,0.0,0.0,0.0,0.0,0.0,0.0,0.0,0.0,0.0,0.0,0.0,0.0,0.0,0.0,0.0,0.0,0.0,0.0,0.0,0.0,0.0,0.0,0.0,0.0,0.0,0.0,0.0,0.0,0.0,0.0,0.3618,0.3604,0.4044,0.4815,0.544,0.5791,0.6015,0.6136,0.0,0.0,0.0,0.0,0.0,0.0,0.0,0.0,0.0,0.0,0.0,0.0,0.0,0.0,0.0,0.0,0.0,0.0,0.0,0.0,0.0,0.0,0.0,0.0,0.0,0.0,0.0,-0.3738,0.0,0.0,0.0,0.0,0.0,0.0,0.0,0.0,0.0,0.0,0.0,0.0,0.0,0.0,-0.2634,-0.0919,0.0538,0.1394,0.0,0.0,0.2256,0.241,0.2546,0.2613,0.0,0.0,0.0,0.0,0.0,0.0,0.0,0.0,0.0,0.0,0.0,0.0,0.0,0.0,0.0,0.0,0.0,0.0,0.0,0.0,0.0,0.0,0.0,0.0,0.0,0.0,0.0,0.0,0.0,0.0,0.0,0.0,0.0,0.0,0.0,0.0,0.0,0.0,0.0,0.0,0.0,0.0,0.0,0.0,0.0,0.0,0.0,0.0,0.0,0.0,0.0,0.0,0.0,0.0,0.0,0.3221,0.4211,0.4882,0.5382,0.6198,0.655,0.6462,0.6452,0.6604,0.0,0.0,0.0,0.0,0.0,0.0,0.0,0.0,0.0,0.0,0.0,0.0,0.0,0.0,0.0,0.0,0.0,0.0,0.0,0.0,0.0,0.0,0.0,0.0,0.0,0.0,0.0,0.0,0.0,0.0,0.0,0.0,0.0,0.0,0.0,0.0,0.0,0.0,0.0,0.0,0.0,-0.1961,-0.0854,0.043,0.1406,0.0,0.0,0.2308,0.2286,0.2543,0.2706,0.264,0.0,0.0,0.0,0.0,0.0,0.0,0.0,0.0,0.0,0.0,0.0,0.0,0.0,0.0,0.0,0.0,0.0,0.0,0.0,0.0,0.0,0.0,0.0,0.0,0.0,0.0,0.0,0.0,0.0,0.0,0.0,0.0,0.0,0.0,0.0,0.0,0.0,0.0,0.0,0.0,0.0,0.0,0.0,0.0,0.0,0.0,0.0,0.0,0.0,0.0,0.0,0.0,0.0,0.3095,0.4301,0.473,0.5341,0.6205,0.6627,0.6814,0.6731,0.6733,0.6706,0.0,0.0,0.0,0.0,0.0,0.0,0.0,0.0,0.0,0.0,0.0,0.0,0.0,0.0,0.0,0.0,0.0,0.0,0.0,0.0,0.0,0.0,0.0,0.0,0.0,0.0,0.0,0.0,-0.3569,-0.3219,-0.2978,0.0,0.0,0.0,0.0,0.0,0.0,0.0,0.0,0.0,0.0,-0.0999,-0.0695,0.0643,0.0,0.0,0.219,0.2576,0.2697,0.2819,0.287,0.2715,0.2726,0.0,0.0,0.0,0.0,0.0,0.0,0.0,0.0,0.0,0.0,0.0,0.0,0.0,0.0,0.0,0.0,0.0,0.0,0.0,0.0,0.0,0.0,0.0,0.0,0.0,0.0,0.0,0.0,0.0,0.0,0.0,0.0,0.0,0.0,0.0,0.0,0.0,0.0,0.0,0.0,0.0,0.0,0.0,0.0,0.0,0.0,0.0,0.0,0.0,0.0,0.0,0.0,0.3668,0.4898,0.5227,0.5923,0.6941,0.7296,0.7341,0.7118,0.7039,0.6818,0.0,0.0,0.0,0.0,0.0,0.0,0.0,0.0,0.0,0.0,0.0,0.0,0.0,0.0,0.0,0.0,0.0,0.0,0.0,0.0,0.0,0.0,0.0,0.0,0.0,0.0,0.0,0.0,-0.3665,-0.3323,-0.3216,0.0,0.0,0.0,0.0,0.0,0.0,0.0,0.0,0.0,0.0,-0.0516,-0.0391,0.073,0.1674,0.1912,0.2329,0.2698,0.2933,0.2994,0.3002,0.2808,0.0,0.0,0.0,0.0,0.0,0.0,0.0,0.0,0.0,0.0,0.0,0.0,0.0,0.0,0.0,0.0,0.0,0.0,0.0,0.0,0.0,0.0,0.0,0.0,0.0,0.0,0.0,0.619,0.0,0.0,0.5667,0.0,0.0,0.0,0.0,0.0,0.0,0.0,0.0,0.0,0.0,0.0,0.0,0.0,0.0,0.0,0.0,0.0,0.0,0.0,0.0,0.0,0.0,0.3899,0.466,0.5637,0.6653,0.7565,0.8059,0.8102,0.7528,0.7309,0.7012,0.6616,0.0,0.0,0.0,0.0,0.0,0.0,0.0,0.0,0.0,0.0,0.0,0.0,0.0,0.0,0.0,0.0,0.0,0.0,0.0,0.0,0.0,0.0,0.0,0.0,0.0,0.0,-0.4065,-0.3618,-0.3265,0.0,0.0,0.0,0.0,0.0,0.0,0.0,0.0,0.0,0.0,-0.1391,-0.0651,0.0267,0.0806,0.1428,0.2109,0.2339,0.252,0.274,0.2953,0.2954,0.0,0.0,0.0,0.0,0.0,0.0,0.0,0.0,0.0,0.0,0.0,0.0,0.0,0.0,0.0,0.0,0.0,0.0,0.0,0.0,0.0,0.0,0.0,0.0,0.0,0.0,0.0,0.6738,0.6665,0.0,0.0,0.0,0.0,0.0,0.0,0.0,0.0,0.0,0.0,0.0,0.572,0.5716,0.0,0.0,0.0,0.0,0.0,0.0,0.0,0.0,0.0,0.0,0.0,0.0,0.453,0.5627,0.662,0.7522,0.828,0.8675,0.8556,0.7925,0.7714,0.7353,0.675,0.0,0.0,0.0,0.0,0.0,0.0,0.0,0.0,0.0,0.0,0.0,0.0,0.0,0.0,0.0,0.0,0.0,0.0,0.0,0.0,0.0,0.0,0.0,0.0,0.0,-0.4466,0.0,0.0,0.0,0.0,0.0,0.0,0.0,0.0,0.0,0.0,0.0,-0.1943,-0.1965,-0.1042,0.0066,0.1074,0.1412,0.1825,0.0,0.0,0.0,0.0,0.0,0.0,0.0,0.0,0.0,0.0,0.0,0.0,0.0,0.0,-0.2242,-0.2249,-0.2127,-0.2293,-0.3289,0.0,0.0,0.0,0.0,0.0,0.0,0.0,0.0,0.0,0.0,0.0,0.0,0.0,0.0,0.7775,0.0,0.7751,0.0,0.0,0.0,0.0,0.0,0.0,0.0,0.0,0.6271,0.6595,0.691,0.691,0.7074,0.0,0.7265,0.673,0.0,0.0,0.0,0.0,0.0,0.0,0.0,0.0,0.5042,0.6286,0.7144,0.7983,0.8685,0.8865,0.8659,0.8089,0.7677,0.7311,0.6847,0.6108,0.5818,0.0,0.0,0.0,0.0,0.0,0.0,0.0,0.0,0.0,0.0,0.0,0.0,0.0,0.0,0.0,0.0,0.0,0.0,0.0,0.0,0.0,0.0,0.0,-0.4257,0.0,0.0,0.0,0.0,0.0,0.0,0.0,0.0,0.0,-0.2807,-0.2288,-0.1908,-0.1672,-0.0726,0.0403,0.1479,0.0,0.0,0.0,0.0,0.0,0.0,0.0,0.3092,0.2889,0.2517,0.1565,-0.0323,-0.0888,-0.1175,-0.1545,0.0,0.0,-0.2593,-0.2573,-0.2903,-0.3956,-0.4087,-0.4884,-0.7699,-1.0036,-1.1943,0.0,0.0,0.0,0.0,0.0,0.0,0.0,0.0,0.8723,0.9053,0.0,0.9185,0.0,0.0,0.0,0.0,0.6723,0.7085,0.0,0.0,0.7312,0.7653,0.8175,0.8117,0.8231,0.8503,0.8362,0.8146,0.7845,0.626,0.0,0.0,0.0,0.0,0.0,0.0,0.544,0.6531,0.7265,0.7965,0.8694,0.8699,0.851,0.817,0.7386,0.6949,0.6921,0.684,0.6626,0.6073,0.5658,0.0,0.0,0.0,0.0,0.0,0.0,0.0,0.0,0.0,0.0,0.0,0.0,0.0,0.0,0.0,0.0,0.0,0.0,0.0,0.0,-0.4024,0.0,0.0,0.0,0.0,0.0,0.0,0.0,0.0,0.0,0.0,-0.316,-0.2539,-0.1875,-0.1094,0.0,0.0,0.0,0.0,0.1771,0.2169,0.247,0.272,0.2792,0.2946,0.2961,0.2894,0.0,0.0,0.026,-0.0516,-0.1014,-0.1016,-0.1718,-0.2454,-0.2893,-0.3309,-0.3799,-0.4425,-0.5575,-0.6995,-0.8676,-1.102,-1.3366,1.4618,0.0,0.0,0.0,0.0,0.9907,0.9887,1.0262,1.0123,0.9926,0.981,0.9732,0.0,0.0,0.0,0.0,0.0,0.0,0.8387,0.8147,0.856,0.8843,0.8976,0.9104,0.9157,0.9304,0.9216,0.8943,0.8428,0.7756,0.7003,0.6154,0.0,0.0,0.0,0.0,0.6475,0.726,0.7992,0.8718,0.9311,0.9165,0.8951,0.8529,0.799,0.7548,0.7131,0.6858,0.6693,0.6639,0.562,0.0,0.0,0.0,0.0,0.0,0.0,0.0,0.0,0.0,0.0,0.0,0.0,0.0,0.0,0.0,0.0,0.0,0.0,0.0,-0.3907,-0.394,-0.3957,0.0,0.0,0.0,0.0,0.0,0.0,0.0,0.0,0.0,-0.3661,-0.2754,-0.1656,0.0,0.0,0.0558,0.2063,0.1995,0.1997,0.2446,0.2719,0.0,0.2877,0.2889,0.2839,0.2633,0.2251,0.1677,0.0599,-0.0,-0.046,-0.095,-0.1635,-0.2304,-0.2899,-0.3405,-0.4147,-0.5274,-0.6442,-0.7913,-0.9904,-1.225,-1.434,1.683,1.4681,1.3322,1.2424,1.1978,1.1479,1.1369,1.1501,1.137,1.1243,1.1107,1.0684,1.0351,0.9987,0.9631,0.0,0.0,0.0,0.9724,0.9491,0.9852,1.0103,1.0211,1.029,1.0393,1.0358,1.0296,0.9952,0.9406,0.8887,0.8317,0.7574,0.0,0.0,0.5957,0.652,0.7068,0.7565,0.8324,0.8881,0.9316,0.9246,0.903,0.8827,0.8394,0.791,0.745,0.7113,0.6914,0.6907,0.5828,0.5154,0.0,0.0,0.0,0.0,0.0,0.0,0.0,0.0,0.0,0.0,0.0,-0.3852,-0.4021,0.0,0.0,0.0,-0.3931,-0.3874,-0.3815,-0.3886,0.0,0.0,0.0,0.0,0.0,0.0,0.0,-0.4492,-0.3964,-0.3616,-0.3485,-0.2284,-0.1081,-0.0069,0.0278,0.0846,0.1935,0.0,0.1966,0.2405,0.2623,0.2767,0.2696,0.2662,0.2482,0.2248,0.2194,0.1885,0.0941,0.0336,-0.0266,-0.0976,-0.1549,-0.2116,-0.2898,-0.361,-0.4503,-0.5918,-0.7089,-0.8584,-1.0707,-1.3246,-1.5372,1.9104,1.8279,1.6054,1.4593,1.3691,1.3331,1.3013,1.2764,1.2692,1.2827,1.2917,1.2025,1.1621,1.1485,1.0847,0.0,1.0459,1.0792,1.0988,1.1033,1.1109,1.136,1.1594,1.157,1.1532,1.1528,1.1278,1.0983,1.0438,0.9764,0.9252,0.8983,0.7677,0.6937,0.6775,0.7142,0.7512,0.7673,0.8374,0.878,0.9022,0.9022,0.9022,0.9018,0.8459,0.8038,0.7833,0.7498,0.7166,0.6915,0.609,0.5487,0.5212,0.0,0.0,0.0,0.0,0.0,0.0,0.0,0.0,0.0,0.0,0.0,0.0,0.0,0.0,0.0,-0.3873,0.0,-0.3812,-0.3831,0.0,0.0,0.0,-0.4449,-0.4433,-0.4684,-0.458,-0.387,0.0,0.0,-0.2827,-0.1479,-0.0336,0.0067,0.069,0.1267,0.1698,0.1739,0.1835,0.2282,0.2495,0.2494,0.236,0.2276,0.2174,0.1831,0.1922,0.1825,0.1076,0.0403,-0.0266,-0.0978,-0.1425,-0.2005,-0.3035,-0.3843,-0.4928,-0.6473,-0.7747,-0.9198,-1.1634,-1.4219,-1.67,2.0658,2.0354,1.9021,1.7364,1.5666,1.5094,1.4977,1.5217,1.4532,1.4067,1.3593,1.2884,1.2283,1.1724,1.1534,1.1507,1.165,1.1651,1.1732,1.1969,1.1812,1.1799,1.1834,1.1642,1.1516,1.1522,1.1241,1.0877,1.0513,1.0306,0.9857,0.9241,0.9071,0.8502,0.7563,0.7873,0.8022,0.8179,0.8523,0.8861,0.917,0.9099,0.9099,0.9251,0.8812,0.8309,0.7815,0.7633,0.7298,0.6903,0.5955,0.5408,0.5308,0.4152,0.0,0.0,0.0,0.0,0.0,0.0,0.0,0.0,0.0,-0.3677,-0.382,0.0,-0.384,0.0,-0.3812,-0.3812,-0.3815,-0.3922,0.0,0.0,-0.4483,-0.4625,-0.4589,-0.4299,-0.4111,-0.3987,-0.3343,-0.2686,-0.2153,-0.1076,-0.0068,0.0692,0.0994,0.1318,0.1974,0.1996,0.2082,0.2388,0.2463,0.2467,0.2231,0.205,0.1847,0.1695,0.1532,0.1172,0.0607,0.0067,-0.0402,-0.1,-0.1531,-0.2195,-0.3053,-0.402,-0.5495,-0.7593,-0.9136,-1.0864,-1.3756,-1.6065,-1.8543,2.0863,2.1081,2.018,1.9282,1.817,1.6926,1.6497,1.6591,1.6038,1.5374,1.4774,1.3899,1.3121,1.2548,1.2483,1.2425,1.2512,1.2451,1.2518,1.2749,1.2588,1.2569,1.2599,1.2369,1.2153,1.2037,1.1721,1.1354,1.0861,1.0855,1.0545,0.986,1.0058,0.9736,0.8982,0.8864,0.8899,0.9,0.8985,0.9013,0.9175,0.9022,0.9022,0.9175,0.8784,0.8307,0.7807,0.7633,0.7313,0.6838,0.612,0.5561,0.5153,0.4209,0.309,0.0,0.0,0.0,0.0,0.0,0.0,0.0,0.0,0.0,0.0,0.0,-0.3834,-0.383,-0.3882,-0.3917,-0.3917,-0.4039,-0.4176,-0.4353,-0.4543,-0.4596,-0.4333,-0.4117,-0.382,-0.3489,-0.292,-0.2394,-0.1713,-0.089,-0.0069,0.0722,0.1019,0.1331,0.1762,0.187,0.1962,0.2199,0.2199,0.2119,0.1962,0.1677,0.155,0.1436,0.1189,0.0821,0.0269,-0.0134,-0.0538,-0.1075,-0.1598,-0.2254,-0.3141,-0.4232,-0.5853,-0.8459,-1.0702,-1.2798,-1.5029,-1.7654,-2.0528,2.0667,2.1231,2.0683,2.0569,2.0618,1.8894,1.8019,1.7658,1.7284,1.6635,1.5856,1.4781,1.4007,1.3445,1.3445,1.3279,1.3044,1.3126,1.3218,1.33,1.3352,1.3336,1.3392,1.3099,1.2878,1.2655,1.2365,1.1986,1.137,1.1284,1.1123,1.0638,1.067,1.06,1.0361,1.0054,0.9857,0.978,0.9478,0.9291,0.9138,0.9066,0.9052,0.9027,0.8632,0.8245,0.7851,0.7599,0.7287,0.6749,0.6364,0.5719,0.4815,0.4058,0.3005,0.0,0.0,0.0,0.0,0.0,0.0,0.0,0.0,0.0,0.0,-0.386,-0.3844,-0.3886,-0.4056,-0.4051,-0.3988,-0.4001,-0.4181,-0.4345,-0.4439,-0.4247,-0.3914,-0.3722,-0.3459,-0.2715,-0.2496,-0.211,-0.1479,-0.0775,-0.0144,0.0373,0.0817,0.1188,0.1442,0.1552,0.1729,0.1887,0.1887,0.1805,0.1636,0.1359,0.1172,0.1086,0.084,0.0473,-0.0067,-0.0403,-0.0805,-0.1269,-0.1778,-0.2484,-0.3392,-0.4634,-0.6502,-0.9295,-1.198,-1.4369,-1.6345,-1.9319,-2.2408,2.171,2.2105,2.1701,2.1665,2.1815,2.0959,2.0142,1.9371,1.8665,1.7414,1.5913,1.5057,1.4464,1.3906,1.3665,1.3514,1.3459,1.3629,1.3682,1.3566,1.3638,1.3432,1.3124,1.2828,1.2609,1.2389,1.2276,1.1986,1.1525,1.1364,1.1203,1.0886,1.0909,1.0918,1.0845,0.0,0.0,0.0,0.9706,0.9662,0.9818,0.9511,0.9276,0.9256,0.8713,0.0,0.8045,0.7671,0.7342,0.6986,0.6429,0.0,0.0,0.0,0.0,0.0,0.0,0.0,0.0,0.0,0.0,0.0,-0.3882,-0.3931,-0.4066,-0.4061,-0.3993,-0.3824,-0.3974,-0.3926,-0.3542,-0.3682,-0.3735,-0.3355,-0.3428,-0.3403,-0.2988,-0.2475,-0.2077,-0.2294,-0.1874,-0.1447,-0.1158,-0.0723,-0.0293,0.0377,0.0679,0.0912,0.1243,0.1488,0.1651,0.1808,0.1727,0.1636,0.1531,0.1286,0.096,0.0643,0.0281,-0.0138,-0.0743,-0.1008,-0.1265,-0.1572,-0.2241,-0.3037,-0.4027,-0.5849,-0.7901,-1.0154,-1.2463,-1.505,-1.8388,-2.1614,-2.4505,2.1006,2.1516,2.1669,2.1832,0.0,2.2022,2.1559,2.0628,1.9767,1.8647,1.7238,1.6659,1.5921,1.5064,1.4824,1.4591,1.4223,1.4219,1.4199,1.4103,1.4079,1.3899,1.3717,1.3336,1.3021,1.2841,1.2545,1.2312,1.1975,1.1892,1.1732,1.1494,1.1534,1.1505,1.1505,1.1341,1.091,1.0156,0.9846,0.9678,0.9493,0.9256,0.9043,0.9018,0.8479,0.0,0.0,0.0,0.0,0.0,0.0,0.0,0.0,0.2613,0.0,0.0941,-0.0199,-0.1234,-0.2086,-0.2361,-0.2744,-0.3402,-0.3509,-0.3665,-0.386,-0.3911,-0.3811,-0.3549,-0.3617,-0.3506,-0.3222,-0.3332,-0.3239,-0.2934,-0.3117,-0.2999,-0.2502,-0.2237,-0.211,-0.2042,-0.1696,-0.1412,-0.1486,-0.0966,-0.0525,-0.0153,0.0153,0.0459,0.0781,0.1179,0.1493,0.157,0.1535,0.1295,0.1075,0.0829,0.0591,0.0072,-0.0353,-0.0693,-0.1013,-0.1479,-0.1806,-0.198,-0.2701,-0.3733,-0.4903,-0.6808,-0.9142,-1.1693,-1.3764,-1.6585,-2.0647,-2.3468,-2.5579,2.0269,2.0817,2.1347,2.1794,2.1939,2.2551,2.2308,2.1463,0.0,0.0,0.0,1.8292,1.7499,1.6381,1.6063,1.5561,1.5021,1.4837,1.4714,1.4657,1.4601,1.4446,1.4314,1.3704,1.3357,1.3222,1.2613,1.2357,1.2192,1.2277,1.2198,1.1952,1.1952,1.1957,1.1946,1.1567,1.11,1.0458,1.0067,0.9625,0.9222,0.8937,0.8818,0.8708,0.825,0.8025,0.8025,0.7173,0.6572,0.6143,0.5702,0.4944,0.3895,0.2109,0.1019,0.0745,-0.0609,-0.1536,-0.1681,-0.2116,-0.2465,-0.2812,-0.3086,-0.3368,-0.3598,-0.3671,-0.3592,-0.3205,-0.3205,-0.3099,-0.2956,-0.2891,-0.2844,-0.2616,-0.278,-0.264,-0.2126,-0.221,-0.2146,-0.1926,-0.1659,-0.1601,-0.1831,-0.1296,-0.0844,-0.078,-0.0386,0.0076,0.0389,0.0935,0.1325,0.132,0.1136,0.0896,0.061,0.0227,-0.0073,-0.0506,-0.0922,-0.1248,-0.1416,-0.1944,-0.2344,-0.25,-0.3452,-0.4693,-0.5906,-0.7986,-1.0523,-1.3427,-1.5405,-1.8033,-2.2586,-2.5013,-2.6351,2.1059,2.1293,2.1392,2.1793,2.2356,2.2277,2.2042,2.1712,2.1025,2.0016,1.8889,1.8536,1.7878,1.696,1.6253,1.58,1.5591,1.5383,1.5068,1.4629,1.4979,1.4744,1.4102,1.3269,1.273,1.2454,1.1649,1.1219,1.1499,1.1677,1.1757,1.1763,1.1952,1.2043,1.1952,1.1746,1.1516,1.1183,1.0545,1.017,1.0139,0.9548,0.9203,0.8956,0.8021,0.7557,0.7561,0.6784,0.6162,0.5774,0.5024,0.4372,0.3968,0.2298,0.114,0.0837,0.007,-0.0818,-0.1619,-0.1853,-0.2238,-0.2904,-0.3191,-0.3486,-0.3744,-0.3541,-0.3307,-0.316,-0.309,-0.2957,-0.2679,-0.2608,-0.2395,-0.1973,-0.1936,-0.1808,-0.1432,-0.1456,-0.155,-0.1472,-0.1481,-0.1484,-0.1482,-0.1405,-0.1172,-0.0784,-0.0625,-0.0311,0.0307,0.0914,0.1142,0.1141,0.0757,0.0449,0.0149,-0.0225,-0.0738,-0.1418,-0.141,-0.1659,-0.2239,-0.2718,-0.3107,-0.3467,-0.4766,-0.6193,-0.7332,-0.9816,-1.2425,-1.4857,-1.6688,-1.9287,-2.3991,-2.6154,-2.7191,2.171,2.1653,2.2014,2.2198,2.2254,2.2316,2.2269,2.2061,2.1699,2.0891,1.9996,1.9922,1.9406,1.8547,1.7705,1.7131,1.6805,1.6204,1.5682,1.5351,1.5418,1.5207,1.4613,1.3434,1.2892,1.276,1.1811,1.13,1.1354,1.1543,1.1717,1.1854,1.2192,1.2369,1.2203,1.1952,1.1729,1.1516,1.0579,1.0095,0.9961,0.935,0.8884,0.8489,0.7868,0.7403,0.7176,0.6244,0.5561,0.5277,0.4525,0.3959,0.3574,0.24,0.1593,0.129,0.0358,-0.0567,-0.1314,-0.1537,-0.1838,-0.2289,-0.2387,-0.2625,-0.2847,-0.2884,-0.2733,-0.2402,-0.2332,-0.2273,-0.2005,-0.2009,-0.187,-0.1518,-0.169,-0.1701,-0.1547,-0.1636,-0.1805,-0.1805,-0.1649,-0.165,-0.1804,-0.1571,-0.1415,-0.11,-0.11,-0.086,-0.0464,-0.0153,0.0379,0.0907,0.0524,-0.0075,-0.0529,-0.0908,-0.1417,-0.1944,-0.2149,-0.2448,-0.3006,-0.34,-0.3772,-0.4274,-0.5581,-0.7053,-0.8459,-1.1197,-1.4062,-1.6908,-1.8247,-2.0944,-2.4951,-2.6873,-2.7263,2.2247,2.1986,2.2726,2.2765,2.2469,2.2713,2.2721,2.2451,2.2264,2.1733,2.1126,2.1112,2.0762,2.0072,1.9022,1.8414,1.789,1.7009,1.6309,1.598,1.5896,1.5602,1.5182,1.3808,1.3079,1.2874,1.1941,1.1361,1.1123,1.1336,1.1569,1.1866,1.2277,1.2357,1.2106,1.194,1.1693,1.1316,1.0305,0.9746,0.9731,0.9072,0.8479,0.8021,0.7638,0.7176,0.663,0.5625,0.4963,0.472,0.4033,0.3477,0.3119,0.2445,0.1921,0.1399,0.0515,-0.0367,-0.1021,-0.132,-0.1471,-0.1618,-0.1702,-0.1795,-0.1973,-0.2248,-0.2224,-0.1781,-0.1785,-0.1723,-0.1675,-0.1604,-0.1463,-0.1412,-0.1659,-0.1743,-0.1664,-0.19,-0.2063,-0.2068,-0.1906,-0.1822,-0.19,-0.175,-0.1595,-0.1588,-0.1499,-0.1412,-0.1402,-0.123,-0.0611,0.0076,0.0,-0.0597,-0.1315,-0.161,-0.2025,-0.2418,-0.282,-0.3225,-0.3641,-0.4058,-0.4656,-0.5329,-0.6489,-0.8179,-1.0073,-1.2714,-1.5773,-1.8685,-2.0469,-2.263,-2.6358,-2.7305,-2.7206,2.2697,2.2289,2.3063,2.3381,2.3353,2.3548,2.3277,2.2744,2.2539,2.2246,2.1938,2.1351,2.0953,2.0551,1.9394,1.8774,1.8515,1.7349,1.6638,1.6389,1.6119,1.5917,1.5486,1.4007,1.3078,1.2677,1.1405,1.0663,1.0517,1.089,1.1139,1.1435,1.1843,1.1763,1.1246,1.1327,1.1068,1.0458,0.954,0.9409,0.9857,0.9145,0.8394,0.7859,0.7246,0.6633,0.6025,0.4849,0.43,0.437,0.3279,0.2733,0.2804,0.2339,0.1777,0.1058,0.0528,-0.0075,-0.1099,-0.1341,-0.151,-0.1512,-0.1694,-0.1793,-0.1642,-0.164,-0.1795,-0.1792,-0.1715,-0.1715,-0.1958,-0.1722,-0.1566,-0.1572,-0.1678,-0.1623,-0.1701,-0.1705,-0.1635,-0.1751,-0.212,-0.2105,-0.1858,-0.1963,-0.2059,-0.1859,-0.1748,-0.1798,-0.1771,-0.1859,-0.1779,-0.1219,-0.1358,-0.1436,-0.1675,-0.2201,-0.261,-0.2919,-0.3424,-0.3861,-0.432,-0.486,-0.5596,-0.672,-0.819,-0.9824,-1.2056,-1.4678,-1.7425,-2.0286,-2.2744,-2.5361,-2.7354,-2.7885,-2.7606,2.3412,2.2975,2.3259,2.3367,2.3353,2.3434,2.3357,2.2998,2.2777,2.2441,2.2007,2.1771,2.1554,2.1228,1.9855,1.9225,1.9043,1.7773,1.696,1.6704,1.6437,1.6225,1.5805,1.4378,1.3431,1.2938,1.1737,1.0961,1.0591,1.0903,1.1217,1.1289,1.1331,1.1345,1.1356,1.105,1.0747,1.0364,0.9312,0.8864,0.8804,0.8385,0.7859,0.7173,0.671,0.6213,0.5653,0.4734,0.4256,0.4071,0.3321,0.2746,0.2588,0.2434,0.2111,0.1472,0.0155,-0.0771,-0.1221,-0.1309,-0.1393,-0.1393,-0.1484,-0.1493,-0.1415,-0.1415,-0.1493,-0.1493,-0.1493,-0.1493,-0.1573,-0.1493,-0.1415,-0.1495,-0.1743,-0.2003,-0.2275,-0.2571,-0.2811,-0.2948,-0.2746,-0.255,-0.2313,-0.217,-0.2105,-0.202,-0.1914,-0.1955,-0.2325,-0.2341,-0.2327,-0.2367,-0.2752,-0.2835,-0.2504,-0.2612,-0.2931,-0.3149,-0.3734,-0.4395,-0.513,-0.552,-0.631,-0.7751,-0.9469,-1.1221,-1.3075,-1.5776,-1.8524,-2.1664,-2.5224,-2.8006,-2.9194,-2.867,-2.7718,2.3845,2.3429,2.3439,2.3607,2.3677,2.3534,2.3415,2.3192,2.3005,2.2566,2.1964,2.2034,2.1848,2.147,2.0205,1.9507,1.9233,1.8014,1.7289,1.7033,1.6764,1.6462,1.6095,1.4665,1.3718,1.3205,1.218,1.1293,1.0782,1.0959,1.1119,1.1089,1.0885,1.0865,1.0949,1.0577,1.0129,0.9719,0.8892,0.82,0.7809,0.756,0.7061,0.649,0.6288,0.5887,0.5264,0.4468,0.3985,0.3728,0.302,0.2512,0.2353,0.2276,0.1805,0.0864,-0.0471,-0.1335,-0.1414,-0.1335,-0.1336,-0.1336,-0.1336,-0.1336,-0.1338,-0.1344,-0.1345,-0.1337,-0.1343,-0.1348,-0.1493,-0.1415,-0.1414,-0.1649,-0.205,-0.2318,-0.2859,-0.3306,-0.3566,-0.381,-0.3469,-0.3149,-0.2901,-0.2477,-0.2143,-0.2261,-0.2152,-0.2277,-0.3061,-0.3136,-0.3119,-0.345,-0.4011,-0.3914,-0.3328,-0.3552,-0.3532,-0.3752,-0.448,-0.5528,-0.6156,-0.6559,-0.7481,-0.943,-1.0995,-1.2848,-1.4916,-1.7322,-2.0235,-2.3667,-2.6968,-2.9483,-3.019,-2.923,-2.807,2.3646,2.3484,2.3712,2.4124,2.4733,2.4237,2.375,2.3294,2.2856,2.2446,2.2079,2.1787,2.1562,2.1232,2.0248,1.9606,1.9217,1.8236,1.7589,1.7203,1.6756,1.6574,1.6473,1.4765,1.3896,1.3567,1.2242,1.1381,1.0872,1.0782,1.0667,1.0667,1.0673,1.0277,0.9889,0.9721,0.9248,0.8471,0.8014,0.7435,0.6826,0.661,0.6307,0.5908,0.5997,0.5592,0.4632,0.3812,0.3325,0.3248,0.2149,0.1572,0.1882,0.1569,0.0471,-0.1336,-0.1415,-0.1492,-0.1803,-0.157,-0.1337,-0.1338,-0.1416,-0.1337,-0.1421,-0.1363,-0.1364,-0.1338,-0.1362,-0.1447,-0.189,-0.1571,-0.1727,-0.2437,-0.2239,-0.2448,-0.3255,-0.3406,-0.3583,-0.3928,-0.4052,-0.3817,-0.3507,-0.2861,-0.2636,-0.2571,-0.2549,-0.2902,-0.3923,-0.4157,-0.4304,-0.4508,-0.4759,-0.468,-0.4136,-0.4426,-0.4787,-0.4909,-0.545,-0.6898,-0.7577,-0.8382,-0.9705,-1.1217,-1.3262,-1.5177,-1.7038,-1.9608,-2.272,-2.5659,-2.7904,-2.9857,-3.044,-2.9684,-2.8556,2.3889,2.3587,2.2844,2.3221,2.4237,2.3869,2.3623,2.3595,2.3044,2.2453,2.1808,2.1445,2.117,2.0687,2.0004,1.9583,1.9257,1.8281,1.764,1.7167,1.6292,1.5818,1.5629,1.4004,1.3039,1.2851,1.2073,1.1453,1.1094,1.1,1.0976,1.0938,1.058,1.0231,0.9902,0.9354,0.8794,0.8209,0.7468,0.6861,0.6436,0.5737,0.5281,0.5159,0.5276,0.5007,0.4067,0.3595,0.3154,0.274,0.2032,0.1595,0.1415,0.0707,-0.0393,-0.173,-0.2042,-0.2118,-0.2196,-0.204,-0.1897,-0.2083,-0.2217,-0.2214,-0.2083,-0.1859,-0.1691,-0.1665,-0.1445,-0.1528,-0.1737,-0.157,-0.1571,-0.212,-0.2293,-0.2572,-0.335,-0.3864,-0.4322,-0.4589,-0.4552,-0.4244,-0.39,-0.3538,-0.3168,-0.2736,-0.2619,-0.3292,-0.454,-0.5407,-0.5777,-0.5448,-0.5743,-0.6036,-0.5747,-0.5583,-0.5623,-0.5717,-0.6331,-0.8072,-0.9142,-0.9907,-1.1128,-1.2257,-1.4575,-1.6877,-1.8517,-2.1771,-2.4908,-2.7034,-2.9272,-2.9918,-3.0353,-2.9631,-2.8664,2.3904,2.3666,2.265,2.2815,2.359,2.3319,2.3166,2.3142,2.2677,2.1995,2.1337,2.0995,2.0678,2.0377,1.9799,1.9498,1.9135,1.8252,1.75,1.6911,1.5858,1.5242,1.4669,1.3426,1.2754,1.2657,1.217,1.159,1.1194,1.1194,1.1198,1.1082,1.0504,1.0116,0.9837,0.9092,0.8488,0.7955,0.7049,0.6299,0.5898,0.5059,0.4479,0.4233,0.444,0.4282,0.3612,0.3217,0.2762,0.2244,0.1886,0.1296,0.0482,-0.0239,-0.1195,-0.2407,-0.2731,-0.273,-0.2728,-0.2568,-0.2499,-0.2597,-0.2807,-0.2876,-0.2574,-0.2265,-0.2174,-0.2,-0.1768,-0.1614,-0.1755,-0.1509,-0.1584,-0.2128,-0.2464,-0.2984,-0.3769,-0.4383,-0.4848,-0.5073,-0.4846,-0.4531,-0.4338,-0.4103,-0.3842,-0.3474,-0.3266,-0.3787,-0.5407,-0.6423,-0.6949,-0.6331,-0.663,-0.7083,-0.7127,-0.7082,-0.7136,-0.7193,-0.7333,-0.9092,-1.0555,-1.1367,-1.2312,-1.3511,-1.5417,-1.7778,-2.0637,-2.3877,-2.6302,-2.8365,-2.9385,-3.0079,-2.9998,-2.9631,-2.8632,2.3592,2.3721,2.3202,2.2857,2.3004,2.2775,2.23,2.1971,2.1499,2.1139,2.0732,2.0451,2.0329,2.0182,1.9675,1.9361,1.8852,1.8008,1.7159,1.6326,1.5639,1.4765,1.3902,1.2942,1.2845,1.3227,1.2657,1.198,1.1394,1.1292,1.1194,1.0765,1.0426,0.9953,0.9469,0.8838,0.8204,0.7453,0.6593,0.5768,0.5173,0.4584,0.3904,0.3296,0.3536,0.3503,0.295,0.2611,0.2171,0.1718,0.1385,0.0411,-0.0995,-0.1146,-0.1882,-0.3488,-0.3517,-0.3353,-0.334,-0.325,-0.2968,-0.2858,-0.3005,-0.3055,-0.2786,-0.2654,-0.2595,-0.2503,-0.2187,-0.1945,-0.1942,-0.17,-0.1771,-0.2613,-0.2843,-0.3238,-0.4112,-0.4869,-0.5279,-0.5341,-0.5086,-0.487,-0.4921,-0.475,-0.461,-0.4768,-0.4666,-0.4941,-0.6443,-0.7215,-0.7443,-0.7411,-0.7468,-0.7664,-0.8214,-0.8659,-0.8747,-0.8891,-0.9037,-0.9856,-1.1291,-1.2328,-1.3211,-1.4471,-1.7059,-1.951,-2.2481,-2.5481,-2.7155,-2.889,-2.9608,-3.0127,-2.9912,-2.9512,-2.8526,2.3463,2.3647,2.2366,2.2297,2.2866,2.2318,2.1989,2.1942,2.1265,2.078,2.0348,1.9898,1.959,1.9364,1.9097,1.8686,1.8247,1.727,1.6429,1.583,1.4981,1.4082,1.3028,1.216,1.2073,1.2559,1.2365,1.2078,1.198,1.1785,1.1487,1.0881,1.0449,0.9953,0.9185,0.837,0.7773,0.7429,0.5999,0.4937,0.4496,0.3817,0.3299,0.3101,0.2771,0.2373,0.211,0.2047,0.1604,0.0897,0.0732,-0.0082,-0.1393,-0.1713,-0.2362,-0.3689,-0.3695,-0.3583,-0.3704,-0.3828,-0.3775,-0.3579,-0.3736,-0.3724,-0.346,-0.3149,-0.2984,-0.2956,-0.2575,-0.2344,-0.2315,-0.2256,-0.2186,-0.2251,-0.2524,-0.3068,-0.3954,-0.4706,-0.5155,-0.545,-0.5464,-0.5504,-0.5454,-0.5364,-0.5681,-0.5898,-0.5753,-0.6149,-0.7061,-0.7671,-0.7816,-0.7718,-0.794,-0.8313,-0.8849,-0.9369,-0.9636,-0.9921,-1.0153,-1.0451,-1.1796,-1.339,-1.4264,-1.6161,-1.8778,-2.1377,-2.436,-2.6493,-2.8084,-2.9126,-2.9825,-3.0024,-2.9988,-2.9406,-2.8567,2.3105,2.3365,2.1951,2.1719,2.2335,2.1662,2.1361,2.1239,2.0715,2.023,1.9837,1.9346,1.906,1.8948,1.859,1.8126,1.7659,1.68,1.581,1.4854,1.4268,1.3216,1.2252,1.1775,1.159,1.1883,1.2299,1.2201,1.1688,1.1487,1.1096,1.0511,1.0314,0.9728,0.8738,0.8045,0.7448,0.6729,0.5344,0.4378,0.3903,0.3333,0.2896,0.2769,0.2242,0.1852,0.1623,0.137,0.0925,0.0405,-0.008,-0.1054,-0.2403,-0.2566,-0.2971,-0.3745,-0.3912,-0.3882,-0.3887,-0.4127,-0.4205,-0.4001,-0.417,-0.4151,-0.3869,-0.3525,-0.3434,-0.3394,-0.3052,-0.2813,-0.2822,-0.2667,-0.2528,-0.2383,-0.2905,-0.3517,-0.425,-0.4901,-0.5318,-0.5513,-0.5687,-0.5811,-0.6046,-0.6072,-0.6451,-0.6722,-0.6709,-0.6758,-0.7451,-0.7812,-0.7953,-0.8174,-0.8623,-0.9054,-0.9546,-1.0003,-1.0508,-1.0842,-1.1156,-1.1396,-1.212,-1.41,-1.5474,-1.8339,-2.0996,-2.2897,-2.562,-2.7102,-2.8582,-2.9301,-3.001,-3.0079,-3.0065,-2.9658,-2.8843,2.2532,2.2763,2.1801,2.1379,2.1432,2.102,2.0619,2.0054,1.9696,1.9528,1.9252,1.8806,1.8652,1.8689,1.8221,1.7572,1.6891,1.6373,1.5042,1.3642,1.2926,1.2446,1.1482,1.1693,1.1595,1.1404,1.2232,1.2036,1.0904,1.0703,1.0314,1.0117,1.0006,0.9255,0.8226,0.7782,0.6891,0.5676,0.466,0.3961,0.3491,0.2998,0.2551,0.2241,0.1884,0.1508,0.1215,0.0425,0.0,-0.0,-0.1028,-0.2202,-0.332,-0.3486,-0.3652,-0.4128,-0.4157,-0.4081,-0.4048,-0.4208,-0.4285,-0.398,-0.4188,-0.4205,-0.3903,-0.381,-0.378,-0.3896,-0.3489,-0.3222,-0.3307,-0.3136,-0.2967,-0.3183,-0.374,-0.4389,-0.5271,-0.5451,-0.5579,-0.5667,-0.5716,-0.5966,-0.6536,-0.6509,-0.6774,-0.7155,-0.7327,-0.7536,-0.7773,-0.8038,-0.8336,-0.8703,-0.9301,-0.99,-1.0438,-1.1003,-1.1456,-1.1696,-1.2201,-1.2773,-1.3305,-1.5195,-1.7274,-2.0109,-2.2761,-2.4687,-2.6183,-2.7582,-2.8764,-2.9635,-3.006,-3.0186,-3.0037,-2.969,-2.8944,2.247,2.2075,2.1586,2.1318,2.1075,2.054,2.0395,2.0264,1.9576,1.9333,1.9284,1.8769,1.8047,1.7443,1.7087,1.6218,1.5076,1.4588,1.3693,1.2467,1.2068,1.1775,1.1296,1.1404,1.1502,1.159,1.1292,1.1082,1.1292,1.0998,1.0605,1.0019,0.9723,0.892,0.7661,0.6972,0.629,0.5507,0.4133,0.3207,0.2688,0.2503,0.2231,0.1882,0.1076,0.0621,0.0434,-0.0765,-0.1399,-0.1185,-0.2271,-0.3071,-0.3472,-0.3674,-0.3852,-0.3994,-0.4067,-0.4004,-0.3895,-0.3926,-0.3912,-0.3903,-0.423,-0.4153,-0.3953,-0.3863,-0.3922,-0.4006,-0.3818,-0.3894,-0.4018,-0.4006,-0.4091,-0.4448,-0.452,-0.4644,-0.5117,-0.5573,-0.5758,-0.5751,-0.6202,-0.6531,-0.6659,-0.6926,-0.7118,-0.7381,-0.7659,-0.7884,-0.8056,-0.8718,-0.917,-0.9528,-1.0024,-1.0739,-1.1376,-1.2026,-1.2424,-1.2644,-1.3364,-1.4492,-1.5335,-1.6874,-1.8996,-2.1403,-2.3979,-2.6112,-2.6852,-2.7807,-2.8853,-2.9931,-3.0052,-3.0131,-3.0066,-2.9779,-2.8895,2.1657,2.1483,2.0891,2.0659,2.0554,2.0127,1.9915,1.9706,1.9119,1.8644,1.8387,1.7702,1.685,1.6183,1.5906,1.4956,1.3703,1.3414,1.2743,1.1878,1.1487,1.1194,1.1002,1.1012,1.1012,1.0998,1.0382,1.0293,1.06,1.0609,1.0216,0.9727,0.9529,0.8543,0.7027,0.6477,0.5716,0.4784,0.3607,0.2844,0.2458,0.2273,0.1806,0.144,0.0538,0.0089,-0.0696,-0.2076,-0.2635,-0.2406,-0.2917,-0.3444,-0.3531,-0.3655,-0.3916,-0.4116,-0.4082,-0.4007,-0.4025,-0.4059,-0.4063,-0.4105,-0.4417,-0.447,-0.4212,-0.4119,-0.4157,-0.416,-0.4141,-0.4307,-0.4582,-0.4643,-0.4843,-0.4971,-0.502,-0.5053,-0.5363,-0.56,-0.5858,-0.6102,-0.6492,-0.6878,-0.6969,-0.7267,-0.7504,-0.7687,-0.8039,-0.8218,-0.8412,-0.9322,-1.0154,-1.0432,-1.0979,-1.1709,-1.2396,-1.3013,-1.3663,-1.3898,-1.5576,-1.6573,-1.7557,-1.8851,-2.0685,-2.2916,-2.5307,-2.6978,-2.7422,-2.8061,-2.9186,-2.9918,-3.0009,-3.0053,-2.9998,-2.9696,-2.8821,2.0607,2.0841,1.9901,1.9717,1.9862,1.9592,1.9111,1.8691,1.8132,1.7448,1.6819,1.6109,1.5514,1.4848,1.4657,1.3986,1.2931,1.2737,1.2257,1.1487,1.1002,1.0609,1.0408,1.0618,1.0422,1.0216,0.9809,0.9715,0.9817,0.9723,0.943,0.9133,0.9034,0.7967,0.6496,0.6066,0.5039,0.3735,0.3228,0.2727,0.2328,0.2042,0.1475,0.082,0.0181,-0.0806,-0.2038,-0.3102,-0.3454,-0.2966,-0.3328,-0.3547,-0.3708,-0.3703,-0.3956,-0.4285,-0.424,-0.4196,-0.4329,-0.4389,-0.4408,-0.4437,-0.4806,-0.4981,-0.4564,-0.4466,-0.4507,-0.4517,-0.4529,-0.4626,-0.4906,-0.5117,-0.5272,-0.5429,-0.5459,-0.5679,-0.582,-0.577,-0.6016,-0.6599,-0.6688,-0.6962,-0.7346,-0.7668,-0.7782,-0.8074,-0.8516,-0.9042,-0.9397,-1.0143,-1.0818,-1.1254,-1.1952,-1.2699,-1.3369,-1.4031,-1.4746,-1.5419,-1.7854,-1.9285,-1.994,-2.1172,-2.2698,-2.4457,-2.5835,-2.686,-2.754,-2.8398,-2.9546,-3.0005,-3.0171,-3.0122,-2.9969,-2.9502,-2.8783,2.023,1.9645,1.9501,1.928,1.9138,1.8514,1.823,1.7999,1.694,1.6286,1.5943,1.5421,1.4561,1.38,1.3409,1.2937,1.1965,1.1673,1.1194,1.0703,1.031,0.9817,0.9521,0.9826,1.0126,0.9924,0.9727,0.9624,0.9529,0.9426,0.9229,0.8531,0.8031,0.7117,0.5688,0.5031,0.411,0.3015,0.2788,0.2385,0.1804,0.1327,0.085,0.0187,-0.0925,-0.2108,-0.3097,-0.3701,-0.376,-0.373,-0.3839,-0.3933,-0.3812,-0.4097,-0.4352,-0.4482,-0.4676,-0.4662,-0.4694,-0.4689,-0.4696,-0.4765,-0.4811,-0.4763,-0.4832,-0.4827,-0.4788,-0.4863,-0.4865,-0.508,-0.5383,-0.6051,-0.6144,-0.6015,-0.6144,-0.6423,-0.6468,-0.6367,-0.6458,-0.6718,-0.7033,-0.7301,-0.7621,-0.7819,-0.813,-0.8535,-0.918,-0.9943,-1.0536,-1.1037,-1.1694,-1.2278,-1.3049,-1.3907,-1.463,-1.5396,-1.6407,-1.7318,-1.9559,-2.1166,-2.1888,-2.274,-2.3952,-2.4891,-2.5797,-2.6742,-2.7727,-2.882,-2.9973,-3.0153,-3.029,-3.0141,-2.9892,-2.9379,-2.897,1.8141,1.7654,1.7363,1.726,1.707,1.6402,1.6106,1.568,1.466,1.4022,1.3722,1.3238,1.2727,1.2257,1.1858,1.1272,1.069,1.01,0.9608,0.9114,0.892,0.8528,0.8333,0.8737,0.9137,0.913,0.9126,0.9031,0.8931,0.863,0.8131,0.763,0.7232,0.6331,0.5131,0.439,0.378,0.288,0.2463,0.1952,0.1258,0.0773,-0.0096,-0.0954,-0.2261,-0.3365,-0.397,-0.412,-0.4254,-0.4383,-0.4483,-0.4411,-0.4197,-0.4484,-0.4651,-0.4796,-0.4761,-0.5139,-0.527,-0.5363,-0.5453,-0.5873,-0.5499,-0.5391,-0.5441,-0.5372,-0.5217,-0.526,-0.5351,-0.5497,-0.5996,-0.6379,-0.6595,-0.658,-0.6642,-0.6857,-0.7047,-0.6835,-0.6798,-0.7129,-0.7354,-0.7697,-0.7936,-0.8286,-0.8777,-0.9311,-1.0288,-1.0974,-1.1347,-1.1922,-1.2858,-1.3584,-1.4337,-1.5112,-1.59,-1.6908,-1.8215,-1.9377,-2.1025,-2.2203,-2.2875,-2.3822,-2.4815,-2.555,-2.625,-2.7225,-2.8263,-2.9341,-3.0049,-3.0195,-3.0242,-3.0115,-2.9796,-2.9227,-2.897,1.528,1.5134,1.4626,1.4524,1.4644,1.4166,1.38,1.3318,1.2114,1.1541,1.0947,1.0574,1.0489,1.0199,0.9801,0.9402,0.9008,0.8609,0.8018,0.7624,0.7627,0.7229,0.7033,0.7543,0.7846,0.7935,0.8134,0.8237,0.7932,0.7434,0.703,0.6528,0.6232,0.5432,0.4531,0.4031,0.3218,0.2312,0.1807,0.1198,0.0395,-0.0098,-0.1173,-0.2518,-0.3357,-0.4076,-0.439,-0.4526,-0.4663,-0.5013,-0.5017,-0.4894,-0.4793,-0.4776,-0.5119,-0.5282,-0.5139,-0.5499,-0.6417,-0.6605,-0.687,-0.7472,-0.6614,-0.6239,-0.6422,-0.6236,-0.6154,-0.6157,-0.6242,-0.6377,-0.6675,-0.7079,-0.7079,-0.7046,-0.7107,-0.7336,-0.7484,-0.7261,-0.7596,-0.7616,-0.7849,-0.8026,-0.8571,-0.9052,-0.9614,-1.019,-1.1168,-1.1922,-1.2291,-1.2851,-1.3845,-1.4638,-1.5292,-1.6636,-1.7573,-1.862,-1.9885,-2.099,-2.2511,-2.3216,-2.3891,-2.4858,-2.568,-2.6057,-2.6794,-2.7754,-2.8625,-2.9519,-3.0047,-3.0211,-3.0264,-3.0235,-2.9743,-2.9071,-2.8984,1.287,1.233,1.2129,1.2592,1.3272,1.278,1.2288,1.2546,1.0712,0.9612,0.8297,0.8616,0.8212,0.7915,0.7717,0.7512,0.7009,0.6611,0.6517,0.6321,0.6221,0.5822,0.5325,0.6137,0.6339,0.5934,0.6331,0.693,0.703,0.6725,0.5927,0.5225,0.4929,0.423,0.3528,0.2925,0.2521,0.1513,0.0706,-0.01,-0.0802,-0.1699,-0.2598,-0.3768,-0.4321,-0.4638,-0.4834,-0.4935,-0.5029,-0.502,-0.5176,-0.5255,-0.5315,-0.5252,-0.5561,-0.582,-0.5852,-0.6225,-0.732,-0.8519,-0.8524,-0.8074,-0.7467,-0.7394,-0.7485,-0.7485,-0.7309,-0.7577,-0.7658,-0.7607,-0.72,-0.7815,-0.7932,-0.799,-0.8243,-0.8631,-0.8348,-0.8507,-0.8622,-0.8599,-0.8535,-0.8611,-0.9327,-1.0045,-1.064,-1.1224,-1.1957,-1.2785,-1.331,-1.3973,-1.4915,-1.5575,-1.616,-1.7777,-1.9261,-2.0486,-2.169,-2.2429,-2.356,-2.4233,-2.4986,-2.5879,-2.6557,-2.6825,-2.735,-2.8193,-2.9035,-2.9763,-3.0125,-3.0386,-3.0396,-3.0384,-2.997,-2.9551,-2.9236,0.8535,0.8031,0.7546,0.7628,0.7848,0.7054,0.666,0.6372,0.548,0.4785,0.4489,0.4593,0.4897,0.5001,0.4806,0.4409,0.4011,0.3912,0.3712,0.3512,0.3412,0.3313,0.2814,0.392,0.3518,0.2916,0.3317,0.4522,0.5429,0.5231,0.4828,0.4327,0.3929,0.353,0.3027,0.2625,0.212,0.1211,-0.0202,-0.1411,-0.2017,-0.3024,-0.393,-0.4422,-0.4897,-0.5123,-0.542,-0.5465,-0.5626,-0.5681,-0.5822,-0.5964,-0.6171,-0.638,-0.6412,-0.6595,-0.6724,-0.72,-0.8277,-0.938,-0.9551,-0.8982,-0.8452,-0.8277,-0.836,-0.836,-0.8364,-0.8544,-0.8899,-0.8865,-0.8694,-0.903,-0.9159,-0.9275,-0.9553,-0.9646,-0.9667,-1.0058,-1.0021,-0.9751,-0.9725,-1.0019,-1.0449,-1.1099,-1.1687,-1.2265,-1.2903,-1.3571,-1.425,-1.5081,-1.5904,-1.6889,-1.7704,-1.9323,-2.0772,-2.1823,-2.3023,-2.3806,-2.4606,-2.5303,-2.59,-2.6704,-2.7112,-2.7396,-2.8058,-2.8644,-2.9211,-2.9863,-3.0199,-3.0541,-3.0572,-3.0528,-3.0347,-3.0062,-2.9788,0.338,0.3081,0.2484,0.1987,0.149,0.0695,-0.0397,-0.1392,-0.199,-0.1592,-0.0498,-0.0398,0.0398,0.1497,0.15,0.1103,0.0603,0.0704,0.0704,0.0804,0.0704,0.0503,0.0503,0.0402,0.0503,0.0402,0.0201,0.1107,0.3321,0.3828,0.3527,0.3022,0.2825,0.2422,0.2018,0.1514,0.1616,0.0404,-0.121,-0.2823,-0.3328,-0.4034,-0.4638,-0.4937,-0.5238,-0.5586,-0.6063,-0.6233,-0.6389,-0.6516,-0.6706,-0.6844,-0.717,-0.7573,-0.7658,-0.7478,-0.7731,-0.8257,-0.9157,-0.9712,-1.0159,-0.9946,-0.9244,-0.9152,-0.941,-0.9497,-0.9323,-0.941,-0.9676,-0.9941,-0.9894,-1.0137,-1.0229,-1.0401,-1.047,-1.0675,-1.0861,-1.1197,-1.1528,-1.1354,-1.1189,-1.1323,-1.179,-1.2269,-1.2817,-1.331,-1.3939,-1.4585,-1.5305,-1.5991,-1.6936,-1.8207,-1.9415,-2.1012,-2.2186,-2.2892,-2.3959,-2.4887,-2.5692,-2.6412,-2.6904,-2.7387,-2.7758,-2.817,-2.834,-2.8901,-2.9458,-2.9927,-3.0267,-3.0542,-3.0696,-3.0676,-3.0484,-3.0486,-3.0395,-0.2182,-0.2579,-0.2482,-0.2983,-0.3778,-0.397,-0.5968,-0.8605,-0.9015,-0.8315,-0.5584,-0.5688,-0.4386,-0.2792,-0.2197,-0.1903,-0.1605,-0.1706,-0.1606,-0.1306,-0.1206,-0.1307,-0.1106,-0.1208,-0.1406,-0.1607,-0.1809,-0.0403,0.1107,0.1913,0.2116,0.1511,0.1008,0.0403,0.0,-0.0101,-0.0907,-0.2115,-0.3629,-0.4438,-0.4533,-0.4836,-0.5039,-0.534,-0.5732,-0.6283,-0.6958,-0.7118,-0.7279,-0.7404,-0.7724,-0.7735,-0.7698,-0.8448,-0.9065,-0.8877,-0.8686,-0.8582,-1.0019,-1.0482,-1.0574,-1.0646,-1.0381,-1.0554,-1.0717,-1.0977,-1.089,-1.0722,-1.0982,-1.0982,-1.0895,-1.0864,-1.093,-1.1144,-1.1438,-1.1588,-1.1787,-1.2438,-1.2849,-1.3232,-1.3091,-1.2979,-1.3154,-1.3565,-1.3963,-1.4421,-1.4982,-1.5604,-1.6296,-1.6994,-1.8233,-1.964,-2.0563,-2.2092,-2.3364,-2.4085,-2.4818,-2.5792,-2.6699,-2.7442,-2.7768,-2.8182,-2.8743,-2.9058,-2.9141,-2.9188,-2.9623,-3.0018,-3.0355,-3.0542,-3.0684,-3.0683,-3.0607,-3.0681,-3.0764,-0.8668,-0.6744,-0.6944,-0.7346,-0.795,-0.8241,-0.9347,-1.0783,-1.1198,-1.0485,-0.9265,-0.8966,-0.7868,-0.6473,-0.5983,-0.5591,-0.5198,-0.5007,-0.471,-0.4111,-0.3914,-0.3817,-0.3607,-0.3383,-0.3272,-0.3607,-0.369,-0.3886,-0.22,-0.0603,0.0302,-0.0201,-0.0403,-0.0604,-0.1511,-0.1612,-0.2016,-0.2924,-0.4138,-0.5146,-0.5238,-0.5436,-0.5737,-0.6237,-0.6537,-0.7153,-0.7741,-0.8179,-0.8219,-0.8242,-0.8261,-0.8535,-0.8849,-0.9405,-0.984,-1.0458,-1.0361,-1.0269,-1.0544,-1.0819,-1.0997,-1.1079,-1.116,-1.1413,-1.1757,-1.1929,-1.2106,-1.2015,-1.2015,-1.2095,-1.2095,-1.2272,-1.2534,-1.2687,-1.2665,-1.3016,-1.3239,-1.3681,-1.4258,-1.4634,-1.4956,-1.4635,-1.4411,-1.4559,-1.4796,-1.5096,-1.5598,-1.6189,-1.7034,-1.7835,-1.9403,-2.1222,-2.2056,-2.2912,-2.416,-2.5149,-2.5611,-2.6535,-2.7655,-2.8265,-2.854,-2.8968,-2.9554,-2.9804,-2.982,-2.9857,-2.9971,-3.0103,-3.0353,-3.054,-3.0689,-3.0683,-3.0661,-3.0595,-3.0663,-1.4539,-1.1722,-1.1371,-1.1487,-1.1879,-1.2378,-1.2769,-1.3058,-1.316,-1.2667,-1.1895,-1.1414,-1.0635,-0.9849,-0.9257,-0.8864,-0.8484,-0.8206,-0.7713,-0.7217,-0.6918,-0.6523,-0.62,-0.5642,-0.5645,-0.5824,-0.596,-0.6155,-0.5795,-0.4512,-0.301,-0.2613,-0.2716,-0.2515,-0.2516,-0.3321,-0.4026,-0.4128,-0.5041,-0.5546,-0.5739,-0.6134,-0.6634,-0.722,-0.7687,-0.8112,-0.8875,-0.908,-0.9092,-0.9154,-0.9251,-0.9611,-0.9892,-1.0279,-1.0712,-1.1241,-1.1332,-1.1424,-1.1338,-1.1429,-1.1521,-1.1688,-1.1854,-1.2277,-1.2534,-1.2705,-1.279,-1.3039,-1.3039,-1.3215,-1.3476,-1.3476,-1.3646,-1.3782,-1.4032,-1.4511,-1.4823,-1.4828,-1.502,-1.5324,-1.5529,-1.5747,-1.56,-1.5585,-1.5677,-1.5752,-1.6182,-1.6803,-1.7845,-1.886,-2.0318,-2.2164,-2.3031,-2.3761,-2.4927,-2.5912,-2.6433,-2.7179,-2.8311,-2.9205,-2.9566,-2.9902,-3.036,-3.0476,-3.0465,-3.0182,-3.0028,-3.0185,-3.034,-3.0537,-3.0676,-3.074,-3.071,-3.0603,-3.0879,-1.8832,-1.8624,-1.6094,-1.5435,-1.5987,-1.6577,-1.6865,-1.6771,-1.6973,-1.631,-1.5164,-1.404,-1.3075,-1.2496,-1.22,-1.1526,-1.0364,-1.048,-0.9784,-0.9095,-0.8707,-0.8605,-0.8283,-0.8171,-0.8361,-0.8495,-0.8332,-0.8543,-0.87,-0.7803,-0.6918,-0.6639,-0.5529,-0.5236,-0.5233,-0.5627,-0.6226,-0.6226,-0.6537,-0.6339,-0.6734,-0.7226,-0.7918,-0.8185,-0.8769,-0.9436,-1.0187,-1.0122,-1.0108,-1.0135,-1.0459,-1.0671,-1.0845,-1.1246,-1.1763,-1.2032,-1.2118,-1.2203,-1.2375,-1.2209,-1.2221,-1.2381,-1.2711,-1.3045,-1.33,-1.3476,-1.3724,-1.3886,-1.3971,-1.4055,-1.4068,-1.4159,-1.4405,-1.4706,-1.4996,-1.5313,-1.5524,-1.5355,-1.5544,-1.5862,-1.6177,-1.6346,-1.6629,-1.665,-1.6439,-1.6508,-1.6986,-1.7635,-1.902,-2.0154,-2.1308,-2.2686,-2.3748,-2.466,-2.5776,-2.6542,-2.698,-2.7736,-2.8766,-2.9881,-3.0755,-3.1046,-3.132,-3.1129,-3.1038,-3.054,-3.0122,-3.0289,-3.043,-3.056,-3.0667,-3.074,-3.07,-3.0569,-3.1188,-2.1132,-2.1578,-1.9918,-1.8907,-1.8364,-1.8548,-1.8648,-1.8748,-1.8748,-1.8464,-1.7702,-1.6692,-1.6035,-1.5556,-1.4816,-1.4339,-1.3663,-1.3193,-1.241,-1.1638,-1.1151,-1.0574,-1.016,-0.9913,-0.9875,-0.9943,-1.0104,-1.0396,-1.0569,-1.0079,-0.9985,-0.9304,-0.812,-0.7428,-0.7425,-0.772,-0.8113,-0.8407,-0.8407,-0.8308,-0.8799,-0.9095,-0.9686,-1.0266,-1.0005,-1.0608,-1.1233,-1.1217,-1.1179,-1.1185,-1.1287,-1.1478,-1.1699,-1.2381,-1.2723,-1.2808,-1.2802,-1.3058,-1.3307,-1.3058,-1.2723,-1.3228,-1.347,-1.3808,-1.4062,-1.423,-1.4405,-1.465,-1.481,-1.4894,-1.5068,-1.5151,-1.5311,-1.553,-1.5823,-1.6024,-1.6155,-1.6047,-1.6288,-1.6708,-1.6908,-1.702,-1.7325,-1.7675,-1.7469,-1.7323,-1.7879,-1.8554,-2.0036,-2.1284,-2.2325,-2.3289,-2.4256,-2.5162,-2.624,-2.6857,-2.7469,-2.8389,-2.9337,-3.0308,-3.1334,-3.2105,-3.2271,-3.1964,-3.1626,-3.1274,-3.0909,-3.056,-3.0479,-3.0579,-3.0672,-3.0742,-3.0653,-3.0535,-3.1134,-2.2843,-2.3309,-2.2589,-2.1686,-2.0584,-2.0584,-2.0584,-2.0584,-2.0584,-2.0305,-1.9918,-1.9115,-1.8664,-1.8195,-1.7554,-1.672,-1.6236,-1.5765,-1.5007,-1.4142,-1.3284,-1.2619,-1.2083,-1.1758,-1.1651,-1.1312,-1.1758,-1.224,-1.2242,-1.1745,-1.1745,-1.1556,-1.0672,-0.9784,-0.9,-0.9296,-0.9686,-1.0177,-1.0266,-1.0266,-1.0654,-1.1053,-1.1351,-1.1915,-1.1833,-1.1999,-1.2253,-1.2209,-1.2048,-1.2037,-1.21,-1.2254,-1.2699,-1.3234,-1.358,-1.3652,-1.3724,-1.3899,-1.4062,-1.3711,-1.3379,-1.3893,-1.4334,-1.4573,-1.4817,-1.4985,-1.5242,-1.5492,-1.565,-1.5899,-1.6072,-1.5989,-1.6147,-1.637,-1.6176,-1.634,-1.673,-1.6763,-1.7199,-1.7569,-1.7577,-1.7513,-1.8225,-1.8662,-1.8798,-1.8721,-1.894,-1.9765,-2.1092,-2.2228,-2.3122,-2.398,-2.4832,-2.5668,-2.6488,-2.6892,-2.7532,-2.9221,-3.0106,-3.0691,-3.1603,-3.2456,-3.2835,-3.2428,-3.2117,-3.1991,-3.1665,-3.1254,-3.0871,-3.0582,-3.0669,-3.0758,-3.0564,-3.0486,-3.0766,-2.4337,-2.411,-2.3917,-2.3474,-2.3028,-2.3047,-2.295,-2.2775,-2.2775,-2.2403,-2.1756,-2.0944,-2.0387,-2.0107,-1.9761,-1.9031,-1.8372,-1.7995,-1.7245,-1.6129,-1.5569,-1.5013,-1.4441,-1.3939,-1.3628,-1.3884,-1.4052,-1.404,-1.3902,-1.3698,-1.38,-1.3692,-1.3091,-1.2216,-1.056,-1.0658,-1.1156,-1.175,-1.1638,-1.1731,-1.1925,-1.2614,-1.3108,-1.316,-1.3396,-1.351,-1.3326,-1.2998,-1.2829,-1.2747,-1.3039,-1.3203,-1.3555,-1.3984,-1.4321,-1.4559,-1.4475,-1.4657,-1.4999,-1.4378,-1.4455,-1.4643,-1.509,-1.5423,-1.5658,-1.5899,-1.6312,-1.6632,-1.6788,-1.6804,-1.673,-1.678,-1.7082,-1.7065,-1.6853,-1.6893,-1.7184,-1.7392,-1.7759,-1.8293,-1.8104,-1.8018,-1.8942,-1.9651,-2.0048,-2.0202,-2.0236,-2.1043,-2.229,-2.3309,-2.4235,-2.4678,-2.545,-2.6162,-2.6782,-2.6842,-2.7632,-2.9494,-3.0794,-3.1334,-3.1933,-3.266,-3.2864,-3.2682,-3.2813,-3.2874,-3.2406,-3.1915,-3.1345,-3.0785,-3.073,-3.0713,-3.0522,-3.0439,-3.0665,-2.5841,-2.608,-2.56,-2.5505,-2.5568,-2.4829,-2.4262,-2.3841,-2.3667,-2.3484,-2.3299,-2.257,-2.2277,-2.2101,-2.1569,-2.1033,-2.0657,-2.0198,-1.9455,-1.8272,-1.7717,-1.6987,-1.6337,-1.588,-1.569,-1.5873,-1.5981,-1.5812,-1.5425,-1.5425,-1.5,-1.4779,-1.5177,-1.4518,-1.329,-1.3011,-1.3409,-1.3709,-1.3703,-1.3703,-1.3986,-1.4651,-1.5032,-1.474,-1.4724,-1.4624,-1.4392,-1.3918,-1.3617,-1.3568,-1.3886,-1.4216,-1.4734,-1.5242,-1.5673,-1.5899,-1.5966,-1.5816,-1.5966,-1.5764,-1.5659,-1.5696,-1.5906,-1.6327,-1.6698,-1.7115,-1.7513,-1.7908,-1.8149,-1.8167,-1.8095,-1.8136,-1.8179,-1.7717,-1.7527,-1.7626,-1.7857,-1.7898,-1.8171,-1.8848,-1.9043,-1.9379,-2.0052,-2.0853,-2.1381,-2.1886,-2.2007,-2.248,-2.3522,-2.4584,-2.5493,-2.5577,-2.6048,-2.671,-2.7155,-2.75,-2.8003,-2.9543,-3.0916,-3.1881,-3.247,-3.2961,-3.2947,-3.2837,-3.3337,-3.3778,-3.2859,-3.2015,-3.1437,-3.1028,-3.0853,-3.0723,-3.0591,-3.0447,-3.0418,-2.7232,-2.7383,-2.7058,-2.7151,-2.7302,-2.6329,-2.5516,-2.4946,-2.468,-2.4605,-2.4433,-2.3983,-2.38,-2.3617,-2.326,-2.2746,-2.2648,-2.2199,-2.1569,-2.0477,-1.9662,-1.884,-1.8203,-1.7576,-1.7304,-1.7483,-1.7598,-1.7441,-1.6828,-1.7023,-1.68,-1.6664,-1.7044,-1.6778,-1.5954,-1.5778,-1.5697,-1.5981,-1.6069,-1.6264,-1.6452,-1.6741,-1.6929,-1.6607,-1.6401,-1.6031,-1.5634,-1.5123,-1.4649,-1.4762,-1.5039,-1.544,-1.6057,-1.6566,-1.7082,-1.7212,-1.744,-1.7359,-1.7488,-1.7254,-1.7141,-1.7031,-1.7122,-1.7383,-1.7764,-1.8158,-1.8638,-1.9027,-1.9502,-1.933,-1.9072,-1.9135,-1.8966,-1.8428,-1.8267,-1.8413,-1.8451,-1.8533,-1.8794,-1.9486,-2.0147,-2.0608,-2.1267,-2.2053,-2.2735,-2.3297,-2.382,-2.4266,-2.461,-2.5453,-2.6309,-2.6476,-2.6578,-2.7079,-2.7783,-2.8494,-2.9025,-2.9748,-3.095,-3.2197,-3.2603,-3.3014,-3.298,-3.2965,-3.3128,-3.3116,-3.2684,-3.2056,-3.1468,-3.1041,-3.0788,-3.0677,-3.0622,-3.0475,-3.0324,-2.8573,-2.8176,-2.8176,-2.8255,-2.8347,-2.7706,-2.6905,-2.6268,-2.6185,-2.5863,-2.5274,-2.5189,-2.5094,-2.4925,-2.4669,-2.4317,-2.3963,-2.3704,-2.3086,-2.2287,-2.1382,-2.0666,-1.9977,-1.9371,-1.908,-1.892,-1.8843,-1.8835,-1.8218,-1.8403,-1.858,-1.8764,-1.8956,-1.8948,-1.8764,-1.8488,-1.8126,-1.8033,-1.8033,-1.8033,-1.8126,-1.8596,-1.8456,-1.8216,-1.8073,-1.7713,-1.7336,-1.6885,-1.6659,-1.6735,-1.6935,-1.7172,-1.7504,-1.7827,-1.8086,-1.8407,-1.8727,-1.9018,-1.8795,-1.8488,-1.8488,-1.833,-1.8758,-1.8691,-1.8798,-1.921,-1.9747,-2.0012,-2.0285,-1.9995,-1.9716,-1.972,-1.9718,-1.933,-1.901,-1.9104,-1.9241,-1.9406,-1.9634,-2.0194,-2.0789,-2.1455,-2.2335,-2.3122,-2.3794,-2.4191,-2.473,-2.519,-2.5494,-2.572,-2.65,-2.7078,-2.724,-2.7473,-2.8205,-2.9167,-2.9757,-3.0374,-3.1321,-3.2438,-3.2781,-3.3082,-3.314,-3.3096,-3.2733,-3.2478,-3.2162,-3.1853,-3.1478,-3.1112,-3.0745,-3.0667,-3.0613,-3.0423,-3.0311,-2.9549,-2.9716,-2.9369,-2.9549,-2.996,-2.9741,-2.9081,-2.8028,-2.7232,-2.6835,-2.7069,-2.6823,-2.6577,-2.6517,-2.634,-2.5913,-2.5505,-2.5084,-2.4488,-2.3877,-2.3173,-2.2473,-2.1784,-2.1257,-2.0907,-2.0645,-2.0473,-2.0209,-1.9795,-1.9877,-1.996,-2.0051,-2.0654,-2.1006,-2.1078,-2.1078,-2.015,-1.9413,-1.9413,-1.9413,-1.9505,-1.9786,-1.957,-1.9362,-1.9478,-1.8995,-1.8261,-1.8029,-1.7813,-1.7652,-1.7827,-1.8141,-1.8727,-1.8957,-1.9195,-1.9511,-1.9875,-2.011,-1.9496,-1.9468,-1.9512,-1.9432,-1.9618,-1.9934,-1.9975,-2.037,-2.0931,-2.1044,-2.1171,-2.0978,-2.0706,-2.0576,-2.0462,-2.01,-1.9833,-1.9822,-1.9972,-2.0161,-2.0462,-2.1026,-2.1667,-2.2384,-2.3327,-2.4137,-2.4727,-2.508,-2.556,-2.6037,-2.6462,-2.663,-2.6893,-2.75,-2.7966,-2.8239,-2.9038,-3.002,-3.0482,-3.0991,-3.19,-3.2722,-3.3219,-3.3484,-3.345,-3.313,-3.2617,-3.2183,-3.1819,-3.1515,-3.1234,-3.1028,-3.0721,-3.0652,-3.058,-3.0414,-3.0215,-3.0583,-3.0823,-3.057,-3.0672,-3.0999,-3.0999,-3.0508,-2.9704,-2.8597,-2.8039,-2.8039,-2.7867,-2.7799,-2.7637,-2.7476,-2.7162,-2.6682,-2.6268,-2.5757,-2.5168,-2.4754,-2.4145,-2.3454,-2.3018,-2.2668,-2.2413,-2.2059,-2.1695,-2.132,-2.106,-2.1069,-2.1338,-2.2143,-2.2302,-2.2362,-2.2167,-2.1713,-2.106,-2.0692,-2.0512,-2.0692,-2.0953,-2.0633,-2.0272,-2.0566,-1.9818,-1.9064,-1.9071,-1.8941,-1.8825,-1.9107,-1.9502,-2.0001,-2.0157,-2.0537,-2.0779,-2.1078,-2.1131,-2.0737,-2.0404,-2.0307,-2.0278,-2.0524,-2.0697,-2.1021,-2.1334,-2.1702,-2.1871,-2.2083,-2.2142,-2.1782,-2.1511,-2.1138,-2.0755,-2.0687,-2.054,-2.0752,-2.1008,-2.1428,-2.1939,-2.2604,-2.3386,-2.415,-2.4951,-2.5439,-2.5504,-2.6069,-2.6916,-2.7312,-2.761,-2.7777,-2.813,-2.8589,-2.9049,-2.9929,-3.0704,-3.1069,-3.1532,-3.2241,-3.2988,-3.359,-3.366,-3.3493,-3.2975,-3.2354,-3.1943,-3.154,-3.1262,-3.1014,-3.0753,-3.0648,-3.0722,-3.0642,-3.0482,-3.026,-3.1509,-3.1569,-3.1589,-3.1603,-3.1596,-3.1495,-3.1434,-3.1535,-3.0114,-2.9238,-2.8821,-2.8664,-2.8664,-2.8664,-2.8585,-2.8199,-2.7742,-2.7336,-2.6928,-2.6268,-2.5695,-2.5189,-2.484,-2.4573,-2.4049,-2.3877,-2.3531,-2.2921,-2.2843,-2.2668,-2.258,-2.2608,-2.2706,-2.2882,-2.2969,-2.2882,-2.2608,-2.2511,-2.2246,-2.2148,-2.2157,-2.2296,-2.2242,-2.1749,-2.1485,-2.1078,-2.0752,-2.056,-2.0469,-2.0547,-2.0644,-2.0876,-2.1098,-2.1328,-2.1721,-2.1949,-2.2014,-2.2039,-2.1861,-2.1551,-2.1392,-2.1435,-2.1572,-2.1694,-2.1958,-2.1901,-2.2013,-2.2299,-2.244,-2.2452,-2.2218,-2.1991,-2.17,-2.1517,-2.1415,-2.1394,-2.1514,-2.1815,-2.2298,-2.2859,-2.3505,-2.4221,-2.4838,-2.5618,-2.6051,-2.5959,-2.6312,-2.7378,-2.8244,-2.8556,-2.8748,-2.8889,-2.9364,-2.9947,-3.0667,-3.1346,-3.1636,-3.2119,-3.2729,-3.335,-3.4009,-3.387,-3.3484,-3.2883,-3.2273,-3.1718,-3.1306,-3.1043,-3.0707,-3.0327,-3.0326,-3.068,-3.0704,-3.0568,-3.0356,-3.0923,-3.1432,-3.1764,-3.1993,-3.2187,-3.2023,-3.2069,-3.2141,-3.1421,-3.0846,-3.0646,-3.0393,-3.0088,-2.9768,-2.9626,-2.9316,-2.8858,-2.8371,-2.7903,-2.7418,-2.6857,-2.6196,-2.5757,-2.5505,-2.5062,-2.4648,-2.4317,-2.4145,-2.4059,-2.4135,-2.4135,-2.381,-2.3897,-2.3983,-2.358,-2.3493,-2.3406,-2.3406,-2.3232,-2.2969,-2.2803,-2.2999,-2.3026,-2.2607,-2.235,-2.2197,-2.1885,-2.15,-2.1501,-2.153,-2.1568,-2.1752,-2.2025,-2.2252,-2.2402,-2.2553,-2.2692,-2.27,-2.2597,-2.2402,-2.2329,-2.2347,-2.258,-2.2808,-2.277,-2.2329,-2.2198,-2.2462,-2.267,-2.2736,-2.2662,-2.2432,-2.2306,-2.2239,-2.2151,-2.2219,-2.2223,-2.2702,-2.3173,-2.3754,-2.435,-2.4964,-2.5577,-2.6079,-2.6515,-2.6769,-2.685,-2.7635,-2.89,-2.9516,-2.9758,-2.9964,-3.0326,-3.0874,-3.1504,-3.1915,-3.2206,-3.2536,-3.3067,-3.3743,-3.4371,-3.3752,-3.3089,-3.2727,-3.2215,-3.1557,-3.1032,-3.0804,-3.0439,-3.0146,-3.0235,-3.0702,-3.0778,-3.0685,-3.0466,-3.1373,-3.1744,-3.2018,-3.2171,-3.2193,-3.2041,-3.1972,-3.1833,-3.1368,-3.1303,-3.1514,-3.1362,-3.1123,-3.0872,-3.0735,-3.0406,-2.9935,-2.9447,-2.8846,-2.8383,-2.7914,-2.7429,-2.6928,-2.6517,-2.6423,-2.6008,-2.5589,-2.5337,-2.5158,-2.5158,-2.5147,-2.4988,-2.5168,-2.4904,-2.4327,-2.4166,-2.3993,-2.3754,-2.3724,-2.3551,-2.3299,-2.3434,-2.3352,-2.3053,-2.2938,-2.2772,-2.2352,-2.1949,-2.1936,-2.1998,-2.2053,-2.2348,-2.2617,-2.2852,-2.3001,-2.3075,-2.3191,-2.3176,-2.3139,-2.3071,-2.3103,-2.3153,-2.3087,-2.3213,-2.2829,-2.249,-2.28,-2.3121,-2.3684,-2.3873,-2.3327,-2.3026,-2.2906,-2.2791,-2.2836,-2.2896,-2.3327,-2.3859,-2.4208,-2.461,-2.5133,-2.5577,-2.6176,-2.6707,-2.7129,-2.7238,-2.7395,-2.8082,-2.9297,-3.0335,-3.0626,-3.0907,-3.1139,-3.1528,-3.2021,-3.2431,-3.2773,-3.3125,-3.345,-3.3641,-3.3863,-3.3235,-3.2641,-3.2064,-3.1561,-3.1168,-3.0726,-3.0639,-3.0609,-3.0437,-3.0559,-3.0781,-3.0774,-3.0752,-3.0587,-3.2179,-3.2344,-3.2392,-3.2353,-3.2198,-3.194,-3.1786,-3.1603,-3.1057,-3.1266,-3.1751,-3.1653,-3.1675,-3.173,-3.1669,-3.1246,-3.0846,-3.0456,-2.9858,-2.9341,-2.887,-2.8303,-2.8007,-2.7788,-2.7452,-2.7196,-2.6857,-2.6351,-2.5997,-2.6246,-2.6329,-2.608,-2.5891,-2.5714,-2.5115,-2.4882,-2.4713,-2.4217,-2.4016,-2.4002,-2.3892,-2.3897,-2.3609,-2.3408,-2.323,-2.2847,-2.2443,-2.2076,-2.2107,-2.2363,-2.2542,-2.2818,-2.3172,-2.3369,-2.3548,-2.3682,-2.3731,-2.3788,-2.3727,-2.3715,-2.3638,-2.3653,-2.3522,-2.3451,-2.315,-2.3317,-2.3711,-2.3951,-2.4539,-2.4503,-2.4001,-2.385,-2.3741,-2.3478,-2.3596,-2.3728,-2.431,-2.4838,-2.5119,-2.5453,-2.5837,-2.6283,-2.6759,-2.7357,-2.758,-2.775,-2.8192,-2.8998,-2.9781,-3.0576,-3.1166,-3.145,-3.1691,-3.2127,-3.2533,-3.2942,-3.3284,-3.3471,-3.3711,-3.3601,-3.3322,-3.2661,-3.193,-3.1113,-3.0646,-3.0696,-3.0743,-3.073,-3.0674,-3.064,-3.0703,-3.0795,-3.0794,-3.0759,-3.0691,-3.1901,-3.2437,-3.2955,-3.308,-3.2856,-3.2635,-3.2616,-3.2533,-3.2141,-3.2141,-3.206,-3.1871,-3.1888,-3.2489,-3.2286,-3.2042,-3.169,-3.1381,-3.1097,-3.0583,-2.9639,-2.9172,-2.8712,-2.8271,-2.7962,-2.7719,-2.7626,-2.7545,-2.7174,-2.751,-2.7592,-2.6999,-2.7487,-2.692,-2.5721,-2.5541,-2.533,-2.4887,-2.4634,-2.4551,-2.4676,-2.4514,-2.4135,-2.3931,-2.3698,-2.3691,-2.3412,-2.2708,-2.2606,-2.2839,-2.3315,-2.3559,-2.3821,-2.4084,-2.4308,-2.4378,-2.4355,-2.4436,-2.446,-2.4483,-2.4531,-2.4449,-2.4501,-2.4815,-2.4767,-2.5018,-2.5146,-2.4899,-2.5201,-2.4998,-2.4672,-2.4988,-2.4959,-2.4468,-2.4337,-2.4711,-2.5175,-2.5453,-2.5673,-2.6054,-2.6428,-2.6916,-2.7342,-2.781,-2.8107,-2.8319,-2.867,-2.9457,-3.0277,-3.0983,-3.1652,-3.196,-3.223,-3.2624,-3.3003,-3.3441,-3.3781,-3.3925,-3.3767,-3.3242,-3.2683,-3.2076,-3.1339,-3.0772,-3.0645,-3.0717,-3.0745,-3.0771,-3.0757,-3.0722,-3.0756,-3.0796,-3.0786,-3.0769,-3.0691]}]]